<?xml version="1.0" encoding="UTF-8" standalone="no" ?>
<gpx xmlns="http://www.topografix.com/GPX/1/1" xmlns:xsi="http://www.w3.org/2001/XMLSchema-instance" xsi:schemaLocation="http://www.topografix.com/GPX/1/1 http://www.topografix.com/GPX/1/1/gpx.xsd" version="1.1" creator="VisuGPX - https://www.visugpx.com">
  <metadata>
    <name>GR 441, GR 30, étape 01</name>
    <desc><![CDATA[De La Bourboule au Lac de Servières.]]></desc>
  </metadata>
  <trk>
    <name><![CDATA[GR 441 - GR 30 étape 01_1]]></name>
    <extensions>
      <line xmlns="http://www.topografix.com/GPX/gpx_style/0/2">
        <color>0000FF</color>
        <width>4</width>
      </line>
    </extensions>
    <trkseg>
      <trkpt lat="45.5903" lon="2.74674">
        <ele>862</ele>
        <time>2021-08-25T10:14:05.000Z</time>
      </trkpt>
      <trkpt lat="45.59036" lon="2.74666">
        <ele>861.7</ele>
        <time>2021-08-25T10:14:11.000Z</time>
      </trkpt>
      <trkpt lat="45.59043" lon="2.74666">
        <ele>861.4</ele>
        <time>2021-08-25T10:14:17.000Z</time>
      </trkpt>
      <trkpt lat="45.59051" lon="2.74667">
        <ele>861.2</ele>
        <time>2021-08-25T10:14:22.000Z</time>
      </trkpt>
      <trkpt lat="45.59053" lon="2.74677">
        <ele>861.2</ele>
        <time>2021-08-25T10:14:50.000Z</time>
      </trkpt>
      <trkpt lat="45.5905" lon="2.74686">
        <ele>861.4</ele>
        <time>2021-08-25T10:14:56.000Z</time>
      </trkpt>
      <trkpt lat="45.59047" lon="2.74695">
        <ele>861.6</ele>
        <time>2021-08-25T10:15:02.000Z</time>
      </trkpt>
      <trkpt lat="45.59043" lon="2.74703">
        <ele>861.9</ele>
        <time>2021-08-25T10:15:08.000Z</time>
      </trkpt>
      <trkpt lat="45.59042" lon="2.74714">
        <ele>862.1</ele>
        <time>2021-08-25T10:15:41.000Z</time>
      </trkpt>
      <trkpt lat="45.59042" lon="2.74725">
        <ele>862.2</ele>
        <time>2021-08-25T10:16:51.000Z</time>
      </trkpt>
      <trkpt lat="45.59045" lon="2.74734">
        <ele>862.2</ele>
        <time>2021-08-25T10:16:57.000Z</time>
      </trkpt>
      <trkpt lat="45.59049" lon="2.74745">
        <ele>862.2</ele>
        <time>2021-08-25T10:17:02.000Z</time>
      </trkpt>
      <trkpt lat="45.59051" lon="2.74758">
        <ele>862.2</ele>
        <time>2021-08-25T10:17:08.000Z</time>
      </trkpt>
      <trkpt lat="45.59052" lon="2.74768">
        <ele>862.2</ele>
        <time>2021-08-25T10:17:13.000Z</time>
      </trkpt>
      <trkpt lat="45.59056" lon="2.74776">
        <ele>862.1</ele>
        <time>2021-08-25T10:17:23.000Z</time>
      </trkpt>
      <trkpt lat="45.59058" lon="2.74785">
        <ele>862</ele>
        <time>2021-08-25T10:17:31.000Z</time>
      </trkpt>
      <trkpt lat="45.59058" lon="2.74794">
        <ele>862.1</ele>
        <time>2021-08-25T10:19:21.000Z</time>
      </trkpt>
      <trkpt lat="45.5906" lon="2.74804">
        <ele>862</ele>
        <time>2021-08-25T10:19:28.000Z</time>
      </trkpt>
      <trkpt lat="45.59062" lon="2.74814">
        <ele>862</ele>
        <time>2021-08-25T10:19:34.000Z</time>
      </trkpt>
      <trkpt lat="45.59066" lon="2.74823">
        <ele>861.8</ele>
        <time>2021-08-25T10:19:45.000Z</time>
      </trkpt>
      <trkpt lat="45.59071" lon="2.74829">
        <ele>861.6</ele>
        <time>2021-08-25T10:19:52.000Z</time>
      </trkpt>
      <trkpt lat="45.59074" lon="2.74839">
        <ele>861.5</ele>
        <time>2021-08-25T10:20:02.000Z</time>
      </trkpt>
      <trkpt lat="45.59077" lon="2.74849">
        <ele>861.5</ele>
        <time>2021-08-25T10:20:08.000Z</time>
      </trkpt>
      <trkpt lat="45.59079" lon="2.74859">
        <ele>861.5</ele>
        <time>2021-08-25T10:20:13.000Z</time>
      </trkpt>
      <trkpt lat="45.59083" lon="2.74868">
        <ele>861.4</ele>
        <time>2021-08-25T10:20:19.000Z</time>
      </trkpt>
      <trkpt lat="45.59084" lon="2.74879">
        <ele>861.6</ele>
        <time>2021-08-25T10:20:29.000Z</time>
      </trkpt>
      <trkpt lat="45.59089" lon="2.74886">
        <ele>862.1</ele>
        <time>2021-08-25T10:20:36.000Z</time>
      </trkpt>
      <trkpt lat="45.59088" lon="2.74895">
        <ele>862.1</ele>
        <time>2021-08-25T10:21:02.000Z</time>
      </trkpt>
      <trkpt lat="45.59088" lon="2.74905">
        <ele>862.2</ele>
        <time>2021-08-25T10:21:08.000Z</time>
      </trkpt>
      <trkpt lat="45.5909" lon="2.74916">
        <ele>862.5</ele>
        <time>2021-08-25T10:21:13.000Z</time>
      </trkpt>
      <trkpt lat="45.59091" lon="2.74926">
        <ele>862.7</ele>
        <time>2021-08-25T10:21:20.000Z</time>
      </trkpt>
      <trkpt lat="45.59095" lon="2.74933">
        <ele>863.1</ele>
        <time>2021-08-25T10:21:42.000Z</time>
      </trkpt>
      <trkpt lat="45.591" lon="2.74945">
        <ele>863.6</ele>
        <time>2021-08-25T10:21:48.000Z</time>
      </trkpt>
      <trkpt lat="45.59102" lon="2.74954">
        <ele>863.8</ele>
        <time>2021-08-25T10:21:53.000Z</time>
      </trkpt>
      <trkpt lat="45.59106" lon="2.74962">
        <ele>864.1</ele>
        <time>2021-08-25T10:21:59.000Z</time>
      </trkpt>
      <trkpt lat="45.59112" lon="2.74969">
        <ele>864.5</ele>
        <time>2021-08-25T10:22:06.000Z</time>
      </trkpt>
      <trkpt lat="45.59115" lon="2.74979">
        <ele>864.6</ele>
        <time>2021-08-25T10:22:12.000Z</time>
      </trkpt>
      <trkpt lat="45.59113" lon="2.74989">
        <ele>864.6</ele>
        <time>2021-08-25T10:22:17.000Z</time>
      </trkpt>
      <trkpt lat="45.5911" lon="2.75002">
        <ele>864.7</ele>
        <time>2021-08-25T10:22:22.000Z</time>
      </trkpt>
      <trkpt lat="45.59109" lon="2.75016">
        <ele>864.9</ele>
        <time>2021-08-25T10:22:28.000Z</time>
      </trkpt>
      <trkpt lat="45.59109" lon="2.75027">
        <ele>865</ele>
        <time>2021-08-25T10:22:34.000Z</time>
      </trkpt>
      <trkpt lat="45.59109" lon="2.75038">
        <ele>865.2</ele>
        <time>2021-08-25T10:22:41.000Z</time>
      </trkpt>
      <trkpt lat="45.59106" lon="2.75048">
        <ele>865.3</ele>
        <time>2021-08-25T10:22:47.000Z</time>
      </trkpt>
      <trkpt lat="45.59106" lon="2.75058">
        <ele>865.4</ele>
        <time>2021-08-25T10:22:52.000Z</time>
      </trkpt>
      <trkpt lat="45.59109" lon="2.75068">
        <ele>865.7</ele>
        <time>2021-08-25T10:22:59.000Z</time>
      </trkpt>
      <trkpt lat="45.59112" lon="2.75077">
        <ele>865.9</ele>
        <time>2021-08-25T10:23:05.000Z</time>
      </trkpt>
      <trkpt lat="45.59119" lon="2.75079">
        <ele>866.2</ele>
        <time>2021-08-25T10:23:26.000Z</time>
      </trkpt>
      <trkpt lat="45.59125" lon="2.75083">
        <ele>866.5</ele>
        <time>2021-08-25T10:23:32.000Z</time>
      </trkpt>
      <trkpt lat="45.59132" lon="2.75084">
        <ele>866.8</ele>
        <time>2021-08-25T10:23:37.000Z</time>
      </trkpt>
      <trkpt lat="45.5914" lon="2.75084">
        <ele>867</ele>
        <time>2021-08-25T10:23:43.000Z</time>
      </trkpt>
      <trkpt lat="45.59148" lon="2.75085">
        <ele>867.3</ele>
        <time>2021-08-25T10:23:48.000Z</time>
      </trkpt>
      <trkpt lat="45.59155" lon="2.75086">
        <ele>867.6</ele>
        <time>2021-08-25T10:23:54.000Z</time>
      </trkpt>
      <trkpt lat="45.59161" lon="2.75089">
        <ele>867.8</ele>
        <time>2021-08-25T10:24:01.000Z</time>
      </trkpt>
      <trkpt lat="45.59167" lon="2.75092">
        <ele>868</ele>
        <time>2021-08-25T10:24:06.000Z</time>
      </trkpt>
      <trkpt lat="45.59173" lon="2.75098">
        <ele>868.6</ele>
        <time>2021-08-25T10:24:12.000Z</time>
      </trkpt>
      <trkpt lat="45.59178" lon="2.75104">
        <ele>869</ele>
        <time>2021-08-25T10:24:17.000Z</time>
      </trkpt>
      <trkpt lat="45.59183" lon="2.75112">
        <ele>869.4</ele>
        <time>2021-08-25T10:24:22.000Z</time>
      </trkpt>
      <trkpt lat="45.59188" lon="2.7512">
        <ele>869.7</ele>
        <time>2021-08-25T10:24:28.000Z</time>
      </trkpt>
      <trkpt lat="45.59194" lon="2.75124">
        <ele>870.1</ele>
        <time>2021-08-25T10:24:33.000Z</time>
      </trkpt>
      <trkpt lat="45.59201" lon="2.75126">
        <ele>870.7</ele>
        <time>2021-08-25T10:24:38.000Z</time>
      </trkpt>
      <trkpt lat="45.59207" lon="2.75132">
        <ele>871</ele>
        <time>2021-08-25T10:24:44.000Z</time>
      </trkpt>
      <trkpt lat="45.59213" lon="2.75136">
        <ele>871.4</ele>
        <time>2021-08-25T10:24:50.000Z</time>
      </trkpt>
      <trkpt lat="45.5922" lon="2.75139">
        <ele>871.8</ele>
        <time>2021-08-25T10:24:56.000Z</time>
      </trkpt>
      <trkpt lat="45.59227" lon="2.75141">
        <ele>872.3</ele>
        <time>2021-08-25T10:25:01.000Z</time>
      </trkpt>
      <trkpt lat="45.59235" lon="2.75139">
        <ele>872.9</ele>
        <time>2021-08-25T10:25:06.000Z</time>
      </trkpt>
      <trkpt lat="45.59244" lon="2.75137">
        <ele>873.6</ele>
        <time>2021-08-25T10:25:12.000Z</time>
      </trkpt>
      <trkpt lat="45.59249" lon="2.75144">
        <ele>873.7</ele>
        <time>2021-08-25T10:25:18.000Z</time>
      </trkpt>
      <trkpt lat="45.5925" lon="2.75156">
        <ele>873.4</ele>
        <time>2021-08-25T10:25:24.000Z</time>
      </trkpt>
      <trkpt lat="45.59248" lon="2.75165">
        <ele>872.9</ele>
        <time>2021-08-25T10:25:42.000Z</time>
      </trkpt>
      <trkpt lat="45.59253" lon="2.75171">
        <ele>873.3</ele>
        <time>2021-08-25T10:25:50.000Z</time>
      </trkpt>
      <trkpt lat="45.59259" lon="2.75176">
        <ele>874</ele>
        <time>2021-08-25T10:25:58.000Z</time>
      </trkpt>
      <trkpt lat="45.59262" lon="2.75186">
        <ele>874.4</ele>
        <time>2021-08-25T10:26:05.000Z</time>
      </trkpt>
      <trkpt lat="45.59265" lon="2.75196">
        <ele>874.7</ele>
        <time>2021-08-25T10:26:11.000Z</time>
      </trkpt>
      <trkpt lat="45.59269" lon="2.75204">
        <ele>875.2</ele>
        <time>2021-08-25T10:26:16.000Z</time>
      </trkpt>
      <trkpt lat="45.59273" lon="2.75211">
        <ele>875.6</ele>
        <time>2021-08-25T10:26:21.000Z</time>
      </trkpt>
      <trkpt lat="45.59279" lon="2.75219">
        <ele>876.2</ele>
        <time>2021-08-25T10:26:27.000Z</time>
      </trkpt>
      <trkpt lat="45.59283" lon="2.75227">
        <ele>876.6</ele>
        <time>2021-08-25T10:26:32.000Z</time>
      </trkpt>
      <trkpt lat="45.59286" lon="2.75236">
        <ele>876.9</ele>
        <time>2021-08-25T10:26:37.000Z</time>
      </trkpt>
      <trkpt lat="45.59289" lon="2.75246">
        <ele>877.3</ele>
        <time>2021-08-25T10:26:42.000Z</time>
      </trkpt>
      <trkpt lat="45.59291" lon="2.75256">
        <ele>877.4</ele>
        <time>2021-08-25T10:26:48.000Z</time>
      </trkpt>
      <trkpt lat="45.59295" lon="2.75264">
        <ele>877.8</ele>
        <time>2021-08-25T10:26:53.000Z</time>
      </trkpt>
      <trkpt lat="45.59298" lon="2.75274">
        <ele>878</ele>
        <time>2021-08-25T10:26:58.000Z</time>
      </trkpt>
      <trkpt lat="45.59298" lon="2.75288">
        <ele>878</ele>
        <time>2021-08-25T10:27:04.000Z</time>
      </trkpt>
      <trkpt lat="45.593" lon="2.75299">
        <ele>878.1</ele>
        <time>2021-08-25T10:27:09.000Z</time>
      </trkpt>
      <trkpt lat="45.59304" lon="2.75311">
        <ele>878.3</ele>
        <time>2021-08-25T10:27:14.000Z</time>
      </trkpt>
      <trkpt lat="45.59312" lon="2.7532">
        <ele>878.8</ele>
        <time>2021-08-25T10:27:20.000Z</time>
      </trkpt>
      <trkpt lat="45.5932" lon="2.75326">
        <ele>879.3</ele>
        <time>2021-08-25T10:27:25.000Z</time>
      </trkpt>
      <trkpt lat="45.59322" lon="2.75335">
        <ele>879.3</ele>
        <time>2021-08-25T10:27:36.000Z</time>
      </trkpt>
      <trkpt lat="45.59324" lon="2.75346">
        <ele>879.6</ele>
        <time>2021-08-25T10:27:43.000Z</time>
      </trkpt>
      <trkpt lat="45.59326" lon="2.75357">
        <ele>879.8</ele>
        <time>2021-08-25T10:27:48.000Z</time>
      </trkpt>
      <trkpt lat="45.59331" lon="2.75364">
        <ele>880.2</ele>
        <time>2021-08-25T10:27:53.000Z</time>
      </trkpt>
      <trkpt lat="45.59323" lon="2.75375">
        <ele>879.8</ele>
        <time>2021-08-25T10:28:01.000Z</time>
      </trkpt>
      <trkpt lat="45.59315" lon="2.7539">
        <ele>879.4</ele>
        <time>2021-08-25T10:28:06.000Z</time>
      </trkpt>
      <trkpt lat="45.59309" lon="2.75395">
        <ele>879.1</ele>
        <time>2021-08-25T10:28:16.000Z</time>
      </trkpt>
      <trkpt lat="45.59302" lon="2.75396">
        <ele>878.6</ele>
        <time>2021-08-25T10:28:27.000Z</time>
      </trkpt>
      <trkpt lat="45.59307" lon="2.75405">
        <ele>879</ele>
        <time>2021-08-25T10:28:50.000Z</time>
      </trkpt>
      <trkpt lat="45.5931" lon="2.75413">
        <ele>879.3</ele>
        <time>2021-08-25T10:28:56.000Z</time>
      </trkpt>
      <trkpt lat="45.59313" lon="2.75423">
        <ele>879.7</ele>
        <time>2021-08-25T10:29:01.000Z</time>
      </trkpt>
      <trkpt lat="45.59316" lon="2.75434">
        <ele>880.2</ele>
        <time>2021-08-25T10:29:06.000Z</time>
      </trkpt>
      <trkpt lat="45.5932" lon="2.75446">
        <ele>880.7</ele>
        <time>2021-08-25T10:29:12.000Z</time>
      </trkpt>
      <trkpt lat="45.59324" lon="2.75456">
        <ele>881.3</ele>
        <time>2021-08-25T10:29:17.000Z</time>
      </trkpt>
      <trkpt lat="45.59327" lon="2.75466">
        <ele>881.7</ele>
        <time>2021-08-25T10:29:22.000Z</time>
      </trkpt>
      <trkpt lat="45.59332" lon="2.75478">
        <ele>882.4</ele>
        <time>2021-08-25T10:29:28.000Z</time>
      </trkpt>
      <trkpt lat="45.59336" lon="2.75488">
        <ele>882.9</ele>
        <time>2021-08-25T10:29:33.000Z</time>
      </trkpt>
      <trkpt lat="45.59338" lon="2.755">
        <ele>883.4</ele>
        <time>2021-08-25T10:29:38.000Z</time>
      </trkpt>
      <trkpt lat="45.59345" lon="2.75513">
        <ele>883.7</ele>
        <time>2021-08-25T10:29:44.000Z</time>
      </trkpt>
      <trkpt lat="45.5935" lon="2.75522">
        <ele>884</ele>
        <time>2021-08-25T10:29:49.000Z</time>
      </trkpt>
      <trkpt lat="45.59353" lon="2.75531">
        <ele>884.2</ele>
        <time>2021-08-25T10:29:54.000Z</time>
      </trkpt>
      <trkpt lat="45.59356" lon="2.75541">
        <ele>884.4</ele>
        <time>2021-08-25T10:30:00.000Z</time>
      </trkpt>
      <trkpt lat="45.5936" lon="2.7555">
        <ele>884.8</ele>
        <time>2021-08-25T10:30:06.000Z</time>
      </trkpt>
      <trkpt lat="45.59363" lon="2.75561">
        <ele>885.1</ele>
        <time>2021-08-25T10:30:12.000Z</time>
      </trkpt>
      <trkpt lat="45.59365" lon="2.75571">
        <ele>885.4</ele>
        <time>2021-08-25T10:30:18.000Z</time>
      </trkpt>
      <trkpt lat="45.5937" lon="2.75583">
        <ele>886.2</ele>
        <time>2021-08-25T10:30:24.000Z</time>
      </trkpt>
      <trkpt lat="45.59371" lon="2.75593">
        <ele>886.3</ele>
        <time>2021-08-25T10:30:30.000Z</time>
      </trkpt>
      <trkpt lat="45.59372" lon="2.75605">
        <ele>886.4</ele>
        <time>2021-08-25T10:30:36.000Z</time>
      </trkpt>
      <trkpt lat="45.59372" lon="2.75617">
        <ele>886.3</ele>
        <time>2021-08-25T10:30:41.000Z</time>
      </trkpt>
      <trkpt lat="45.59372" lon="2.75628">
        <ele>886.3</ele>
        <time>2021-08-25T10:30:46.000Z</time>
      </trkpt>
      <trkpt lat="45.59373" lon="2.75641">
        <ele>886.4</ele>
        <time>2021-08-25T10:30:52.000Z</time>
      </trkpt>
      <trkpt lat="45.59376" lon="2.7565">
        <ele>886.7</ele>
        <time>2021-08-25T10:30:57.000Z</time>
      </trkpt>
      <trkpt lat="45.59379" lon="2.7566">
        <ele>887.1</ele>
        <time>2021-08-25T10:31:02.000Z</time>
      </trkpt>
      <trkpt lat="45.59382" lon="2.75673">
        <ele>887.4</ele>
        <time>2021-08-25T10:31:08.000Z</time>
      </trkpt>
      <trkpt lat="45.59385" lon="2.75684">
        <ele>887.6</ele>
        <time>2021-08-25T10:31:13.000Z</time>
      </trkpt>
      <trkpt lat="45.59387" lon="2.75695">
        <ele>887.7</ele>
        <time>2021-08-25T10:31:18.000Z</time>
      </trkpt>
      <trkpt lat="45.5939" lon="2.75707">
        <ele>887.8</ele>
        <time>2021-08-25T10:31:24.000Z</time>
      </trkpt>
      <trkpt lat="45.59393" lon="2.75718">
        <ele>887.9</ele>
        <time>2021-08-25T10:31:29.000Z</time>
      </trkpt>
      <trkpt lat="45.59395" lon="2.75728">
        <ele>887.9</ele>
        <time>2021-08-25T10:31:34.000Z</time>
      </trkpt>
      <trkpt lat="45.59396" lon="2.7574">
        <ele>887.7</ele>
        <time>2021-08-25T10:31:40.000Z</time>
      </trkpt>
      <trkpt lat="45.59397" lon="2.7575">
        <ele>887.6</ele>
        <time>2021-08-25T10:31:45.000Z</time>
      </trkpt>
      <trkpt lat="45.59397" lon="2.7576">
        <ele>888</ele>
        <time>2021-08-25T10:31:50.000Z</time>
      </trkpt>
      <trkpt lat="45.59398" lon="2.75771">
        <ele>888.5</ele>
        <time>2021-08-25T10:31:56.000Z</time>
      </trkpt>
      <trkpt lat="45.59399" lon="2.75782">
        <ele>889</ele>
        <time>2021-08-25T10:32:27.000Z</time>
      </trkpt>
      <trkpt lat="45.59397" lon="2.75792">
        <ele>889.2</ele>
        <time>2021-08-25T10:32:32.000Z</time>
      </trkpt>
      <trkpt lat="45.59394" lon="2.75802">
        <ele>889.4</ele>
        <time>2021-08-25T10:32:37.000Z</time>
      </trkpt>
      <trkpt lat="45.5939" lon="2.75812">
        <ele>889.6</ele>
        <time>2021-08-25T10:32:42.000Z</time>
      </trkpt>
      <trkpt lat="45.59385" lon="2.75825">
        <ele>889.8</ele>
        <time>2021-08-25T10:32:48.000Z</time>
      </trkpt>
      <trkpt lat="45.59384" lon="2.75835">
        <ele>890.1</ele>
        <time>2021-08-25T10:32:53.000Z</time>
      </trkpt>
      <trkpt lat="45.5938" lon="2.75844">
        <ele>890.1</ele>
        <time>2021-08-25T10:32:59.000Z</time>
      </trkpt>
      <trkpt lat="45.59377" lon="2.75854">
        <ele>890.2</ele>
        <time>2021-08-25T10:33:04.000Z</time>
      </trkpt>
      <trkpt lat="45.59373" lon="2.75863">
        <ele>890.3</ele>
        <time>2021-08-25T10:33:09.000Z</time>
      </trkpt>
      <trkpt lat="45.59371" lon="2.75876">
        <ele>890.6</ele>
        <time>2021-08-25T10:33:14.000Z</time>
      </trkpt>
      <trkpt lat="45.59365" lon="2.75884">
        <ele>890.6</ele>
        <time>2021-08-25T10:33:20.000Z</time>
      </trkpt>
      <trkpt lat="45.59362" lon="2.75894">
        <ele>890.9</ele>
        <time>2021-08-25T10:33:27.000Z</time>
      </trkpt>
      <trkpt lat="45.59359" lon="2.75903">
        <ele>891.1</ele>
        <time>2021-08-25T10:33:33.000Z</time>
      </trkpt>
      <trkpt lat="45.59355" lon="2.75912">
        <ele>891.3</ele>
        <time>2021-08-25T10:33:42.000Z</time>
      </trkpt>
      <trkpt lat="45.59352" lon="2.75925">
        <ele>891.9</ele>
        <time>2021-08-25T10:33:48.000Z</time>
      </trkpt>
      <trkpt lat="45.59348" lon="2.75939">
        <ele>892.5</ele>
        <time>2021-08-25T10:33:53.000Z</time>
      </trkpt>
      <trkpt lat="45.59345" lon="2.75947">
        <ele>892.8</ele>
        <time>2021-08-25T10:33:59.000Z</time>
      </trkpt>
      <trkpt lat="45.59343" lon="2.75957">
        <ele>893.2</ele>
        <time>2021-08-25T10:34:05.000Z</time>
      </trkpt>
      <trkpt lat="45.5934" lon="2.75967">
        <ele>893.6</ele>
        <time>2021-08-25T10:34:11.000Z</time>
      </trkpt>
      <trkpt lat="45.59337" lon="2.75976">
        <ele>894</ele>
        <time>2021-08-25T10:34:16.000Z</time>
      </trkpt>
      <trkpt lat="45.59336" lon="2.75985">
        <ele>894.4</ele>
        <time>2021-08-25T10:34:22.000Z</time>
      </trkpt>
      <trkpt lat="45.59337" lon="2.75996">
        <ele>894.9</ele>
        <time>2021-08-25T10:34:30.000Z</time>
      </trkpt>
      <trkpt lat="45.59336" lon="2.76007">
        <ele>895</ele>
        <time>2021-08-25T10:34:37.000Z</time>
      </trkpt>
      <trkpt lat="45.59335" lon="2.76019">
        <ele>894.8</ele>
        <time>2021-08-25T10:34:42.000Z</time>
      </trkpt>
      <trkpt lat="45.59334" lon="2.7603">
        <ele>894.7</ele>
        <time>2021-08-25T10:34:49.000Z</time>
      </trkpt>
      <trkpt lat="45.59332" lon="2.76039">
        <ele>894.4</ele>
        <time>2021-08-25T10:34:55.000Z</time>
      </trkpt>
      <trkpt lat="45.59332" lon="2.76049">
        <ele>894.3</ele>
        <time>2021-08-25T10:35:00.000Z</time>
      </trkpt>
      <trkpt lat="45.59331" lon="2.76059">
        <ele>894.1</ele>
        <time>2021-08-25T10:35:05.000Z</time>
      </trkpt>
      <trkpt lat="45.59329" lon="2.76071">
        <ele>893.9</ele>
        <time>2021-08-25T10:35:10.000Z</time>
      </trkpt>
      <trkpt lat="45.5933" lon="2.76081">
        <ele>893.8</ele>
        <time>2021-08-25T10:35:16.000Z</time>
      </trkpt>
      <trkpt lat="45.59331" lon="2.76091">
        <ele>894</ele>
        <time>2021-08-25T10:35:21.000Z</time>
      </trkpt>
      <trkpt lat="45.59332" lon="2.76102">
        <ele>894.4</ele>
        <time>2021-08-25T10:35:26.000Z</time>
      </trkpt>
      <trkpt lat="45.59335" lon="2.76119">
        <ele>895</ele>
        <time>2021-08-25T10:35:32.000Z</time>
      </trkpt>
      <trkpt lat="45.59338" lon="2.76133">
        <ele>895.5</ele>
        <time>2021-08-25T10:35:37.000Z</time>
      </trkpt>
      <trkpt lat="45.59346" lon="2.76142">
        <ele>896.3</ele>
        <time>2021-08-25T10:35:42.000Z</time>
      </trkpt>
      <trkpt lat="45.59356" lon="2.76151">
        <ele>897.3</ele>
        <time>2021-08-25T10:35:48.000Z</time>
      </trkpt>
      <trkpt lat="45.59362" lon="2.76156">
        <ele>897.8</ele>
        <time>2021-08-25T10:35:53.000Z</time>
      </trkpt>
      <trkpt lat="45.59371" lon="2.76161">
        <ele>898.6</ele>
        <time>2021-08-25T10:35:58.000Z</time>
      </trkpt>
      <trkpt lat="45.59377" lon="2.76166">
        <ele>899.1</ele>
        <time>2021-08-25T10:36:04.000Z</time>
      </trkpt>
      <trkpt lat="45.59382" lon="2.76175">
        <ele>899.9</ele>
        <time>2021-08-25T10:36:09.000Z</time>
      </trkpt>
      <trkpt lat="45.59386" lon="2.76183">
        <ele>900.6</ele>
        <time>2021-08-25T10:36:14.000Z</time>
      </trkpt>
      <trkpt lat="45.5939" lon="2.76192">
        <ele>901.3</ele>
        <time>2021-08-25T10:36:21.000Z</time>
      </trkpt>
      <trkpt lat="45.59396" lon="2.76198">
        <ele>901.9</ele>
        <time>2021-08-25T10:36:27.000Z</time>
      </trkpt>
      <trkpt lat="45.59403" lon="2.762">
        <ele>902.4</ele>
        <time>2021-08-25T10:36:42.000Z</time>
      </trkpt>
      <trkpt lat="45.5941" lon="2.76203">
        <ele>902.9</ele>
        <time>2021-08-25T10:37:14.000Z</time>
      </trkpt>
      <trkpt lat="45.59417" lon="2.76207">
        <ele>903.5</ele>
        <time>2021-08-25T10:37:21.000Z</time>
      </trkpt>
      <trkpt lat="45.5942" lon="2.76215">
        <ele>904</ele>
        <time>2021-08-25T10:37:29.000Z</time>
      </trkpt>
      <trkpt lat="45.59424" lon="2.76224">
        <ele>904.7</ele>
        <time>2021-08-25T10:37:36.000Z</time>
      </trkpt>
      <trkpt lat="45.59427" lon="2.76233">
        <ele>905.3</ele>
        <time>2021-08-25T10:37:43.000Z</time>
      </trkpt>
      <trkpt lat="45.59431" lon="2.76242">
        <ele>906.1</ele>
        <time>2021-08-25T10:37:51.000Z</time>
      </trkpt>
      <trkpt lat="45.59433" lon="2.76251">
        <ele>906.6</ele>
        <time>2021-08-25T10:37:58.000Z</time>
      </trkpt>
      <trkpt lat="45.59434" lon="2.76261">
        <ele>907.3</ele>
        <time>2021-08-25T10:38:06.000Z</time>
      </trkpt>
      <trkpt lat="45.59437" lon="2.7627">
        <ele>908.2</ele>
        <time>2021-08-25T10:38:14.000Z</time>
      </trkpt>
      <trkpt lat="45.59441" lon="2.7628">
        <ele>909.1</ele>
        <time>2021-08-25T10:38:21.000Z</time>
      </trkpt>
      <trkpt lat="45.59443" lon="2.76289">
        <ele>909.9</ele>
        <time>2021-08-25T10:38:28.000Z</time>
      </trkpt>
      <trkpt lat="45.59455" lon="2.76289">
        <ele>911</ele>
        <time>2021-08-25T10:38:57.000Z</time>
      </trkpt>
      <trkpt lat="45.5946" lon="2.76296">
        <ele>911.9</ele>
        <time>2021-08-25T10:39:05.000Z</time>
      </trkpt>
      <trkpt lat="45.5946" lon="2.76306">
        <ele>912.5</ele>
        <time>2021-08-25T10:39:11.000Z</time>
      </trkpt>
      <trkpt lat="45.59461" lon="2.76317">
        <ele>913.3</ele>
        <time>2021-08-25T10:39:17.000Z</time>
      </trkpt>
      <trkpt lat="45.5946" lon="2.76326">
        <ele>913.7</ele>
        <time>2021-08-25T10:39:22.000Z</time>
      </trkpt>
      <trkpt lat="45.59457" lon="2.7634">
        <ele>914</ele>
        <time>2021-08-25T10:39:28.000Z</time>
      </trkpt>
      <trkpt lat="45.59454" lon="2.76349">
        <ele>913.9</ele>
        <time>2021-08-25T10:39:33.000Z</time>
      </trkpt>
      <trkpt lat="45.59452" lon="2.76359">
        <ele>913.9</ele>
        <time>2021-08-25T10:39:39.000Z</time>
      </trkpt>
      <trkpt lat="45.5945" lon="2.76368">
        <ele>913.9</ele>
        <time>2021-08-25T10:39:44.000Z</time>
      </trkpt>
      <trkpt lat="45.59449" lon="2.76378">
        <ele>914</ele>
        <time>2021-08-25T10:39:51.000Z</time>
      </trkpt>
      <trkpt lat="45.59448" lon="2.76388">
        <ele>914.1</ele>
        <time>2021-08-25T10:39:59.000Z</time>
      </trkpt>
      <trkpt lat="45.59448" lon="2.76398">
        <ele>914.3</ele>
        <time>2021-08-25T10:40:05.000Z</time>
      </trkpt>
      <trkpt lat="45.59445" lon="2.76407">
        <ele>914.2</ele>
        <time>2021-08-25T10:40:10.000Z</time>
      </trkpt>
      <trkpt lat="45.59442" lon="2.76419">
        <ele>914.1</ele>
        <time>2021-08-25T10:40:16.000Z</time>
      </trkpt>
      <trkpt lat="45.59439" lon="2.7643">
        <ele>913.9</ele>
        <time>2021-08-25T10:40:21.000Z</time>
      </trkpt>
      <trkpt lat="45.59435" lon="2.76441">
        <ele>913.6</ele>
        <time>2021-08-25T10:40:26.000Z</time>
      </trkpt>
      <trkpt lat="45.59432" lon="2.7645">
        <ele>913.3</ele>
        <time>2021-08-25T10:40:32.000Z</time>
      </trkpt>
      <trkpt lat="45.59429" lon="2.76459">
        <ele>912.9</ele>
        <time>2021-08-25T10:40:37.000Z</time>
      </trkpt>
      <trkpt lat="45.59425" lon="2.76468">
        <ele>912.4</ele>
        <time>2021-08-25T10:40:42.000Z</time>
      </trkpt>
      <trkpt lat="45.59421" lon="2.76479">
        <ele>911.8</ele>
        <time>2021-08-25T10:40:48.000Z</time>
      </trkpt>
      <trkpt lat="45.59417" lon="2.76487">
        <ele>911.2</ele>
        <time>2021-08-25T10:40:54.000Z</time>
      </trkpt>
      <trkpt lat="45.59413" lon="2.76495">
        <ele>910.8</ele>
        <time>2021-08-25T10:41:00.000Z</time>
      </trkpt>
      <trkpt lat="45.5941" lon="2.76505">
        <ele>910.8</ele>
        <time>2021-08-25T10:41:05.000Z</time>
      </trkpt>
      <trkpt lat="45.59409" lon="2.76514">
        <ele>911.3</ele>
        <time>2021-08-25T10:41:10.000Z</time>
      </trkpt>
      <trkpt lat="45.59411" lon="2.76526">
        <ele>912.3</ele>
        <time>2021-08-25T10:41:16.000Z</time>
      </trkpt>
      <trkpt lat="45.59414" lon="2.76536">
        <ele>913.3</ele>
        <time>2021-08-25T10:41:22.000Z</time>
      </trkpt>
      <trkpt lat="45.59415" lon="2.76547">
        <ele>914.2</ele>
        <time>2021-08-25T10:41:28.000Z</time>
      </trkpt>
      <trkpt lat="45.59415" lon="2.76557">
        <ele>914.9</ele>
        <time>2021-08-25T10:41:36.000Z</time>
      </trkpt>
      <trkpt lat="45.59413" lon="2.76566">
        <ele>915.3</ele>
        <time>2021-08-25T10:41:42.000Z</time>
      </trkpt>
      <trkpt lat="45.59415" lon="2.76576">
        <ele>916.2</ele>
        <time>2021-08-25T10:41:49.000Z</time>
      </trkpt>
      <trkpt lat="45.59421" lon="2.76582">
        <ele>917.9</ele>
        <time>2021-08-25T10:41:54.000Z</time>
      </trkpt>
      <trkpt lat="45.59427" lon="2.76587">
        <ele>920.6</ele>
        <time>2021-08-25T10:42:09.000Z</time>
      </trkpt>
      <trkpt lat="45.59428" lon="2.76597">
        <ele>923.9</ele>
        <time>2021-08-25T10:42:21.000Z</time>
      </trkpt>
      <trkpt lat="45.59424" lon="2.76605">
        <ele>925.3</ele>
        <time>2021-08-25T10:42:29.000Z</time>
      </trkpt>
      <trkpt lat="45.59431" lon="2.76605">
        <ele>927.2</ele>
        <time>2021-08-25T10:42:36.000Z</time>
      </trkpt>
      <trkpt lat="45.59437" lon="2.76601">
        <ele>927.6</ele>
        <time>2021-08-25T10:42:42.000Z</time>
      </trkpt>
      <trkpt lat="45.59442" lon="2.7659">
        <ele>925.3</ele>
        <time>2021-08-25T10:42:49.000Z</time>
      </trkpt>
      <trkpt lat="45.59447" lon="2.7658">
        <ele>923.9</ele>
        <time>2021-08-25T10:42:54.000Z</time>
      </trkpt>
      <trkpt lat="45.59459" lon="2.76574">
        <ele>926</ele>
        <time>2021-08-25T10:43:00.000Z</time>
      </trkpt>
      <trkpt lat="45.59465" lon="2.76579">
        <ele>928</ele>
        <time>2021-08-25T10:43:11.000Z</time>
      </trkpt>
      <trkpt lat="45.59472" lon="2.7658">
        <ele>929.8</ele>
        <time>2021-08-25T10:43:29.000Z</time>
      </trkpt>
      <trkpt lat="45.59478" lon="2.76588">
        <ele>933.6</ele>
        <time>2021-08-25T10:43:35.000Z</time>
      </trkpt>
      <trkpt lat="45.59481" lon="2.76597">
        <ele>937.9</ele>
        <time>2021-08-25T10:43:43.000Z</time>
      </trkpt>
      <trkpt lat="45.59481" lon="2.7661">
        <ele>943.1</ele>
        <time>2021-08-25T10:44:15.000Z</time>
      </trkpt>
      <trkpt lat="45.59481" lon="2.7662">
        <ele>947.1</ele>
        <time>2021-08-25T10:44:23.000Z</time>
      </trkpt>
      <trkpt lat="45.59469" lon="2.76636">
        <ele>949.5</ele>
        <time>2021-08-25T10:44:38.000Z</time>
      </trkpt>
      <trkpt lat="45.59461" lon="2.76645">
        <ele>950.1</ele>
        <time>2021-08-25T10:44:44.000Z</time>
      </trkpt>
      <trkpt lat="45.59456" lon="2.76652">
        <ele>950.9</ele>
        <time>2021-08-25T10:44:50.000Z</time>
      </trkpt>
      <trkpt lat="45.59451" lon="2.76659">
        <ele>951.5</ele>
        <time>2021-08-25T10:44:56.000Z</time>
      </trkpt>
      <trkpt lat="45.59447" lon="2.76673">
        <ele>954.3</ele>
        <time>2021-08-25T10:45:07.000Z</time>
      </trkpt>
      <trkpt lat="45.59449" lon="2.76683">
        <ele>957.5</ele>
        <time>2021-08-25T10:45:14.000Z</time>
      </trkpt>
      <trkpt lat="45.59445" lon="2.76691">
        <ele>958.1</ele>
        <time>2021-08-25T10:45:28.000Z</time>
      </trkpt>
      <trkpt lat="45.59441" lon="2.76699">
        <ele>958.7</ele>
        <time>2021-08-25T10:45:39.000Z</time>
      </trkpt>
      <trkpt lat="45.59448" lon="2.76701">
        <ele>961.7</ele>
        <time>2021-08-25T10:46:59.000Z</time>
      </trkpt>
      <trkpt lat="45.59455" lon="2.76701">
        <ele>964.1</ele>
        <time>2021-08-25T10:47:26.000Z</time>
      </trkpt>
      <trkpt lat="45.59461" lon="2.76702">
        <ele>966.4</ele>
        <time>2021-08-25T10:47:38.000Z</time>
      </trkpt>
      <trkpt lat="45.59468" lon="2.767">
        <ele>968.3</ele>
        <time>2021-08-25T10:47:55.000Z</time>
      </trkpt>
      <trkpt lat="45.59475" lon="2.76698">
        <ele>970.3</ele>
        <time>2021-08-25T10:48:10.000Z</time>
      </trkpt>
      <trkpt lat="45.59481" lon="2.76703">
        <ele>973.5</ele>
        <time>2021-08-25T10:49:20.000Z</time>
      </trkpt>
      <trkpt lat="45.59493" lon="2.7671">
        <ele>979</ele>
        <time>2021-08-25T10:49:53.000Z</time>
      </trkpt>
      <trkpt lat="45.59497" lon="2.76717">
        <ele>981.7</ele>
        <time>2021-08-25T10:50:29.000Z</time>
      </trkpt>
      <trkpt lat="45.59505" lon="2.76728">
        <ele>985.2</ele>
        <time>2021-08-25T10:51:26.000Z</time>
      </trkpt>
      <trkpt lat="45.59507" lon="2.76746">
        <ele>988.7</ele>
        <time>2021-08-25T10:52:39.000Z</time>
      </trkpt>
      <trkpt lat="45.59503" lon="2.76762">
        <ele>991.4</ele>
        <time>2021-08-25T10:53:08.000Z</time>
      </trkpt>
      <trkpt lat="45.59506" lon="2.76777">
        <ele>994.2</ele>
        <time>2021-08-25T10:53:31.000Z</time>
      </trkpt>
      <trkpt lat="45.5951" lon="2.76792">
        <ele>997</ele>
        <time>2021-08-25T10:54:06.000Z</time>
      </trkpt>
      <trkpt lat="45.59508" lon="2.76802">
        <ele>998.6</ele>
        <time>2021-08-25T10:54:16.000Z</time>
      </trkpt>
      <trkpt lat="45.59505" lon="2.76811">
        <ele>1000.1</ele>
        <time>2021-08-25T10:54:24.000Z</time>
      </trkpt>
      <trkpt lat="45.59503" lon="2.7682">
        <ele>1001.7</ele>
        <time>2021-08-25T10:54:32.000Z</time>
      </trkpt>
      <trkpt lat="45.59498" lon="2.76829">
        <ele>1002.6</ele>
        <time>2021-08-25T10:54:38.000Z</time>
      </trkpt>
      <trkpt lat="45.59497" lon="2.76839">
        <ele>1004.1</ele>
        <time>2021-08-25T10:54:47.000Z</time>
      </trkpt>
      <trkpt lat="45.59499" lon="2.76848">
        <ele>1006.3</ele>
        <time>2021-08-25T10:54:56.000Z</time>
      </trkpt>
      <trkpt lat="45.59502" lon="2.76867">
        <ele>1010</ele>
        <time>2021-08-25T10:55:12.000Z</time>
      </trkpt>
      <trkpt lat="45.59503" lon="2.76878">
        <ele>1012</ele>
        <time>2021-08-25T10:55:21.000Z</time>
      </trkpt>
      <trkpt lat="45.59504" lon="2.76888">
        <ele>1013.7</ele>
        <time>2021-08-25T10:55:29.000Z</time>
      </trkpt>
      <trkpt lat="45.59501" lon="2.76897">
        <ele>1015.4</ele>
        <time>2021-08-25T10:55:37.000Z</time>
      </trkpt>
      <trkpt lat="45.595" lon="2.76906">
        <ele>1017.1</ele>
        <time>2021-08-25T10:55:46.000Z</time>
      </trkpt>
      <trkpt lat="45.59498" lon="2.76917">
        <ele>1018.4</ele>
        <time>2021-08-25T10:55:54.000Z</time>
      </trkpt>
      <trkpt lat="45.59497" lon="2.76927">
        <ele>1019.3</ele>
        <time>2021-08-25T10:56:02.000Z</time>
      </trkpt>
      <trkpt lat="45.59494" lon="2.76937">
        <ele>1019.6</ele>
        <time>2021-08-25T10:56:09.000Z</time>
      </trkpt>
      <trkpt lat="45.5949" lon="2.76961">
        <ele>1021.3</ele>
        <time>2021-08-25T10:56:16.000Z</time>
      </trkpt>
      <trkpt lat="45.59488" lon="2.76977">
        <ele>1022.6</ele>
        <time>2021-08-25T10:56:21.000Z</time>
      </trkpt>
      <trkpt lat="45.59486" lon="2.7699">
        <ele>1023.6</ele>
        <time>2021-08-25T10:56:26.000Z</time>
      </trkpt>
      <trkpt lat="45.59484" lon="2.77009">
        <ele>1025.1</ele>
        <time>2021-08-25T10:56:32.000Z</time>
      </trkpt>
      <trkpt lat="45.5948" lon="2.77023">
        <ele>1025.4</ele>
        <time>2021-08-25T10:56:41.000Z</time>
      </trkpt>
      <trkpt lat="45.59478" lon="2.77033">
        <ele>1025.9</ele>
        <time>2021-08-25T10:56:46.000Z</time>
      </trkpt>
      <trkpt lat="45.59477" lon="2.77044">
        <ele>1026.9</ele>
        <time>2021-08-25T10:56:52.000Z</time>
      </trkpt>
      <trkpt lat="45.59475" lon="2.77053">
        <ele>1027.4</ele>
        <time>2021-08-25T10:56:57.000Z</time>
      </trkpt>
      <trkpt lat="45.59476" lon="2.77063">
        <ele>1028.7</ele>
        <time>2021-08-25T10:57:02.000Z</time>
      </trkpt>
      <trkpt lat="45.59476" lon="2.77073">
        <ele>1029.8</ele>
        <time>2021-08-25T10:57:09.000Z</time>
      </trkpt>
      <trkpt lat="45.59476" lon="2.77084">
        <ele>1031</ele>
        <time>2021-08-25T10:57:17.000Z</time>
      </trkpt>
      <trkpt lat="45.59485" lon="2.77084">
        <ele>1032.5</ele>
        <time>2021-08-25T10:57:47.000Z</time>
      </trkpt>
      <trkpt lat="45.59497" lon="2.77083">
        <ele>1034.5</ele>
        <time>2021-08-25T10:57:57.000Z</time>
      </trkpt>
      <trkpt lat="45.5951" lon="2.7708">
        <ele>1035.3</ele>
        <time>2021-08-25T10:58:05.000Z</time>
      </trkpt>
      <trkpt lat="45.59521" lon="2.77074">
        <ele>1035.3</ele>
        <time>2021-08-25T10:58:20.000Z</time>
      </trkpt>
      <trkpt lat="45.59524" lon="2.77085">
        <ele>1036.6</ele>
        <time>2021-08-25T10:59:01.000Z</time>
      </trkpt>
      <trkpt lat="45.59523" lon="2.77095">
        <ele>1037.4</ele>
        <time>2021-08-25T10:59:12.000Z</time>
      </trkpt>
      <trkpt lat="45.59519" lon="2.77108">
        <ele>1038.2</ele>
        <time>2021-08-25T10:59:32.000Z</time>
      </trkpt>
      <trkpt lat="45.59519" lon="2.77129">
        <ele>1039.9</ele>
        <time>2021-08-25T11:00:21.000Z</time>
      </trkpt>
      <trkpt lat="45.59524" lon="2.7714">
        <ele>1041.4</ele>
        <time>2021-08-25T11:00:35.000Z</time>
      </trkpt>
      <trkpt lat="45.59531" lon="2.77144">
        <ele>1042.7</ele>
        <time>2021-08-25T11:00:45.000Z</time>
      </trkpt>
      <trkpt lat="45.59535" lon="2.77151">
        <ele>1043.9</ele>
        <time>2021-08-25T11:00:53.000Z</time>
      </trkpt>
      <trkpt lat="45.59539" lon="2.77158">
        <ele>1045.2</ele>
        <time>2021-08-25T11:00:59.000Z</time>
      </trkpt>
      <trkpt lat="45.59536" lon="2.77167">
        <ele>1045.6</ele>
        <time>2021-08-25T11:01:12.000Z</time>
      </trkpt>
      <trkpt lat="45.5954" lon="2.77174">
        <ele>1046.6</ele>
        <time>2021-08-25T11:01:50.000Z</time>
      </trkpt>
      <trkpt lat="45.59541" lon="2.77184">
        <ele>1047.3</ele>
        <time>2021-08-25T11:01:57.000Z</time>
      </trkpt>
      <trkpt lat="45.59542" lon="2.77194">
        <ele>1048</ele>
        <time>2021-08-25T11:02:02.000Z</time>
      </trkpt>
      <trkpt lat="45.59537" lon="2.77204">
        <ele>1047.7</ele>
        <time>2021-08-25T11:02:08.000Z</time>
      </trkpt>
      <trkpt lat="45.59536" lon="2.77214">
        <ele>1048</ele>
        <time>2021-08-25T11:02:13.000Z</time>
      </trkpt>
      <trkpt lat="45.59535" lon="2.77223">
        <ele>1048.2</ele>
        <time>2021-08-25T11:02:19.000Z</time>
      </trkpt>
      <trkpt lat="45.59531" lon="2.77231">
        <ele>1047.8</ele>
        <time>2021-08-25T11:02:24.000Z</time>
      </trkpt>
      <trkpt lat="45.59527" lon="2.7724">
        <ele>1047.4</ele>
        <time>2021-08-25T11:02:29.000Z</time>
      </trkpt>
      <trkpt lat="45.59525" lon="2.77251">
        <ele>1047.4</ele>
        <time>2021-08-25T11:02:35.000Z</time>
      </trkpt>
      <trkpt lat="45.59524" lon="2.7726">
        <ele>1047.6</ele>
        <time>2021-08-25T11:02:44.000Z</time>
      </trkpt>
      <trkpt lat="45.59528" lon="2.77269">
        <ele>1048.8</ele>
        <time>2021-08-25T11:02:59.000Z</time>
      </trkpt>
      <trkpt lat="45.59524" lon="2.77279">
        <ele>1048.3</ele>
        <time>2021-08-25T11:03:06.000Z</time>
      </trkpt>
      <trkpt lat="45.59522" lon="2.77289">
        <ele>1048.3</ele>
        <time>2021-08-25T11:03:14.000Z</time>
      </trkpt>
      <trkpt lat="45.59519" lon="2.773">
        <ele>1048</ele>
        <time>2021-08-25T11:03:20.000Z</time>
      </trkpt>
      <trkpt lat="45.59515" lon="2.77313">
        <ele>1047.6</ele>
        <time>2021-08-25T11:03:35.000Z</time>
      </trkpt>
      <trkpt lat="45.59514" lon="2.77323">
        <ele>1047.8</ele>
        <time>2021-08-25T11:03:45.000Z</time>
      </trkpt>
      <trkpt lat="45.59505" lon="2.77337">
        <ele>1046.3</ele>
        <time>2021-08-25T11:04:01.000Z</time>
      </trkpt>
      <trkpt lat="45.59511" lon="2.77347">
        <ele>1048.2</ele>
        <time>2021-08-25T11:04:39.000Z</time>
      </trkpt>
      <trkpt lat="45.5951" lon="2.77364">
        <ele>1048.8</ele>
        <time>2021-08-25T11:04:55.000Z</time>
      </trkpt>
      <trkpt lat="45.59511" lon="2.77375">
        <ele>1049.5</ele>
        <time>2021-08-25T11:05:05.000Z</time>
      </trkpt>
      <trkpt lat="45.59512" lon="2.77385">
        <ele>1050.2</ele>
        <time>2021-08-25T11:05:12.000Z</time>
      </trkpt>
      <trkpt lat="45.59514" lon="2.77395">
        <ele>1051.2</ele>
        <time>2021-08-25T11:05:19.000Z</time>
      </trkpt>
      <trkpt lat="45.59515" lon="2.77406">
        <ele>1051.9</ele>
        <time>2021-08-25T11:05:25.000Z</time>
      </trkpt>
      <trkpt lat="45.59515" lon="2.77417">
        <ele>1052.5</ele>
        <time>2021-08-25T11:05:30.000Z</time>
      </trkpt>
      <trkpt lat="45.59519" lon="2.7743">
        <ele>1054.6</ele>
        <time>2021-08-25T11:05:36.000Z</time>
      </trkpt>
      <trkpt lat="45.59522" lon="2.77439">
        <ele>1056.2</ele>
        <time>2021-08-25T11:05:41.000Z</time>
      </trkpt>
      <trkpt lat="45.59523" lon="2.7745">
        <ele>1057.4</ele>
        <time>2021-08-25T11:05:48.000Z</time>
      </trkpt>
      <trkpt lat="45.59525" lon="2.77459">
        <ele>1058.8</ele>
        <time>2021-08-25T11:05:53.000Z</time>
      </trkpt>
      <trkpt lat="45.59524" lon="2.77468">
        <ele>1059.4</ele>
        <time>2021-08-25T11:06:02.000Z</time>
      </trkpt>
      <trkpt lat="45.59524" lon="2.77478">
        <ele>1060.4</ele>
        <time>2021-08-25T11:06:11.000Z</time>
      </trkpt>
      <trkpt lat="45.59525" lon="2.77487">
        <ele>1061.5</ele>
        <time>2021-08-25T11:06:19.000Z</time>
      </trkpt>
      <trkpt lat="45.59526" lon="2.77497">
        <ele>1062.6</ele>
        <time>2021-08-25T11:06:28.000Z</time>
      </trkpt>
      <trkpt lat="45.59525" lon="2.77521">
        <ele>1065.1</ele>
        <time>2021-08-25T11:06:50.000Z</time>
      </trkpt>
      <trkpt lat="45.59526" lon="2.77533">
        <ele>1066.8</ele>
        <time>2021-08-25T11:06:58.000Z</time>
      </trkpt>
      <trkpt lat="45.5953" lon="2.77541">
        <ele>1068.6</ele>
        <time>2021-08-25T11:07:06.000Z</time>
      </trkpt>
      <trkpt lat="45.59533" lon="2.77551">
        <ele>1070.4</ele>
        <time>2021-08-25T11:07:13.000Z</time>
      </trkpt>
      <trkpt lat="45.59535" lon="2.7756">
        <ele>1071.9</ele>
        <time>2021-08-25T11:07:20.000Z</time>
      </trkpt>
      <trkpt lat="45.59536" lon="2.77569">
        <ele>1073.1</ele>
        <time>2021-08-25T11:07:26.000Z</time>
      </trkpt>
      <trkpt lat="45.59538" lon="2.77579">
        <ele>1074.7</ele>
        <time>2021-08-25T11:07:32.000Z</time>
      </trkpt>
      <trkpt lat="45.59536" lon="2.77588">
        <ele>1075</ele>
        <time>2021-08-25T11:07:45.000Z</time>
      </trkpt>
      <trkpt lat="45.59535" lon="2.77599">
        <ele>1075.4</ele>
        <time>2021-08-25T11:07:54.000Z</time>
      </trkpt>
      <trkpt lat="45.59535" lon="2.77609">
        <ele>1076</ele>
        <time>2021-08-25T11:08:05.000Z</time>
      </trkpt>
      <trkpt lat="45.59534" lon="2.77618">
        <ele>1076.3</ele>
        <time>2021-08-25T11:08:12.000Z</time>
      </trkpt>
      <trkpt lat="45.59534" lon="2.77629">
        <ele>1076.9</ele>
        <time>2021-08-25T11:08:18.000Z</time>
      </trkpt>
      <trkpt lat="45.59536" lon="2.77638">
        <ele>1077.9</ele>
        <time>2021-08-25T11:08:29.000Z</time>
      </trkpt>
      <trkpt lat="45.5954" lon="2.77646">
        <ele>1079.3</ele>
        <time>2021-08-25T11:08:36.000Z</time>
      </trkpt>
      <trkpt lat="45.59545" lon="2.77652">
        <ele>1081</ele>
        <time>2021-08-25T11:09:01.000Z</time>
      </trkpt>
      <trkpt lat="45.59547" lon="2.77661">
        <ele>1082.1</ele>
        <time>2021-08-25T11:09:15.000Z</time>
      </trkpt>
      <trkpt lat="45.59547" lon="2.77671">
        <ele>1082.6</ele>
        <time>2021-08-25T11:09:25.000Z</time>
      </trkpt>
      <trkpt lat="45.59549" lon="2.7768">
        <ele>1083.4</ele>
        <time>2021-08-25T11:09:32.000Z</time>
      </trkpt>
      <trkpt lat="45.59544" lon="2.77689">
        <ele>1082.3</ele>
        <time>2021-08-25T11:09:40.000Z</time>
      </trkpt>
      <trkpt lat="45.59545" lon="2.77698">
        <ele>1082.9</ele>
        <time>2021-08-25T11:10:05.000Z</time>
      </trkpt>
      <trkpt lat="45.59544" lon="2.77708">
        <ele>1082.9</ele>
        <time>2021-08-25T11:10:19.000Z</time>
      </trkpt>
      <trkpt lat="45.59544" lon="2.77717">
        <ele>1083.2</ele>
        <time>2021-08-25T11:10:31.000Z</time>
      </trkpt>
      <trkpt lat="45.59545" lon="2.77728">
        <ele>1083.9</ele>
        <time>2021-08-25T11:10:44.000Z</time>
      </trkpt>
      <trkpt lat="45.59547" lon="2.77738">
        <ele>1084.8</ele>
        <time>2021-08-25T11:11:03.000Z</time>
      </trkpt>
      <trkpt lat="45.5955" lon="2.77747">
        <ele>1086.1</ele>
        <time>2021-08-25T11:11:13.000Z</time>
      </trkpt>
      <trkpt lat="45.59554" lon="2.77756">
        <ele>1088.2</ele>
        <time>2021-08-25T11:11:21.000Z</time>
      </trkpt>
      <trkpt lat="45.59551" lon="2.77766">
        <ele>1088.4</ele>
        <time>2021-08-25T11:11:29.000Z</time>
      </trkpt>
      <trkpt lat="45.59551" lon="2.77775">
        <ele>1089.5</ele>
        <time>2021-08-25T11:12:17.000Z</time>
      </trkpt>
      <trkpt lat="45.59558" lon="2.77773">
        <ele>1091.4</ele>
        <time>2021-08-25T11:12:35.000Z</time>
      </trkpt>
      <trkpt lat="45.59565" lon="2.77772">
        <ele>1093.6</ele>
        <time>2021-08-25T11:12:49.000Z</time>
      </trkpt>
      <trkpt lat="45.59574" lon="2.77774">
        <ele>1096.6</ele>
        <time>2021-08-25T11:13:16.000Z</time>
      </trkpt>
      <trkpt lat="45.59584" lon="2.77778">
        <ele>1100.2</ele>
        <time>2021-08-25T11:13:43.000Z</time>
      </trkpt>
      <trkpt lat="45.59591" lon="2.77779">
        <ele>1102.3</ele>
        <time>2021-08-25T11:14:01.000Z</time>
      </trkpt>
      <trkpt lat="45.59596" lon="2.77787">
        <ele>1104.5</ele>
        <time>2021-08-25T11:14:11.000Z</time>
      </trkpt>
      <trkpt lat="45.59602" lon="2.77792">
        <ele>1106.8</ele>
        <time>2021-08-25T11:14:26.000Z</time>
      </trkpt>
      <trkpt lat="45.59611" lon="2.77799">
        <ele>1110.2</ele>
        <time>2021-08-25T11:15:03.000Z</time>
      </trkpt>
      <trkpt lat="45.59621" lon="2.77798">
        <ele>1112.9</ele>
        <time>2021-08-25T11:15:37.000Z</time>
      </trkpt>
      <trkpt lat="45.59627" lon="2.77803">
        <ele>1115.3</ele>
        <time>2021-08-25T11:15:55.000Z</time>
      </trkpt>
      <trkpt lat="45.59633" lon="2.77808">
        <ele>1117.6</ele>
        <time>2021-08-25T11:16:07.000Z</time>
      </trkpt>
      <trkpt lat="45.59639" lon="2.77811">
        <ele>1119.8</ele>
        <time>2021-08-25T11:16:22.000Z</time>
      </trkpt>
      <trkpt lat="45.59646" lon="2.77812">
        <ele>1121.9</ele>
        <time>2021-08-25T11:16:31.000Z</time>
      </trkpt>
      <trkpt lat="45.59653" lon="2.77812">
        <ele>1124</ele>
        <time>2021-08-25T11:16:45.000Z</time>
      </trkpt>
      <trkpt lat="45.59659" lon="2.77816">
        <ele>1126.3</ele>
        <time>2021-08-25T11:16:58.000Z</time>
      </trkpt>
      <trkpt lat="45.59666" lon="2.77818">
        <ele>1128.6</ele>
        <time>2021-08-25T11:17:08.000Z</time>
      </trkpt>
      <trkpt lat="45.59672" lon="2.77823">
        <ele>1130.7</ele>
        <time>2021-08-25T11:17:15.000Z</time>
      </trkpt>
      <trkpt lat="45.59681" lon="2.77832">
        <ele>1134.2</ele>
        <time>2021-08-25T11:17:45.000Z</time>
      </trkpt>
      <trkpt lat="45.59687" lon="2.77836">
        <ele>1136.4</ele>
        <time>2021-08-25T11:17:56.000Z</time>
      </trkpt>
      <trkpt lat="45.59693" lon="2.77841">
        <ele>1138.9</ele>
        <time>2021-08-25T11:18:08.000Z</time>
      </trkpt>
      <trkpt lat="45.59698" lon="2.77847">
        <ele>1141.3</ele>
        <time>2021-08-25T11:18:17.000Z</time>
      </trkpt>
      <trkpt lat="45.59704" lon="2.77853">
        <ele>1144</ele>
        <time>2021-08-25T11:18:23.000Z</time>
      </trkpt>
      <trkpt lat="45.59709" lon="2.7786">
        <ele>1146.6</ele>
        <time>2021-08-25T11:18:30.000Z</time>
      </trkpt>
      <trkpt lat="45.59715" lon="2.77865">
        <ele>1149.1</ele>
        <time>2021-08-25T11:18:38.000Z</time>
      </trkpt>
      <trkpt lat="45.59722" lon="2.77869">
        <ele>1151.6</ele>
        <time>2021-08-25T11:18:46.000Z</time>
      </trkpt>
      <trkpt lat="45.59733" lon="2.77885">
        <ele>1157.5</ele>
        <time>2021-08-25T11:18:52.000Z</time>
      </trkpt>
      <trkpt lat="45.59739" lon="2.77897">
        <ele>1161.3</ele>
        <time>2021-08-25T11:18:57.000Z</time>
      </trkpt>
      <trkpt lat="45.59744" lon="2.77904">
        <ele>1164</ele>
        <time>2021-08-25T11:19:02.000Z</time>
      </trkpt>
      <trkpt lat="45.5975" lon="2.77894">
        <ele>1163.4</ele>
        <time>2021-08-25T11:19:31.000Z</time>
      </trkpt>
      <trkpt lat="45.59757" lon="2.77898">
        <ele>1166</ele>
        <time>2021-08-25T11:19:53.000Z</time>
      </trkpt>
      <trkpt lat="45.59763" lon="2.77902">
        <ele>1168.4</ele>
        <time>2021-08-25T11:20:14.000Z</time>
      </trkpt>
      <trkpt lat="45.59765" lon="2.77912">
        <ele>1171</ele>
        <time>2021-08-25T11:20:22.000Z</time>
      </trkpt>
      <trkpt lat="45.59772" lon="2.77906">
        <ele>1171.5</ele>
        <time>2021-08-25T11:20:32.000Z</time>
      </trkpt>
      <trkpt lat="45.59777" lon="2.77899">
        <ele>1171.3</ele>
        <time>2021-08-25T11:20:38.000Z</time>
      </trkpt>
      <trkpt lat="45.59782" lon="2.77891">
        <ele>1170.9</ele>
        <time>2021-08-25T11:20:47.000Z</time>
      </trkpt>
      <trkpt lat="45.59786" lon="2.77884">
        <ele>1170.3</ele>
        <time>2021-08-25T11:21:00.000Z</time>
      </trkpt>
      <trkpt lat="45.59792" lon="2.77879">
        <ele>1170.7</ele>
        <time>2021-08-25T11:21:33.000Z</time>
      </trkpt>
      <trkpt lat="45.59798" lon="2.77883">
        <ele>1173.1</ele>
        <time>2021-08-25T11:21:42.000Z</time>
      </trkpt>
      <trkpt lat="45.59805" lon="2.77883">
        <ele>1174.9</ele>
        <time>2021-08-25T11:22:02.000Z</time>
      </trkpt>
      <trkpt lat="45.59812" lon="2.77883">
        <ele>1176.6</ele>
        <time>2021-08-25T11:22:09.000Z</time>
      </trkpt>
      <trkpt lat="45.59819" lon="2.77884">
        <ele>1178.6</ele>
        <time>2021-08-25T11:22:15.000Z</time>
      </trkpt>
      <trkpt lat="45.59826" lon="2.77885">
        <ele>1180.6</ele>
        <time>2021-08-25T11:22:20.000Z</time>
      </trkpt>
      <trkpt lat="45.59833" lon="2.77885">
        <ele>1182.3</ele>
        <time>2021-08-25T11:22:28.000Z</time>
      </trkpt>
      <trkpt lat="45.59839" lon="2.77886">
        <ele>1184.3</ele>
        <time>2021-08-25T11:22:33.000Z</time>
      </trkpt>
      <trkpt lat="45.59845" lon="2.77881">
        <ele>1184.8</ele>
        <time>2021-08-25T11:22:42.000Z</time>
      </trkpt>
      <trkpt lat="45.59852" lon="2.77884">
        <ele>1187.6</ele>
        <time>2021-08-25T11:22:49.000Z</time>
      </trkpt>
      <trkpt lat="45.59863" lon="2.77881">
        <ele>1190.1</ele>
        <time>2021-08-25T11:23:18.000Z</time>
      </trkpt>
      <trkpt lat="45.59865" lon="2.77871">
        <ele>1188.1</ele>
        <time>2021-08-25T11:23:30.000Z</time>
      </trkpt>
      <trkpt lat="45.59871" lon="2.77866">
        <ele>1188.5</ele>
        <time>2021-08-25T11:23:41.000Z</time>
      </trkpt>
      <trkpt lat="45.59878" lon="2.77866">
        <ele>1190.5</ele>
        <time>2021-08-25T11:23:58.000Z</time>
      </trkpt>
      <trkpt lat="45.59885" lon="2.77872">
        <ele>1194.1</ele>
        <time>2021-08-25T11:24:24.000Z</time>
      </trkpt>
      <trkpt lat="45.59888" lon="2.77882">
        <ele>1197.6</ele>
        <time>2021-08-25T11:24:46.000Z</time>
      </trkpt>
      <trkpt lat="45.59894" lon="2.77891">
        <ele>1201.9</ele>
        <time>2021-08-25T11:24:58.000Z</time>
      </trkpt>
      <trkpt lat="45.599" lon="2.77897">
        <ele>1205.3</ele>
        <time>2021-08-25T11:25:09.000Z</time>
      </trkpt>
      <trkpt lat="45.59907" lon="2.77901">
        <ele>1208.6</ele>
        <time>2021-08-25T11:25:17.000Z</time>
      </trkpt>
      <trkpt lat="45.5991" lon="2.7791">
        <ele>1212</ele>
        <time>2021-08-25T11:25:44.000Z</time>
      </trkpt>
      <trkpt lat="45.59921" lon="2.77921">
        <ele>1218.1</ele>
        <time>2021-08-25T11:26:12.000Z</time>
      </trkpt>
      <trkpt lat="45.59928" lon="2.7792">
        <ele>1219.2</ele>
        <time>2021-08-25T11:26:55.000Z</time>
      </trkpt>
      <trkpt lat="45.59933" lon="2.77927">
        <ele>1222.3</ele>
        <time>2021-08-25T11:27:08.000Z</time>
      </trkpt>
      <trkpt lat="45.59938" lon="2.77935">
        <ele>1225.8</ele>
        <time>2021-08-25T11:27:31.000Z</time>
      </trkpt>
      <trkpt lat="45.59944" lon="2.77939">
        <ele>1228.2</ele>
        <time>2021-08-25T11:27:45.000Z</time>
      </trkpt>
      <trkpt lat="45.59952" lon="2.77945">
        <ele>1231.7</ele>
        <time>2021-08-25T11:28:27.000Z</time>
      </trkpt>
      <trkpt lat="45.59958" lon="2.77945">
        <ele>1232.9</ele>
        <time>2021-08-25T11:28:34.000Z</time>
      </trkpt>
      <trkpt lat="45.59971" lon="2.77956">
        <ele>1239.2</ele>
        <time>2021-08-25T11:29:06.000Z</time>
      </trkpt>
      <trkpt lat="45.59978" lon="2.77958">
        <ele>1241.3</ele>
        <time>2021-08-25T11:29:19.000Z</time>
      </trkpt>
      <trkpt lat="45.59983" lon="2.7797">
        <ele>1246.3</ele>
        <time>2021-08-25T11:29:24.000Z</time>
      </trkpt>
      <trkpt lat="45.59989" lon="2.77978">
        <ele>1250.2</ele>
        <time>2021-08-25T11:29:29.000Z</time>
      </trkpt>
      <trkpt lat="45.59996" lon="2.77983">
        <ele>1253.4</ele>
        <time>2021-08-25T11:29:34.000Z</time>
      </trkpt>
      <trkpt lat="45.60008" lon="2.78004">
        <ele>1261.3</ele>
        <time>2021-08-25T11:29:40.000Z</time>
      </trkpt>
      <trkpt lat="45.60015" lon="2.78011">
        <ele>1263.6</ele>
        <time>2021-08-25T11:29:45.000Z</time>
      </trkpt>
      <trkpt lat="45.6002" lon="2.78017">
        <ele>1265.6</ele>
        <time>2021-08-25T11:30:04.000Z</time>
      </trkpt>
      <trkpt lat="45.60032" lon="2.78028">
        <ele>1269.4</ele>
        <time>2021-08-25T11:30:17.000Z</time>
      </trkpt>
      <trkpt lat="45.60045" lon="2.78033">
        <ele>1271.2</ele>
        <time>2021-08-25T11:30:27.000Z</time>
      </trkpt>
      <trkpt lat="45.60053" lon="2.7804">
        <ele>1273.7</ele>
        <time>2021-08-25T11:30:35.000Z</time>
      </trkpt>
      <trkpt lat="45.6006" lon="2.78043">
        <ele>1274.8</ele>
        <time>2021-08-25T11:30:41.000Z</time>
      </trkpt>
      <trkpt lat="45.60069" lon="2.78047">
        <ele>1276.4</ele>
        <time>2021-08-25T11:31:07.000Z</time>
      </trkpt>
      <trkpt lat="45.60078" lon="2.78036">
        <ele>1272.4</ele>
        <time>2021-08-25T11:32:22.000Z</time>
      </trkpt>
      <trkpt lat="45.60085" lon="2.78039">
        <ele>1273.6</ele>
        <time>2021-08-25T11:33:40.000Z</time>
      </trkpt>
      <trkpt lat="45.60094" lon="2.78034">
        <ele>1272.2</ele>
        <time>2021-08-25T11:34:08.000Z</time>
      </trkpt>
      <trkpt lat="45.60105" lon="2.78039">
        <ele>1274.7</ele>
        <time>2021-08-25T11:34:35.000Z</time>
      </trkpt>
      <trkpt lat="45.60113" lon="2.78041">
        <ele>1275.9</ele>
        <time>2021-08-25T11:35:04.000Z</time>
      </trkpt>
      <trkpt lat="45.6012" lon="2.78039">
        <ele>1275.5</ele>
        <time>2021-08-25T11:35:11.000Z</time>
      </trkpt>
      <trkpt lat="45.60126" lon="2.78037">
        <ele>1275.1</ele>
        <time>2021-08-25T11:35:22.000Z</time>
      </trkpt>
      <trkpt lat="45.60135" lon="2.7804">
        <ele>1276.7</ele>
        <time>2021-08-25T11:35:50.000Z</time>
      </trkpt>
      <trkpt lat="45.60142" lon="2.78043">
        <ele>1278.2</ele>
        <time>2021-08-25T11:35:57.000Z</time>
      </trkpt>
      <trkpt lat="45.60148" lon="2.78037">
        <ele>1276.3</ele>
        <time>2021-08-25T11:36:06.000Z</time>
      </trkpt>
      <trkpt lat="45.60157" lon="2.78031">
        <ele>1274.6</ele>
        <time>2021-08-25T11:36:17.000Z</time>
      </trkpt>
      <trkpt lat="45.60161" lon="2.78024">
        <ele>1272.3</ele>
        <time>2021-08-25T11:37:08.000Z</time>
      </trkpt>
      <trkpt lat="45.60168" lon="2.78017">
        <ele>1270.5</ele>
        <time>2021-08-25T11:37:41.000Z</time>
      </trkpt>
      <trkpt lat="45.60172" lon="2.7801">
        <ele>1269.1</ele>
        <time>2021-08-25T11:38:02.000Z</time>
      </trkpt>
      <trkpt lat="45.60177" lon="2.78002">
        <ele>1267.7</ele>
        <time>2021-08-25T11:38:19.000Z</time>
      </trkpt>
      <trkpt lat="45.60179" lon="2.77993">
        <ele>1265.6</ele>
        <time>2021-08-25T11:38:25.000Z</time>
      </trkpt>
      <trkpt lat="45.60183" lon="2.77978">
        <ele>1262.8</ele>
        <time>2021-08-25T11:38:54.000Z</time>
      </trkpt>
      <trkpt lat="45.60189" lon="2.77969">
        <ele>1262.4</ele>
        <time>2021-08-25T11:40:02.000Z</time>
      </trkpt>
      <trkpt lat="45.60199" lon="2.77952">
        <ele>1261.5</ele>
        <time>2021-08-25T11:40:53.000Z</time>
      </trkpt>
      <trkpt lat="45.60203" lon="2.7796">
        <ele>1264.8</ele>
        <time>2021-08-25T11:41:10.000Z</time>
      </trkpt>
      <trkpt lat="45.60207" lon="2.77967">
        <ele>1267.8</ele>
        <time>2021-08-25T11:41:23.000Z</time>
      </trkpt>
      <trkpt lat="45.60213" lon="2.77973">
        <ele>1271.2</ele>
        <time>2021-08-25T11:41:35.000Z</time>
      </trkpt>
      <trkpt lat="45.60221" lon="2.77968">
        <ele>1272.7</ele>
        <time>2021-08-25T11:42:24.000Z</time>
      </trkpt>
      <trkpt lat="45.60227" lon="2.77966">
        <ele>1274.2</ele>
        <time>2021-08-25T11:43:10.000Z</time>
      </trkpt>
      <trkpt lat="45.60234" lon="2.77969">
        <ele>1277.2</ele>
        <time>2021-08-25T11:43:39.000Z</time>
      </trkpt>
      <trkpt lat="45.60241" lon="2.77973">
        <ele>1280.2</ele>
        <time>2021-08-25T11:43:54.000Z</time>
      </trkpt>
      <trkpt lat="45.6025" lon="2.77965">
        <ele>1281.7</ele>
        <time>2021-08-25T11:44:45.000Z</time>
      </trkpt>
      <trkpt lat="45.60251" lon="2.7795">
        <ele>1279.3</ele>
        <time>2021-08-25T11:45:09.000Z</time>
      </trkpt>
      <trkpt lat="45.60258" lon="2.77949">
        <ele>1281.2</ele>
        <time>2021-08-25T11:45:43.000Z</time>
      </trkpt>
      <trkpt lat="45.60265" lon="2.77949">
        <ele>1283.3</ele>
        <time>2021-08-25T11:46:20.000Z</time>
      </trkpt>
      <trkpt lat="45.60271" lon="2.77956">
        <ele>1286.3</ele>
        <time>2021-08-25T11:46:56.000Z</time>
      </trkpt>
      <trkpt lat="45.60277" lon="2.7796">
        <ele>1288.7</ele>
        <time>2021-08-25T11:47:15.000Z</time>
      </trkpt>
      <trkpt lat="45.60284" lon="2.77958">
        <ele>1290.4</ele>
        <time>2021-08-25T11:47:53.000Z</time>
      </trkpt>
      <trkpt lat="45.60291" lon="2.77959">
        <ele>1292.7</ele>
        <time>2021-08-25T11:48:10.000Z</time>
      </trkpt>
      <trkpt lat="45.60297" lon="2.77957">
        <ele>1294.1</ele>
        <time>2021-08-25T11:48:29.000Z</time>
      </trkpt>
      <trkpt lat="45.60304" lon="2.77957">
        <ele>1296.2</ele>
        <time>2021-08-25T11:48:49.000Z</time>
      </trkpt>
      <trkpt lat="45.60311" lon="2.77956">
        <ele>1298.1</ele>
        <time>2021-08-25T11:49:07.000Z</time>
      </trkpt>
      <trkpt lat="45.60316" lon="2.77949">
        <ele>1298.7</ele>
        <time>2021-08-25T11:49:27.000Z</time>
      </trkpt>
      <trkpt lat="45.60321" lon="2.77943">
        <ele>1299.4</ele>
        <time>2021-08-25T11:49:53.000Z</time>
      </trkpt>
      <trkpt lat="45.60323" lon="2.77933">
        <ele>1298.7</ele>
        <time>2021-08-25T11:50:08.000Z</time>
      </trkpt>
      <trkpt lat="45.60325" lon="2.77924">
        <ele>1298.2</ele>
        <time>2021-08-25T11:50:19.000Z</time>
      </trkpt>
      <trkpt lat="45.60329" lon="2.77917">
        <ele>1298.6</ele>
        <time>2021-08-25T11:50:36.000Z</time>
      </trkpt>
      <trkpt lat="45.60333" lon="2.77909">
        <ele>1299.2</ele>
        <time>2021-08-25T11:51:01.000Z</time>
      </trkpt>
      <trkpt lat="45.60338" lon="2.77916">
        <ele>1300.9</ele>
        <time>2021-08-25T11:51:31.000Z</time>
      </trkpt>
      <trkpt lat="45.60344" lon="2.77919">
        <ele>1302.6</ele>
        <time>2021-08-25T11:52:11.000Z</time>
      </trkpt>
      <trkpt lat="45.60351" lon="2.77917">
        <ele>1303.8</ele>
        <time>2021-08-25T11:52:47.000Z</time>
      </trkpt>
      <trkpt lat="45.60352" lon="2.77908">
        <ele>1303.4</ele>
        <time>2021-08-25T11:53:18.000Z</time>
      </trkpt>
      <trkpt lat="45.60352" lon="2.77899">
        <ele>1302.7</ele>
        <time>2021-08-25T11:53:45.000Z</time>
      </trkpt>
      <trkpt lat="45.60359" lon="2.77895">
        <ele>1304.1</ele>
        <time>2021-08-25T11:54:33.000Z</time>
      </trkpt>
      <trkpt lat="45.60365" lon="2.77891">
        <ele>1305.3</ele>
        <time>2021-08-25T11:54:45.000Z</time>
      </trkpt>
      <trkpt lat="45.6036" lon="2.77884">
        <ele>1303.6</ele>
        <time>2021-08-25T11:54:58.000Z</time>
      </trkpt>
      <trkpt lat="45.6036" lon="2.77875">
        <ele>1303</ele>
        <time>2021-08-25T11:55:31.000Z</time>
      </trkpt>
      <trkpt lat="45.60367" lon="2.77877">
        <ele>1305</ele>
        <time>2021-08-25T11:56:13.000Z</time>
      </trkpt>
      <trkpt lat="45.60374" lon="2.7788">
        <ele>1307</ele>
        <time>2021-08-25T11:56:30.000Z</time>
      </trkpt>
      <trkpt lat="45.6037" lon="2.77889">
        <ele>1306.4</ele>
        <time>2021-08-25T11:56:49.000Z</time>
      </trkpt>
      <trkpt lat="45.60367" lon="2.77897">
        <ele>1306.1</ele>
        <time>2021-08-25T11:57:12.000Z</time>
      </trkpt>
      <trkpt lat="45.60362" lon="2.77903">
        <ele>1305.3</ele>
        <time>2021-08-25T11:57:31.000Z</time>
      </trkpt>
      <trkpt lat="45.60364" lon="2.77912">
        <ele>1306.3</ele>
        <time>2021-08-25T11:58:10.000Z</time>
      </trkpt>
      <trkpt lat="45.60369" lon="2.77919">
        <ele>1307.9</ele>
        <time>2021-08-25T11:58:19.000Z</time>
      </trkpt>
      <trkpt lat="45.60374" lon="2.77925">
        <ele>1309.3</ele>
        <time>2021-08-25T11:58:34.000Z</time>
      </trkpt>
      <trkpt lat="45.60371" lon="2.77916">
        <ele>1308.1</ele>
        <time>2021-08-25T12:00:06.000Z</time>
      </trkpt>
      <trkpt lat="45.60364" lon="2.77914">
        <ele>1306.5</ele>
        <time>2021-08-25T12:00:13.000Z</time>
      </trkpt>
      <trkpt lat="45.60358" lon="2.77914">
        <ele>1305.1</ele>
        <time>2021-08-25T12:00:19.000Z</time>
      </trkpt>
      <trkpt lat="45.60351" lon="2.77911">
        <ele>1303.4</ele>
        <time>2021-08-25T12:00:26.000Z</time>
      </trkpt>
      <trkpt lat="45.60344" lon="2.77909">
        <ele>1301.7</ele>
        <time>2021-08-25T12:00:33.000Z</time>
      </trkpt>
      <trkpt lat="45.60338" lon="2.77906">
        <ele>1300</ele>
        <time>2021-08-25T12:00:40.000Z</time>
      </trkpt>
      <trkpt lat="45.60331" lon="2.77904">
        <ele>1298</ele>
        <time>2021-08-25T12:00:48.000Z</time>
      </trkpt>
      <trkpt lat="45.60324" lon="2.77904">
        <ele>1295.6</ele>
        <time>2021-08-25T12:00:55.000Z</time>
      </trkpt>
      <trkpt lat="45.60317" lon="2.77904">
        <ele>1293.3</ele>
        <time>2021-08-25T12:01:03.000Z</time>
      </trkpt>
      <trkpt lat="45.6031" lon="2.77902">
        <ele>1290.6</ele>
        <time>2021-08-25T12:01:11.000Z</time>
      </trkpt>
      <trkpt lat="45.60304" lon="2.77899">
        <ele>1288.2</ele>
        <time>2021-08-25T12:01:18.000Z</time>
      </trkpt>
      <trkpt lat="45.60298" lon="2.77894">
        <ele>1285.5</ele>
        <time>2021-08-25T12:01:25.000Z</time>
      </trkpt>
      <trkpt lat="45.60292" lon="2.77888">
        <ele>1282.5</ele>
        <time>2021-08-25T12:01:32.000Z</time>
      </trkpt>
      <trkpt lat="45.60296" lon="2.7788">
        <ele>1282.8</ele>
        <time>2021-08-25T12:01:46.000Z</time>
      </trkpt>
      <trkpt lat="45.60295" lon="2.7787">
        <ele>1281</ele>
        <time>2021-08-25T12:02:00.000Z</time>
      </trkpt>
      <trkpt lat="45.6029" lon="2.77863">
        <ele>1278.1</ele>
        <time>2021-08-25T12:02:21.000Z</time>
      </trkpt>
      <trkpt lat="45.60329" lon="2.77842">
        <ele>1291.1</ele>
      </trkpt>
      <trkpt lat="45.60335" lon="2.77823">
        <ele>1292.5</ele>
      </trkpt>
      <trkpt lat="45.60359" lon="2.77835">
        <ele>1300.1</ele>
      </trkpt>
      <trkpt lat="45.60389" lon="2.77841">
        <ele>1309.6</ele>
      </trkpt>
      <trkpt lat="45.60398" lon="2.77812">
        <ele>1313.2</ele>
      </trkpt>
      <trkpt lat="45.60417" lon="2.77768">
        <ele>1322.1</ele>
      </trkpt>
      <trkpt lat="45.60453" lon="2.77725">
        <ele>1338</ele>
      </trkpt>
      <trkpt lat="45.60494" lon="2.777">
        <ele>1353.9</ele>
      </trkpt>
      <trkpt lat="45.60525" lon="2.77644">
        <ele>1357.6</ele>
      </trkpt>
      <trkpt lat="45.60552" lon="2.77569">
        <ele>1348</ele>
      </trkpt>
      <trkpt lat="45.60557" lon="2.77523">
        <ele>1339.9</ele>
      </trkpt>
      <trkpt lat="45.60576" lon="2.77527">
        <ele>1343</ele>
      </trkpt>
      <trkpt lat="45.60583" lon="2.77586">
        <ele>1356.6</ele>
        <time>2021-08-25T12:02:58.000Z</time>
      </trkpt>
      <trkpt lat="45.60583" lon="2.77751">
        <ele>1378.8</ele>
        <time>2021-08-25T12:03:04.000Z</time>
      </trkpt>
      <trkpt lat="45.60569" lon="2.77795">
        <ele>1370.2</ele>
        <time>2021-08-25T12:03:09.000Z</time>
      </trkpt>
      <trkpt lat="45.60557" lon="2.77827">
        <ele>1363.2</ele>
        <time>2021-08-25T12:03:14.000Z</time>
      </trkpt>
      <trkpt lat="45.60545" lon="2.77849">
        <ele>1357.6</ele>
        <time>2021-08-25T12:03:20.000Z</time>
      </trkpt>
      <trkpt lat="45.60538" lon="2.77866">
        <ele>1354.2</ele>
        <time>2021-08-25T12:03:25.000Z</time>
      </trkpt>
      <trkpt lat="45.60531" lon="2.77871">
        <ele>1351.8</ele>
        <time>2021-08-25T12:03:31.000Z</time>
      </trkpt>
      <trkpt lat="45.60524" lon="2.77873">
        <ele>1349.6</ele>
        <time>2021-08-25T12:03:39.000Z</time>
      </trkpt>
      <trkpt lat="45.60517" lon="2.77871">
        <ele>1347.7</ele>
        <time>2021-08-25T12:03:46.000Z</time>
      </trkpt>
      <trkpt lat="45.60509" lon="2.77871">
        <ele>1345.4</ele>
        <time>2021-08-25T12:03:52.000Z</time>
      </trkpt>
      <trkpt lat="45.60503" lon="2.7787">
        <ele>1343.8</ele>
        <time>2021-08-25T12:04:11.000Z</time>
      </trkpt>
      <trkpt lat="45.60498" lon="2.77863">
        <ele>1342.9</ele>
        <time>2021-08-25T12:04:25.000Z</time>
      </trkpt>
      <trkpt lat="45.60493" lon="2.77856">
        <ele>1341.9</ele>
        <time>2021-08-25T12:04:38.000Z</time>
      </trkpt>
      <trkpt lat="45.60488" lon="2.7785">
        <ele>1340.8</ele>
        <time>2021-08-25T12:04:46.000Z</time>
      </trkpt>
      <trkpt lat="45.60481" lon="2.77845">
        <ele>1338.9</ele>
        <time>2021-08-25T12:04:54.000Z</time>
      </trkpt>
      <trkpt lat="45.60475" lon="2.77848">
        <ele>1336.7</ele>
        <time>2021-08-25T12:05:01.000Z</time>
      </trkpt>
      <trkpt lat="45.60468" lon="2.77851">
        <ele>1334.3</ele>
        <time>2021-08-25T12:05:08.000Z</time>
      </trkpt>
      <trkpt lat="45.60463" lon="2.77858">
        <ele>1332.4</ele>
        <time>2021-08-25T12:05:14.000Z</time>
      </trkpt>
      <trkpt lat="45.60459" lon="2.77866">
        <ele>1330.8</ele>
        <time>2021-08-25T12:05:20.000Z</time>
      </trkpt>
      <trkpt lat="45.60453" lon="2.7787">
        <ele>1328.9</ele>
        <time>2021-08-25T12:05:28.000Z</time>
      </trkpt>
      <trkpt lat="45.60447" lon="2.77875">
        <ele>1326.9</ele>
        <time>2021-08-25T12:05:36.000Z</time>
      </trkpt>
      <trkpt lat="45.60442" lon="2.77882">
        <ele>1325.3</ele>
        <time>2021-08-25T12:05:46.000Z</time>
      </trkpt>
      <trkpt lat="45.60445" lon="2.77892">
        <ele>1325.8</ele>
        <time>2021-08-25T12:05:56.000Z</time>
      </trkpt>
      <trkpt lat="45.60446" lon="2.77903">
        <ele>1325.8</ele>
        <time>2021-08-25T12:06:03.000Z</time>
      </trkpt>
      <trkpt lat="45.60445" lon="2.77913">
        <ele>1325.2</ele>
        <time>2021-08-25T12:06:09.000Z</time>
      </trkpt>
      <trkpt lat="45.60445" lon="2.77922">
        <ele>1325.1</ele>
        <time>2021-08-25T12:06:16.000Z</time>
      </trkpt>
      <trkpt lat="45.60448" lon="2.77931">
        <ele>1325.6</ele>
        <time>2021-08-25T12:06:25.000Z</time>
      </trkpt>
      <trkpt lat="45.60453" lon="2.77939">
        <ele>1326.6</ele>
        <time>2021-08-25T12:06:33.000Z</time>
      </trkpt>
      <trkpt lat="45.60455" lon="2.77949">
        <ele>1326.8</ele>
        <time>2021-08-25T12:06:41.000Z</time>
      </trkpt>
      <trkpt lat="45.60459" lon="2.77958">
        <ele>1327.4</ele>
        <time>2021-08-25T12:06:48.000Z</time>
      </trkpt>
      <trkpt lat="45.60461" lon="2.77967">
        <ele>1327.5</ele>
        <time>2021-08-25T12:06:56.000Z</time>
      </trkpt>
      <trkpt lat="45.60463" lon="2.77977">
        <ele>1327.6</ele>
        <time>2021-08-25T12:07:01.000Z</time>
      </trkpt>
      <trkpt lat="45.60465" lon="2.77986">
        <ele>1327.6</ele>
        <time>2021-08-25T12:07:08.000Z</time>
      </trkpt>
      <trkpt lat="45.60467" lon="2.77996">
        <ele>1327.6</ele>
        <time>2021-08-25T12:07:15.000Z</time>
      </trkpt>
      <trkpt lat="45.60469" lon="2.78005">
        <ele>1327.9</ele>
        <time>2021-08-25T12:07:21.000Z</time>
      </trkpt>
      <trkpt lat="45.60471" lon="2.78014">
        <ele>1328.4</ele>
        <time>2021-08-25T12:07:27.000Z</time>
      </trkpt>
      <trkpt lat="45.60473" lon="2.78024">
        <ele>1328.8</ele>
        <time>2021-08-25T12:07:35.000Z</time>
      </trkpt>
      <trkpt lat="45.60476" lon="2.78035">
        <ele>1329.4</ele>
        <time>2021-08-25T12:07:42.000Z</time>
      </trkpt>
      <trkpt lat="45.60478" lon="2.78044">
        <ele>1329.8</ele>
        <time>2021-08-25T12:07:48.000Z</time>
      </trkpt>
      <trkpt lat="45.6048" lon="2.78054">
        <ele>1330.1</ele>
        <time>2021-08-25T12:07:55.000Z</time>
      </trkpt>
      <trkpt lat="45.60482" lon="2.78063">
        <ele>1330.4</ele>
        <time>2021-08-25T12:08:01.000Z</time>
      </trkpt>
      <trkpt lat="45.60483" lon="2.78073">
        <ele>1330.5</ele>
        <time>2021-08-25T12:08:08.000Z</time>
      </trkpt>
      <trkpt lat="45.60484" lon="2.78083">
        <ele>1330.7</ele>
        <time>2021-08-25T12:08:15.000Z</time>
      </trkpt>
      <trkpt lat="45.60483" lon="2.78093">
        <ele>1332</ele>
        <time>2021-08-25T12:08:22.000Z</time>
      </trkpt>
      <trkpt lat="45.60483" lon="2.78103">
        <ele>1333.4</ele>
        <time>2021-08-25T12:08:29.000Z</time>
      </trkpt>
      <trkpt lat="45.60484" lon="2.78113">
        <ele>1334.9</ele>
        <time>2021-08-25T12:08:38.000Z</time>
      </trkpt>
      <trkpt lat="45.60482" lon="2.78123">
        <ele>1336.2</ele>
        <time>2021-08-25T12:08:45.000Z</time>
      </trkpt>
      <trkpt lat="45.6048" lon="2.78132">
        <ele>1337.4</ele>
        <time>2021-08-25T12:08:52.000Z</time>
      </trkpt>
      <trkpt lat="45.60479" lon="2.78142">
        <ele>1338.9</ele>
        <time>2021-08-25T12:08:59.000Z</time>
      </trkpt>
      <trkpt lat="45.60481" lon="2.78152">
        <ele>1340.4</ele>
        <time>2021-08-25T12:09:44.000Z</time>
      </trkpt>
      <trkpt lat="45.60476" lon="2.78159">
        <ele>1341.3</ele>
        <time>2021-08-25T12:09:49.000Z</time>
      </trkpt>
      <trkpt lat="45.60472" lon="2.78168">
        <ele>1342.6</ele>
        <time>2021-08-25T12:09:55.000Z</time>
      </trkpt>
      <trkpt lat="45.60466" lon="2.78175">
        <ele>1344</ele>
        <time>2021-08-25T12:10:01.000Z</time>
      </trkpt>
      <trkpt lat="45.60462" lon="2.78182">
        <ele>1345.4</ele>
        <time>2021-08-25T12:10:07.000Z</time>
      </trkpt>
      <trkpt lat="45.60456" lon="2.78188">
        <ele>1346.6</ele>
        <time>2021-08-25T12:10:14.000Z</time>
      </trkpt>
      <trkpt lat="45.60451" lon="2.78195">
        <ele>1348</ele>
        <time>2021-08-25T12:10:21.000Z</time>
      </trkpt>
      <trkpt lat="45.60446" lon="2.78202">
        <ele>1349.5</ele>
        <time>2021-08-25T12:10:26.000Z</time>
      </trkpt>
      <trkpt lat="45.60443" lon="2.78211">
        <ele>1351.4</ele>
        <time>2021-08-25T12:10:33.000Z</time>
      </trkpt>
      <trkpt lat="45.60438" lon="2.78218">
        <ele>1352.9</ele>
        <time>2021-08-25T12:10:43.000Z</time>
      </trkpt>
      <trkpt lat="45.60435" lon="2.78226">
        <ele>1354.7</ele>
        <time>2021-08-25T12:10:52.000Z</time>
      </trkpt>
      <trkpt lat="45.60429" lon="2.78232">
        <ele>1356</ele>
        <time>2021-08-25T12:11:06.000Z</time>
      </trkpt>
      <trkpt lat="45.60423" lon="2.78235">
        <ele>1356.6</ele>
        <time>2021-08-25T12:11:18.000Z</time>
      </trkpt>
      <trkpt lat="45.60417" lon="2.7824">
        <ele>1357.7</ele>
        <time>2021-08-25T12:11:27.000Z</time>
      </trkpt>
      <trkpt lat="45.60413" lon="2.78247">
        <ele>1359.4</ele>
        <time>2021-08-25T12:11:42.000Z</time>
      </trkpt>
      <trkpt lat="45.60408" lon="2.78253">
        <ele>1361.1</ele>
        <time>2021-08-25T12:12:26.000Z</time>
      </trkpt>
      <trkpt lat="45.60402" lon="2.78257">
        <ele>1362.4</ele>
        <time>2021-08-25T12:12:35.000Z</time>
      </trkpt>
      <trkpt lat="45.60395" lon="2.78261">
        <ele>1363.8</ele>
        <time>2021-08-25T12:12:45.000Z</time>
      </trkpt>
      <trkpt lat="45.60389" lon="2.78267">
        <ele>1365.8</ele>
        <time>2021-08-25T12:13:27.000Z</time>
      </trkpt>
      <trkpt lat="45.60384" lon="2.78271">
        <ele>1367.2</ele>
        <time>2021-08-25T12:13:40.000Z</time>
      </trkpt>
      <trkpt lat="45.60377" lon="2.78273">
        <ele>1368.1</ele>
        <time>2021-08-25T12:13:55.000Z</time>
      </trkpt>
      <trkpt lat="45.6037" lon="2.78274">
        <ele>1368.9</ele>
        <time>2021-08-25T12:14:17.000Z</time>
      </trkpt>
      <trkpt lat="45.6036" lon="2.78285">
        <ele>1372.9</ele>
        <time>2021-08-25T12:14:52.000Z</time>
      </trkpt>
      <trkpt lat="45.60351" lon="2.78292">
        <ele>1375.7</ele>
        <time>2021-08-25T12:15:37.000Z</time>
      </trkpt>
      <trkpt lat="45.60344" lon="2.78292">
        <ele>1376.3</ele>
        <time>2021-08-25T12:15:54.000Z</time>
      </trkpt>
      <trkpt lat="45.60334" lon="2.78296">
        <ele>1378.4</ele>
        <time>2021-08-25T12:16:32.000Z</time>
      </trkpt>
      <trkpt lat="45.60328" lon="2.78305">
        <ele>1383.1</ele>
        <time>2021-08-25T12:16:50.000Z</time>
      </trkpt>
      <trkpt lat="45.60322" lon="2.78311">
        <ele>1387.1</ele>
        <time>2021-08-25T12:17:13.000Z</time>
      </trkpt>
      <trkpt lat="45.60315" lon="2.78322">
        <ele>1393.4</ele>
        <time>2021-08-25T12:17:45.000Z</time>
      </trkpt>
      <trkpt lat="45.60307" lon="2.78335">
        <ele>1400.8</ele>
        <time>2021-08-25T12:18:19.000Z</time>
      </trkpt>
      <trkpt lat="45.60302" lon="2.78342">
        <ele>1404.1</ele>
        <time>2021-08-25T12:19:14.000Z</time>
      </trkpt>
      <trkpt lat="45.60296" lon="2.78346">
        <ele>1407</ele>
        <time>2021-08-25T12:19:20.000Z</time>
      </trkpt>
      <trkpt lat="45.6029" lon="2.78349">
        <ele>1409.7</ele>
        <time>2021-08-25T12:19:37.000Z</time>
      </trkpt>
      <trkpt lat="45.60284" lon="2.78357">
        <ele>1413.3</ele>
        <time>2021-08-25T12:19:59.000Z</time>
      </trkpt>
      <trkpt lat="45.60279" lon="2.78364">
        <ele>1416.4</ele>
        <time>2021-08-25T12:20:12.000Z</time>
      </trkpt>
      <trkpt lat="45.60275" lon="2.78373">
        <ele>1419.4</ele>
        <time>2021-08-25T12:20:24.000Z</time>
      </trkpt>
      <trkpt lat="45.6027" lon="2.78381">
        <ele>1422.5</ele>
        <time>2021-08-25T12:20:31.000Z</time>
      </trkpt>
      <trkpt lat="45.60265" lon="2.78388">
        <ele>1425.4</ele>
        <time>2021-08-25T12:20:39.000Z</time>
      </trkpt>
      <trkpt lat="45.6026" lon="2.78396">
        <ele>1428.4</ele>
        <time>2021-08-25T12:20:51.000Z</time>
      </trkpt>
      <trkpt lat="45.60255" lon="2.78402">
        <ele>1431</ele>
        <time>2021-08-25T12:21:00.000Z</time>
      </trkpt>
      <trkpt lat="45.60249" lon="2.78405">
        <ele>1433.2</ele>
        <time>2021-08-25T12:21:18.000Z</time>
      </trkpt>
      <trkpt lat="45.60242" lon="2.78406">
        <ele>1434.8</ele>
        <time>2021-08-25T12:21:33.000Z</time>
      </trkpt>
      <trkpt lat="45.60235" lon="2.78406">
        <ele>1436.3</ele>
        <time>2021-08-25T12:21:44.000Z</time>
      </trkpt>
      <trkpt lat="45.60229" lon="2.78401">
        <ele>1436.6</ele>
        <time>2021-08-25T12:21:57.000Z</time>
      </trkpt>
      <trkpt lat="45.60222" lon="2.78402">
        <ele>1438.2</ele>
        <time>2021-08-25T12:22:33.000Z</time>
      </trkpt>
      <trkpt lat="45.60215" lon="2.78405">
        <ele>1440.2</ele>
        <time>2021-08-25T12:22:58.000Z</time>
      </trkpt>
      <trkpt lat="45.60202" lon="2.78403">
        <ele>1442.4</ele>
        <time>2021-08-25T12:23:37.000Z</time>
      </trkpt>
      <trkpt lat="45.60194" lon="2.78399">
        <ele>1443.1</ele>
        <time>2021-08-25T12:24:14.000Z</time>
      </trkpt>
      <trkpt lat="45.60189" lon="2.78394">
        <ele>1443</ele>
        <time>2021-08-25T12:24:30.000Z</time>
      </trkpt>
      <trkpt lat="45.60183" lon="2.7839">
        <ele>1443.2</ele>
        <time>2021-08-25T12:24:42.000Z</time>
      </trkpt>
      <trkpt lat="45.60177" lon="2.78386">
        <ele>1443.4</ele>
        <time>2021-08-25T12:24:54.000Z</time>
      </trkpt>
      <trkpt lat="45.6017" lon="2.78382">
        <ele>1443.7</ele>
        <time>2021-08-25T12:25:09.000Z</time>
      </trkpt>
      <trkpt lat="45.60165" lon="2.78378">
        <ele>1442.8</ele>
        <time>2021-08-25T12:25:24.000Z</time>
      </trkpt>
      <trkpt lat="45.60159" lon="2.78373">
        <ele>1439.9</ele>
        <time>2021-08-25T12:25:36.000Z</time>
      </trkpt>
      <trkpt lat="45.60152" lon="2.78371">
        <ele>1437.5</ele>
        <time>2021-08-25T12:25:46.000Z</time>
      </trkpt>
      <trkpt lat="45.60146" lon="2.78366">
        <ele>1434.5</ele>
        <time>2021-08-25T12:25:58.000Z</time>
      </trkpt>
      <trkpt lat="45.60139" lon="2.78363">
        <ele>1431.8</ele>
        <time>2021-08-25T12:26:06.000Z</time>
      </trkpt>
      <trkpt lat="45.60132" lon="2.7836">
        <ele>1429</ele>
        <time>2021-08-25T12:26:13.000Z</time>
      </trkpt>
      <trkpt lat="45.60125" lon="2.78358">
        <ele>1426.5</ele>
        <time>2021-08-25T12:26:20.000Z</time>
      </trkpt>
      <trkpt lat="45.60119" lon="2.78355">
        <ele>1423.9</ele>
        <time>2021-08-25T12:26:27.000Z</time>
      </trkpt>
      <trkpt lat="45.60112" lon="2.78351">
        <ele>1420.7</ele>
        <time>2021-08-25T12:26:34.000Z</time>
      </trkpt>
      <trkpt lat="45.60106" lon="2.78348">
        <ele>1418.1</ele>
        <time>2021-08-25T12:26:43.000Z</time>
      </trkpt>
      <trkpt lat="45.60099" lon="2.78345">
        <ele>1415.2</ele>
        <time>2021-08-25T12:26:52.000Z</time>
      </trkpt>
      <trkpt lat="45.60093" lon="2.78346">
        <ele>1413.8</ele>
        <time>2021-08-25T12:26:59.000Z</time>
      </trkpt>
      <trkpt lat="45.60086" lon="2.78348">
        <ele>1412.3</ele>
        <time>2021-08-25T12:27:15.000Z</time>
      </trkpt>
      <trkpt lat="45.6008" lon="2.78354">
        <ele>1411.3</ele>
        <time>2021-08-25T12:27:27.000Z</time>
      </trkpt>
      <trkpt lat="45.60076" lon="2.78361">
        <ele>1411</ele>
        <time>2021-08-25T12:27:34.000Z</time>
      </trkpt>
      <trkpt lat="45.6007" lon="2.78366">
        <ele>1408.8</ele>
        <time>2021-08-25T12:27:43.000Z</time>
      </trkpt>
      <trkpt lat="45.60063" lon="2.7837">
        <ele>1405.7</ele>
        <time>2021-08-25T12:27:51.000Z</time>
      </trkpt>
      <trkpt lat="45.60057" lon="2.78374">
        <ele>1403.2</ele>
        <time>2021-08-25T12:27:58.000Z</time>
      </trkpt>
      <trkpt lat="45.60051" lon="2.7838">
        <ele>1401.4</ele>
        <time>2021-08-25T12:28:05.000Z</time>
      </trkpt>
      <trkpt lat="45.60046" lon="2.78386">
        <ele>1400.3</ele>
        <time>2021-08-25T12:28:13.000Z</time>
      </trkpt>
      <trkpt lat="45.6004" lon="2.78391">
        <ele>1398.2</ele>
        <time>2021-08-25T12:28:27.000Z</time>
      </trkpt>
      <trkpt lat="45.60034" lon="2.78397">
        <ele>1396.4</ele>
        <time>2021-08-25T12:29:13.000Z</time>
      </trkpt>
      <trkpt lat="45.60029" lon="2.78405">
        <ele>1395.9</ele>
        <time>2021-08-25T12:29:20.000Z</time>
      </trkpt>
      <trkpt lat="45.60024" lon="2.78412">
        <ele>1395.2</ele>
        <time>2021-08-25T12:29:28.000Z</time>
      </trkpt>
      <trkpt lat="45.6002" lon="2.78419">
        <ele>1394.7</ele>
        <time>2021-08-25T12:29:34.000Z</time>
      </trkpt>
      <trkpt lat="45.60014" lon="2.78424">
        <ele>1391.9</ele>
        <time>2021-08-25T12:29:40.000Z</time>
      </trkpt>
      <trkpt lat="45.60008" lon="2.78429">
        <ele>1389.3</ele>
        <time>2021-08-25T12:29:47.000Z</time>
      </trkpt>
      <trkpt lat="45.60003" lon="2.78435">
        <ele>1387.5</ele>
        <time>2021-08-25T12:29:54.000Z</time>
      </trkpt>
      <trkpt lat="45.59998" lon="2.78442">
        <ele>1386</ele>
        <time>2021-08-25T12:30:10.000Z</time>
      </trkpt>
      <trkpt lat="45.59997" lon="2.78451">
        <ele>1387.2</ele>
        <time>2021-08-25T12:31:05.000Z</time>
      </trkpt>
      <trkpt lat="45.59998" lon="2.7846">
        <ele>1389.6</ele>
        <time>2021-08-25T12:31:11.000Z</time>
      </trkpt>
      <trkpt lat="45.60001" lon="2.78469">
        <ele>1393.2</ele>
        <time>2021-08-25T12:31:18.000Z</time>
      </trkpt>
      <trkpt lat="45.60005" lon="2.78477">
        <ele>1397</ele>
        <time>2021-08-25T12:31:26.000Z</time>
      </trkpt>
      <trkpt lat="45.60006" lon="2.78487">
        <ele>1399.5</ele>
        <time>2021-08-25T12:31:34.000Z</time>
      </trkpt>
      <trkpt lat="45.60007" lon="2.78497">
        <ele>1402</ele>
        <time>2021-08-25T12:31:40.000Z</time>
      </trkpt>
      <trkpt lat="45.60009" lon="2.78507">
        <ele>1403.9</ele>
        <time>2021-08-25T12:31:46.000Z</time>
      </trkpt>
      <trkpt lat="45.60009" lon="2.78517">
        <ele>1404.3</ele>
        <time>2021-08-25T12:31:52.000Z</time>
      </trkpt>
      <trkpt lat="45.60011" lon="2.78527">
        <ele>1405.7</ele>
        <time>2021-08-25T12:32:00.000Z</time>
      </trkpt>
      <trkpt lat="45.60011" lon="2.78537">
        <ele>1406.1</ele>
        <time>2021-08-25T12:32:06.000Z</time>
      </trkpt>
      <trkpt lat="45.6001" lon="2.78547">
        <ele>1406</ele>
        <time>2021-08-25T12:32:13.000Z</time>
      </trkpt>
      <trkpt lat="45.60008" lon="2.78556">
        <ele>1405.3</ele>
        <time>2021-08-25T12:32:20.000Z</time>
      </trkpt>
      <trkpt lat="45.60008" lon="2.78566">
        <ele>1405.7</ele>
        <time>2021-08-25T12:32:27.000Z</time>
      </trkpt>
      <trkpt lat="45.60009" lon="2.78576">
        <ele>1406.6</ele>
        <time>2021-08-25T12:32:34.000Z</time>
      </trkpt>
      <trkpt lat="45.60009" lon="2.78586">
        <ele>1407.5</ele>
        <time>2021-08-25T12:32:40.000Z</time>
      </trkpt>
      <trkpt lat="45.60008" lon="2.78596">
        <ele>1409.5</ele>
        <time>2021-08-25T12:32:47.000Z</time>
      </trkpt>
      <trkpt lat="45.60007" lon="2.78607">
        <ele>1411.8</ele>
        <time>2021-08-25T12:32:54.000Z</time>
      </trkpt>
      <trkpt lat="45.60005" lon="2.78616">
        <ele>1413.1</ele>
        <time>2021-08-25T12:33:02.000Z</time>
      </trkpt>
      <trkpt lat="45.6" lon="2.78624">
        <ele>1412.7</ele>
        <time>2021-08-25T12:33:10.000Z</time>
      </trkpt>
      <trkpt lat="45.59995" lon="2.78629">
        <ele>1411.3</ele>
        <time>2021-08-25T12:33:22.000Z</time>
      </trkpt>
      <trkpt lat="45.59989" lon="2.78635">
        <ele>1409.6</ele>
        <time>2021-08-25T12:33:53.000Z</time>
      </trkpt>
      <trkpt lat="45.59986" lon="2.78644">
        <ele>1410.3</ele>
        <time>2021-08-25T12:34:01.000Z</time>
      </trkpt>
      <trkpt lat="45.59982" lon="2.78653">
        <ele>1410.4</ele>
        <time>2021-08-25T12:34:07.000Z</time>
      </trkpt>
      <trkpt lat="45.59978" lon="2.78662">
        <ele>1410.4</ele>
        <time>2021-08-25T12:34:13.000Z</time>
      </trkpt>
      <trkpt lat="45.59974" lon="2.78671">
        <ele>1410.6</ele>
        <time>2021-08-25T12:34:19.000Z</time>
      </trkpt>
      <trkpt lat="45.5997" lon="2.78679">
        <ele>1410.5</ele>
        <time>2021-08-25T12:34:24.000Z</time>
      </trkpt>
      <trkpt lat="45.59965" lon="2.78687">
        <ele>1409.9</ele>
        <time>2021-08-25T12:34:32.000Z</time>
      </trkpt>
      <trkpt lat="45.59961" lon="2.78694">
        <ele>1409.6</ele>
        <time>2021-08-25T12:34:39.000Z</time>
      </trkpt>
      <trkpt lat="45.59956" lon="2.78702">
        <ele>1408.9</ele>
        <time>2021-08-25T12:34:46.000Z</time>
      </trkpt>
      <trkpt lat="45.59952" lon="2.7871">
        <ele>1408.8</ele>
        <time>2021-08-25T12:34:53.000Z</time>
      </trkpt>
      <trkpt lat="45.59947" lon="2.78719">
        <ele>1408.4</ele>
        <time>2021-08-25T12:35:00.000Z</time>
      </trkpt>
      <trkpt lat="45.59943" lon="2.78728">
        <ele>1408.5</ele>
        <time>2021-08-25T12:35:06.000Z</time>
      </trkpt>
      <trkpt lat="45.59938" lon="2.78736">
        <ele>1407.8</ele>
        <time>2021-08-25T12:35:12.000Z</time>
      </trkpt>
      <trkpt lat="45.59933" lon="2.78743">
        <ele>1406.7</ele>
        <time>2021-08-25T12:35:19.000Z</time>
      </trkpt>
      <trkpt lat="45.59929" lon="2.78752">
        <ele>1406.9</ele>
        <time>2021-08-25T12:35:27.000Z</time>
      </trkpt>
      <trkpt lat="45.59927" lon="2.78762">
        <ele>1409.3</ele>
        <time>2021-08-25T12:35:35.000Z</time>
      </trkpt>
      <trkpt lat="45.59925" lon="2.78772">
        <ele>1411.7</ele>
        <time>2021-08-25T12:35:41.000Z</time>
      </trkpt>
      <trkpt lat="45.59923" lon="2.78781">
        <ele>1413.9</ele>
        <time>2021-08-25T12:35:47.000Z</time>
      </trkpt>
      <trkpt lat="45.5992" lon="2.7879">
        <ele>1415.6</ele>
        <time>2021-08-25T12:35:55.000Z</time>
      </trkpt>
      <trkpt lat="45.59917" lon="2.78798">
        <ele>1417</ele>
        <time>2021-08-25T12:36:04.000Z</time>
      </trkpt>
      <trkpt lat="45.59915" lon="2.78807">
        <ele>1419.2</ele>
        <time>2021-08-25T12:36:15.000Z</time>
      </trkpt>
      <trkpt lat="45.59911" lon="2.78815">
        <ele>1419.7</ele>
        <time>2021-08-25T12:36:34.000Z</time>
      </trkpt>
      <trkpt lat="45.59909" lon="2.78824">
        <ele>1421.7</ele>
        <time>2021-08-25T12:36:42.000Z</time>
      </trkpt>
      <trkpt lat="45.59906" lon="2.78833">
        <ele>1423.1</ele>
        <time>2021-08-25T12:36:49.000Z</time>
      </trkpt>
      <trkpt lat="45.59901" lon="2.78841">
        <ele>1422.2</ele>
        <time>2021-08-25T12:36:55.000Z</time>
      </trkpt>
      <trkpt lat="45.59897" lon="2.78848">
        <ele>1421.5</ele>
        <time>2021-08-25T12:37:02.000Z</time>
      </trkpt>
      <trkpt lat="45.59893" lon="2.78857">
        <ele>1421.4</ele>
        <time>2021-08-25T12:37:09.000Z</time>
      </trkpt>
      <trkpt lat="45.59889" lon="2.78864">
        <ele>1420.7</ele>
        <time>2021-08-25T12:37:24.000Z</time>
      </trkpt>
      <trkpt lat="45.59883" lon="2.7887">
        <ele>1418.4</ele>
        <time>2021-08-25T12:37:31.000Z</time>
      </trkpt>
      <trkpt lat="45.59877" lon="2.78875">
        <ele>1415.8</ele>
        <time>2021-08-25T12:37:37.000Z</time>
      </trkpt>
      <trkpt lat="45.59871" lon="2.7888">
        <ele>1413.2</ele>
        <time>2021-08-25T12:37:45.000Z</time>
      </trkpt>
      <trkpt lat="45.59865" lon="2.78885">
        <ele>1410.5</ele>
        <time>2021-08-25T12:37:52.000Z</time>
      </trkpt>
      <trkpt lat="45.59859" lon="2.7889">
        <ele>1407.8</ele>
        <time>2021-08-25T12:37:59.000Z</time>
      </trkpt>
      <trkpt lat="45.59854" lon="2.78896">
        <ele>1405.9</ele>
        <time>2021-08-25T12:38:09.000Z</time>
      </trkpt>
      <trkpt lat="45.59849" lon="2.78905">
        <ele>1404.8</ele>
        <time>2021-08-25T12:38:15.000Z</time>
      </trkpt>
      <trkpt lat="45.59845" lon="2.78913">
        <ele>1404.1</ele>
        <time>2021-08-25T12:38:23.000Z</time>
      </trkpt>
      <trkpt lat="45.59841" lon="2.78921">
        <ele>1402.8</ele>
        <time>2021-08-25T12:38:29.000Z</time>
      </trkpt>
      <trkpt lat="45.59837" lon="2.78929">
        <ele>1401.1</ele>
        <time>2021-08-25T12:38:36.000Z</time>
      </trkpt>
      <trkpt lat="45.59833" lon="2.78937">
        <ele>1399.4</ele>
        <time>2021-08-25T12:38:42.000Z</time>
      </trkpt>
      <trkpt lat="45.59827" lon="2.78942">
        <ele>1395.6</ele>
        <time>2021-08-25T12:38:49.000Z</time>
      </trkpt>
      <trkpt lat="45.59828" lon="2.78951">
        <ele>1397.5</ele>
        <time>2021-08-25T12:40:29.000Z</time>
      </trkpt>
      <trkpt lat="45.59829" lon="2.7896">
        <ele>1399.4</ele>
        <time>2021-08-25T12:40:41.000Z</time>
      </trkpt>
      <trkpt lat="45.59831" lon="2.7897">
        <ele>1402.2</ele>
        <time>2021-08-25T12:40:47.000Z</time>
      </trkpt>
      <trkpt lat="45.59833" lon="2.78979">
        <ele>1405</ele>
        <time>2021-08-25T12:40:53.000Z</time>
      </trkpt>
      <trkpt lat="45.59836" lon="2.78988">
        <ele>1408.1</ele>
        <time>2021-08-25T12:40:59.000Z</time>
      </trkpt>
      <trkpt lat="45.59837" lon="2.78997">
        <ele>1409.9</ele>
        <time>2021-08-25T12:41:05.000Z</time>
      </trkpt>
      <trkpt lat="45.5984" lon="2.79007">
        <ele>1411.3</ele>
        <time>2021-08-25T12:41:10.000Z</time>
      </trkpt>
      <trkpt lat="45.59843" lon="2.79016">
        <ele>1412.1</ele>
        <time>2021-08-25T12:41:16.000Z</time>
      </trkpt>
      <trkpt lat="45.59845" lon="2.79026">
        <ele>1412</ele>
        <time>2021-08-25T12:41:21.000Z</time>
      </trkpt>
      <trkpt lat="45.59848" lon="2.79036">
        <ele>1412.7</ele>
        <time>2021-08-25T12:41:27.000Z</time>
      </trkpt>
      <trkpt lat="45.59853" lon="2.79043">
        <ele>1415</ele>
        <time>2021-08-25T12:41:32.000Z</time>
      </trkpt>
      <trkpt lat="45.59857" lon="2.79051">
        <ele>1416.5</ele>
        <time>2021-08-25T12:41:37.000Z</time>
      </trkpt>
      <trkpt lat="45.5986" lon="2.79059">
        <ele>1417.4</ele>
        <time>2021-08-25T12:41:42.000Z</time>
      </trkpt>
      <trkpt lat="45.59863" lon="2.79071">
        <ele>1417.8</ele>
        <time>2021-08-25T12:41:48.000Z</time>
      </trkpt>
      <trkpt lat="45.59866" lon="2.7908">
        <ele>1418.6</ele>
        <time>2021-08-25T12:41:55.000Z</time>
      </trkpt>
      <trkpt lat="45.59871" lon="2.79089">
        <ele>1420.4</ele>
        <time>2021-08-25T12:42:01.000Z</time>
      </trkpt>
      <trkpt lat="45.59873" lon="2.79099">
        <ele>1419.8</ele>
        <time>2021-08-25T12:42:07.000Z</time>
      </trkpt>
      <trkpt lat="45.59876" lon="2.79108">
        <ele>1420</ele>
        <time>2021-08-25T12:42:13.000Z</time>
      </trkpt>
      <trkpt lat="45.59877" lon="2.79118">
        <ele>1418.8</ele>
        <time>2021-08-25T12:42:19.000Z</time>
      </trkpt>
      <trkpt lat="45.5988" lon="2.79127">
        <ele>1419</ele>
        <time>2021-08-25T12:42:24.000Z</time>
      </trkpt>
      <trkpt lat="45.59885" lon="2.79134">
        <ele>1420.8</ele>
        <time>2021-08-25T12:42:30.000Z</time>
      </trkpt>
      <trkpt lat="45.59892" lon="2.79141">
        <ele>1423.9</ele>
        <time>2021-08-25T12:42:36.000Z</time>
      </trkpt>
      <trkpt lat="45.59897" lon="2.79147">
        <ele>1425.8</ele>
        <time>2021-08-25T12:42:41.000Z</time>
      </trkpt>
      <trkpt lat="45.59902" lon="2.79154">
        <ele>1427.5</ele>
        <time>2021-08-25T12:42:47.000Z</time>
      </trkpt>
      <trkpt lat="45.59907" lon="2.7916">
        <ele>1429.4</ele>
        <time>2021-08-25T12:42:53.000Z</time>
      </trkpt>
      <trkpt lat="45.59914" lon="2.79166">
        <ele>1432.5</ele>
        <time>2021-08-25T12:43:00.000Z</time>
      </trkpt>
      <trkpt lat="45.59919" lon="2.79172">
        <ele>1433.3</ele>
        <time>2021-08-25T12:43:06.000Z</time>
      </trkpt>
      <trkpt lat="45.59924" lon="2.79179">
        <ele>1433.1</ele>
        <time>2021-08-25T12:43:20.000Z</time>
      </trkpt>
      <trkpt lat="45.5993" lon="2.79186">
        <ele>1433.2</ele>
        <time>2021-08-25T12:43:26.000Z</time>
      </trkpt>
      <trkpt lat="45.59935" lon="2.79191">
        <ele>1433.6</ele>
        <time>2021-08-25T12:43:32.000Z</time>
      </trkpt>
      <trkpt lat="45.59941" lon="2.79196">
        <ele>1434.3</ele>
        <time>2021-08-25T12:43:39.000Z</time>
      </trkpt>
      <trkpt lat="45.59946" lon="2.79204">
        <ele>1433.8</ele>
        <time>2021-08-25T12:43:46.000Z</time>
      </trkpt>
      <trkpt lat="45.59951" lon="2.79212">
        <ele>1433.3</ele>
        <time>2021-08-25T12:43:53.000Z</time>
      </trkpt>
      <trkpt lat="45.59956" lon="2.7922">
        <ele>1432.8</ele>
        <time>2021-08-25T12:43:59.000Z</time>
      </trkpt>
      <trkpt lat="45.59962" lon="2.79225">
        <ele>1433.5</ele>
        <time>2021-08-25T12:44:06.000Z</time>
      </trkpt>
      <trkpt lat="45.59968" lon="2.7923">
        <ele>1434.2</ele>
        <time>2021-08-25T12:44:14.000Z</time>
      </trkpt>
      <trkpt lat="45.59975" lon="2.79233">
        <ele>1435.9</ele>
        <time>2021-08-25T12:44:21.000Z</time>
      </trkpt>
      <trkpt lat="45.59981" lon="2.79238">
        <ele>1436.6</ele>
        <time>2021-08-25T12:44:27.000Z</time>
      </trkpt>
      <trkpt lat="45.59986" lon="2.79246">
        <ele>1436.1</ele>
        <time>2021-08-25T12:44:33.000Z</time>
      </trkpt>
      <trkpt lat="45.59992" lon="2.7925">
        <ele>1437.1</ele>
        <time>2021-08-25T12:44:39.000Z</time>
      </trkpt>
      <trkpt lat="45.59999" lon="2.79251">
        <ele>1439.3</ele>
        <time>2021-08-25T12:44:46.000Z</time>
      </trkpt>
      <trkpt lat="45.60005" lon="2.79254">
        <ele>1439.2</ele>
        <time>2021-08-25T12:44:53.000Z</time>
      </trkpt>
      <trkpt lat="45.6001" lon="2.7926">
        <ele>1437.7</ele>
        <time>2021-08-25T12:45:01.000Z</time>
      </trkpt>
      <trkpt lat="45.60016" lon="2.79263">
        <ele>1437.4</ele>
        <time>2021-08-25T12:45:10.000Z</time>
      </trkpt>
      <trkpt lat="45.60023" lon="2.79266">
        <ele>1437.1</ele>
        <time>2021-08-25T12:45:30.000Z</time>
      </trkpt>
      <trkpt lat="45.6003" lon="2.79269">
        <ele>1436.9</ele>
        <time>2021-08-25T12:45:36.000Z</time>
      </trkpt>
      <trkpt lat="45.60036" lon="2.7927">
        <ele>1437.3</ele>
        <time>2021-08-25T12:45:42.000Z</time>
      </trkpt>
      <trkpt lat="45.60044" lon="2.7927">
        <ele>1438.2</ele>
        <time>2021-08-25T12:45:50.000Z</time>
      </trkpt>
      <trkpt lat="45.6005" lon="2.79274">
        <ele>1437.5</ele>
        <time>2021-08-25T12:46:09.000Z</time>
      </trkpt>
      <trkpt lat="45.60056" lon="2.79277">
        <ele>1437.1</ele>
        <time>2021-08-25T12:46:18.000Z</time>
      </trkpt>
      <trkpt lat="45.60064" lon="2.79282">
        <ele>1436.2</ele>
        <time>2021-08-25T12:46:48.000Z</time>
      </trkpt>
      <trkpt lat="45.60071" lon="2.79283">
        <ele>1436.7</ele>
        <time>2021-08-25T12:46:59.000Z</time>
      </trkpt>
      <trkpt lat="45.60078" lon="2.79286">
        <ele>1436.4</ele>
        <time>2021-08-25T12:47:08.000Z</time>
      </trkpt>
      <trkpt lat="45.60084" lon="2.79287">
        <ele>1436.7</ele>
        <time>2021-08-25T12:47:20.000Z</time>
      </trkpt>
      <trkpt lat="45.6009" lon="2.79292">
        <ele>1434.8</ele>
        <time>2021-08-25T12:47:46.000Z</time>
      </trkpt>
      <trkpt lat="45.60095" lon="2.79302">
        <ele>1431.3</ele>
        <time>2021-08-25T12:48:06.000Z</time>
      </trkpt>
      <trkpt lat="45.60102" lon="2.7931">
        <ele>1428.8</ele>
        <time>2021-08-25T12:48:36.000Z</time>
      </trkpt>
      <trkpt lat="45.60107" lon="2.79316">
        <ele>1427</ele>
        <time>2021-08-25T12:48:47.000Z</time>
      </trkpt>
      <trkpt lat="45.60111" lon="2.79323">
        <ele>1424.9</ele>
        <time>2021-08-25T12:49:18.000Z</time>
      </trkpt>
      <trkpt lat="45.60117" lon="2.7932">
        <ele>1426</ele>
        <time>2021-08-25T12:49:40.000Z</time>
      </trkpt>
      <trkpt lat="45.60128" lon="2.79324">
        <ele>1425.3</ele>
        <time>2021-08-25T12:50:13.000Z</time>
      </trkpt>
      <trkpt lat="45.60126" lon="2.79333">
        <ele>1422.7</ele>
        <time>2021-08-25T12:50:35.000Z</time>
      </trkpt>
      <trkpt lat="45.60129" lon="2.79342">
        <ele>1420.5</ele>
        <time>2021-08-25T12:52:02.000Z</time>
      </trkpt>
      <trkpt lat="45.60134" lon="2.7935">
        <ele>1418.8</ele>
        <time>2021-08-25T12:52:13.000Z</time>
      </trkpt>
      <trkpt lat="45.60136" lon="2.79358">
        <ele>1416.9</ele>
        <time>2021-08-25T12:52:22.000Z</time>
      </trkpt>
      <trkpt lat="45.60139" lon="2.79367">
        <ele>1414.9</ele>
        <time>2021-08-25T12:52:31.000Z</time>
      </trkpt>
      <trkpt lat="45.60138" lon="2.79377">
        <ele>1412.3</ele>
        <time>2021-08-25T12:52:42.000Z</time>
      </trkpt>
      <trkpt lat="45.60138" lon="2.79388">
        <ele>1409.5</ele>
        <time>2021-08-25T12:52:49.000Z</time>
      </trkpt>
      <trkpt lat="45.60139" lon="2.79397">
        <ele>1407.3</ele>
        <time>2021-08-25T12:52:54.000Z</time>
      </trkpt>
      <trkpt lat="45.60141" lon="2.79408">
        <ele>1404.7</ele>
        <time>2021-08-25T12:53:00.000Z</time>
      </trkpt>
      <trkpt lat="45.60142" lon="2.79418">
        <ele>1402.3</ele>
        <time>2021-08-25T12:53:06.000Z</time>
      </trkpt>
      <trkpt lat="45.60144" lon="2.79427">
        <ele>1400.6</ele>
        <time>2021-08-25T12:53:44.000Z</time>
      </trkpt>
      <trkpt lat="45.60146" lon="2.79436">
        <ele>1398.9</ele>
        <time>2021-08-25T12:53:49.000Z</time>
      </trkpt>
      <trkpt lat="45.60149" lon="2.79445">
        <ele>1397.3</ele>
        <time>2021-08-25T12:53:54.000Z</time>
      </trkpt>
      <trkpt lat="45.60153" lon="2.79454">
        <ele>1395.9</ele>
        <time>2021-08-25T12:54:01.000Z</time>
      </trkpt>
      <trkpt lat="45.60155" lon="2.79464">
        <ele>1394</ele>
        <time>2021-08-25T12:54:07.000Z</time>
      </trkpt>
      <trkpt lat="45.60154" lon="2.79475">
        <ele>1391.6</ele>
        <time>2021-08-25T12:54:13.000Z</time>
      </trkpt>
      <trkpt lat="45.60152" lon="2.79485">
        <ele>1389.2</ele>
        <time>2021-08-25T12:54:18.000Z</time>
      </trkpt>
      <trkpt lat="45.60149" lon="2.79495">
        <ele>1386.7</ele>
        <time>2021-08-25T12:54:24.000Z</time>
      </trkpt>
      <trkpt lat="45.60146" lon="2.79504">
        <ele>1384.9</ele>
        <time>2021-08-25T12:54:29.000Z</time>
      </trkpt>
      <trkpt lat="45.60144" lon="2.79513">
        <ele>1383.6</ele>
        <time>2021-08-25T12:54:34.000Z</time>
      </trkpt>
      <trkpt lat="45.60141" lon="2.79524">
        <ele>1382</ele>
        <time>2021-08-25T12:54:40.000Z</time>
      </trkpt>
      <trkpt lat="45.60138" lon="2.79533">
        <ele>1380.6</ele>
        <time>2021-08-25T12:54:45.000Z</time>
      </trkpt>
      <trkpt lat="45.60136" lon="2.79543">
        <ele>1379.3</ele>
        <time>2021-08-25T12:54:51.000Z</time>
      </trkpt>
      <trkpt lat="45.60133" lon="2.79552">
        <ele>1377.8</ele>
        <time>2021-08-25T12:55:04.000Z</time>
      </trkpt>
      <trkpt lat="45.60131" lon="2.79561">
        <ele>1376.5</ele>
        <time>2021-08-25T12:55:10.000Z</time>
      </trkpt>
      <trkpt lat="45.60129" lon="2.7957">
        <ele>1375.2</ele>
        <time>2021-08-25T12:55:17.000Z</time>
      </trkpt>
      <trkpt lat="45.60126" lon="2.79579">
        <ele>1373.7</ele>
        <time>2021-08-25T12:55:33.000Z</time>
      </trkpt>
      <trkpt lat="45.6012" lon="2.79587">
        <ele>1371.7</ele>
        <time>2021-08-25T12:55:41.000Z</time>
      </trkpt>
      <trkpt lat="45.60115" lon="2.79592">
        <ele>1370.3</ele>
        <time>2021-08-25T12:55:49.000Z</time>
      </trkpt>
      <trkpt lat="45.60109" lon="2.79596">
        <ele>1368.9</ele>
        <time>2021-08-25T12:56:23.000Z</time>
      </trkpt>
      <trkpt lat="45.60104" lon="2.79603">
        <ele>1367.2</ele>
        <time>2021-08-25T12:56:30.000Z</time>
      </trkpt>
      <trkpt lat="45.60098" lon="2.79609">
        <ele>1365.6</ele>
        <time>2021-08-25T12:56:39.000Z</time>
      </trkpt>
      <trkpt lat="45.60093" lon="2.79615">
        <ele>1364.1</ele>
        <time>2021-08-25T12:56:48.000Z</time>
      </trkpt>
      <trkpt lat="45.60086" lon="2.79617">
        <ele>1362.8</ele>
        <time>2021-08-25T12:56:57.000Z</time>
      </trkpt>
      <trkpt lat="45.6008" lon="2.79622">
        <ele>1361.2</ele>
        <time>2021-08-25T12:57:04.000Z</time>
      </trkpt>
      <trkpt lat="45.60076" lon="2.7963">
        <ele>1359.6</ele>
        <time>2021-08-25T12:57:11.000Z</time>
      </trkpt>
      <trkpt lat="45.60076" lon="2.7964">
        <ele>1358.5</ele>
        <time>2021-08-25T12:57:18.000Z</time>
      </trkpt>
      <trkpt lat="45.60076" lon="2.7965">
        <ele>1357.4</ele>
        <time>2021-08-25T12:57:34.000Z</time>
      </trkpt>
      <trkpt lat="45.60081" lon="2.79656">
        <ele>1357.7</ele>
        <time>2021-08-25T12:57:40.000Z</time>
      </trkpt>
      <trkpt lat="45.60087" lon="2.79662">
        <ele>1358</ele>
        <time>2021-08-25T12:57:46.000Z</time>
      </trkpt>
      <trkpt lat="45.60093" lon="2.79668">
        <ele>1358.3</ele>
        <time>2021-08-25T12:57:52.000Z</time>
      </trkpt>
      <trkpt lat="45.60099" lon="2.79674">
        <ele>1358.5</ele>
        <time>2021-08-25T12:57:59.000Z</time>
      </trkpt>
      <trkpt lat="45.60105" lon="2.79679">
        <ele>1358.8</ele>
        <time>2021-08-25T12:58:04.000Z</time>
      </trkpt>
      <trkpt lat="45.60111" lon="2.79684">
        <ele>1359</ele>
        <time>2021-08-25T12:58:09.000Z</time>
      </trkpt>
      <trkpt lat="45.60117" lon="2.79689">
        <ele>1359.3</ele>
        <time>2021-08-25T12:58:14.000Z</time>
      </trkpt>
      <trkpt lat="45.60124" lon="2.79693">
        <ele>1359.7</ele>
        <time>2021-08-25T12:58:20.000Z</time>
      </trkpt>
      <trkpt lat="45.6013" lon="2.79697">
        <ele>1360</ele>
        <time>2021-08-25T12:58:26.000Z</time>
      </trkpt>
      <trkpt lat="45.60137" lon="2.797">
        <ele>1360.5</ele>
        <time>2021-08-25T12:58:32.000Z</time>
      </trkpt>
      <trkpt lat="45.60144" lon="2.79705">
        <ele>1360.7</ele>
        <time>2021-08-25T12:58:38.000Z</time>
      </trkpt>
      <trkpt lat="45.60151" lon="2.79712">
        <ele>1360.6</ele>
        <time>2021-08-25T12:58:44.000Z</time>
      </trkpt>
      <trkpt lat="45.60157" lon="2.79714">
        <ele>1361.1</ele>
        <time>2021-08-25T12:58:49.000Z</time>
      </trkpt>
      <trkpt lat="45.60164" lon="2.7972">
        <ele>1361</ele>
        <time>2021-08-25T12:58:54.000Z</time>
      </trkpt>
      <trkpt lat="45.60172" lon="2.79728">
        <ele>1360.7</ele>
        <time>2021-08-25T12:59:00.000Z</time>
      </trkpt>
      <trkpt lat="45.60178" lon="2.79734">
        <ele>1360.5</ele>
        <time>2021-08-25T12:59:06.000Z</time>
      </trkpt>
      <trkpt lat="45.60184" lon="2.79741">
        <ele>1360</ele>
        <time>2021-08-25T12:59:13.000Z</time>
      </trkpt>
      <trkpt lat="45.60188" lon="2.79749">
        <ele>1359.2</ele>
        <time>2021-08-25T12:59:19.000Z</time>
      </trkpt>
      <trkpt lat="45.60194" lon="2.79753">
        <ele>1359.4</ele>
        <time>2021-08-25T12:59:24.000Z</time>
      </trkpt>
      <trkpt lat="45.602" lon="2.79757">
        <ele>1359.6</ele>
        <time>2021-08-25T12:59:29.000Z</time>
      </trkpt>
      <trkpt lat="45.60207" lon="2.79761">
        <ele>1359.9</ele>
        <time>2021-08-25T12:59:34.000Z</time>
      </trkpt>
      <trkpt lat="45.60214" lon="2.79766">
        <ele>1360.2</ele>
        <time>2021-08-25T12:59:40.000Z</time>
      </trkpt>
      <trkpt lat="45.60221" lon="2.79767">
        <ele>1360.8</ele>
        <time>2021-08-25T12:59:46.000Z</time>
      </trkpt>
      <trkpt lat="45.60227" lon="2.79769">
        <ele>1361.2</ele>
        <time>2021-08-25T12:59:53.000Z</time>
      </trkpt>
      <trkpt lat="45.60234" lon="2.79769">
        <ele>1361.9</ele>
        <time>2021-08-25T13:00:25.000Z</time>
      </trkpt>
      <trkpt lat="45.60238" lon="2.79776">
        <ele>1361.7</ele>
        <time>2021-08-25T13:00:35.000Z</time>
      </trkpt>
      <trkpt lat="45.60239" lon="2.79786">
        <ele>1360.9</ele>
        <time>2021-08-25T13:00:46.000Z</time>
      </trkpt>
      <trkpt lat="45.60243" lon="2.79795">
        <ele>1360.5</ele>
        <time>2021-08-25T13:00:52.000Z</time>
      </trkpt>
      <trkpt lat="45.60245" lon="2.79804">
        <ele>1360</ele>
        <time>2021-08-25T13:00:58.000Z</time>
      </trkpt>
      <trkpt lat="45.60245" lon="2.79814">
        <ele>1359.1</ele>
        <time>2021-08-25T13:01:05.000Z</time>
      </trkpt>
      <trkpt lat="45.60248" lon="2.79824">
        <ele>1358.6</ele>
        <time>2021-08-25T13:01:11.000Z</time>
      </trkpt>
      <trkpt lat="45.60254" lon="2.79827">
        <ele>1358.2</ele>
        <time>2021-08-25T13:01:41.000Z</time>
      </trkpt>
      <trkpt lat="45.60256" lon="2.79837">
        <ele>1357</ele>
        <time>2021-08-25T13:01:51.000Z</time>
      </trkpt>
      <trkpt lat="45.60257" lon="2.79846">
        <ele>1355.8</ele>
        <time>2021-08-25T13:01:56.000Z</time>
      </trkpt>
      <trkpt lat="45.60261" lon="2.79856">
        <ele>1354.1</ele>
        <time>2021-08-25T13:02:01.000Z</time>
      </trkpt>
      <trkpt lat="45.60264" lon="2.79865">
        <ele>1352.7</ele>
        <time>2021-08-25T13:02:07.000Z</time>
      </trkpt>
      <trkpt lat="45.60266" lon="2.79874">
        <ele>1351.4</ele>
        <time>2021-08-25T13:02:13.000Z</time>
      </trkpt>
      <trkpt lat="45.60269" lon="2.79883">
        <ele>1350</ele>
        <time>2021-08-25T13:02:20.000Z</time>
      </trkpt>
      <trkpt lat="45.60271" lon="2.79893">
        <ele>1348.5</ele>
        <time>2021-08-25T13:02:26.000Z</time>
      </trkpt>
      <trkpt lat="45.60275" lon="2.79902">
        <ele>1347.1</ele>
        <time>2021-08-25T13:02:33.000Z</time>
      </trkpt>
      <trkpt lat="45.60276" lon="2.79911">
        <ele>1345.9</ele>
        <time>2021-08-25T13:02:41.000Z</time>
      </trkpt>
      <trkpt lat="45.60278" lon="2.7992">
        <ele>1344.6</ele>
        <time>2021-08-25T13:02:46.000Z</time>
      </trkpt>
      <trkpt lat="45.60281" lon="2.79929">
        <ele>1343.3</ele>
        <time>2021-08-25T13:02:53.000Z</time>
      </trkpt>
      <trkpt lat="45.60285" lon="2.79941">
        <ele>1341.7</ele>
        <time>2021-08-25T13:02:58.000Z</time>
      </trkpt>
      <trkpt lat="45.60291" lon="2.79948">
        <ele>1340.6</ele>
        <time>2021-08-25T13:03:04.000Z</time>
      </trkpt>
      <trkpt lat="45.60295" lon="2.79956">
        <ele>1339.6</ele>
        <time>2021-08-25T13:03:10.000Z</time>
      </trkpt>
      <trkpt lat="45.60299" lon="2.79965">
        <ele>1338.6</ele>
        <time>2021-08-25T13:03:16.000Z</time>
      </trkpt>
      <trkpt lat="45.60303" lon="2.79973">
        <ele>1337.7</ele>
        <time>2021-08-25T13:03:24.000Z</time>
      </trkpt>
      <trkpt lat="45.60307" lon="2.79981">
        <ele>1336.8</ele>
        <time>2021-08-25T13:03:30.000Z</time>
      </trkpt>
      <trkpt lat="45.60317" lon="2.79989">
        <ele>1335.9</ele>
        <time>2021-08-25T13:03:36.000Z</time>
      </trkpt>
      <trkpt lat="45.60312" lon="2.79997">
        <ele>1335.3</ele>
        <time>2021-08-25T13:03:43.000Z</time>
      </trkpt>
      <trkpt lat="45.60308" lon="2.80003">
        <ele>1334.9</ele>
        <time>2021-08-25T13:03:49.000Z</time>
      </trkpt>
      <trkpt lat="45.60301" lon="2.80004">
        <ele>1334.9</ele>
        <time>2021-08-25T13:04:00.000Z</time>
      </trkpt>
      <trkpt lat="45.60299" lon="2.80015">
        <ele>1334.5</ele>
        <time>2021-08-25T13:04:10.000Z</time>
      </trkpt>
      <trkpt lat="45.60297" lon="2.80025">
        <ele>1334.1</ele>
        <time>2021-08-25T13:04:19.000Z</time>
      </trkpt>
      <trkpt lat="45.60301" lon="2.80034">
        <ele>1333.9</ele>
        <time>2021-08-25T13:04:27.000Z</time>
      </trkpt>
      <trkpt lat="45.60306" lon="2.8004">
        <ele>1333.9</ele>
        <time>2021-08-25T13:04:35.000Z</time>
      </trkpt>
      <trkpt lat="45.60314" lon="2.80041">
        <ele>1334.2</ele>
        <time>2021-08-25T13:04:42.000Z</time>
      </trkpt>
      <trkpt lat="45.60321" lon="2.80042">
        <ele>1334.5</ele>
        <time>2021-08-25T13:04:48.000Z</time>
      </trkpt>
      <trkpt lat="45.60328" lon="2.80042">
        <ele>1334.8</ele>
        <time>2021-08-25T13:04:54.000Z</time>
      </trkpt>
      <trkpt lat="45.60334" lon="2.80044">
        <ele>1335</ele>
        <time>2021-08-25T13:05:10.000Z</time>
      </trkpt>
      <trkpt lat="45.60341" lon="2.80045">
        <ele>1335.3</ele>
        <time>2021-08-25T13:05:21.000Z</time>
      </trkpt>
      <trkpt lat="45.60347" lon="2.8005">
        <ele>1335.7</ele>
        <time>2021-08-25T13:05:29.000Z</time>
      </trkpt>
      <trkpt lat="45.60361" lon="2.80049">
        <ele>1336.3</ele>
        <time>2021-08-25T13:05:34.000Z</time>
      </trkpt>
      <trkpt lat="45.6037" lon="2.80048">
        <ele>1336.7</ele>
        <time>2021-08-25T13:05:40.000Z</time>
      </trkpt>
      <trkpt lat="45.60379" lon="2.80046">
        <ele>1337.1</ele>
        <time>2021-08-25T13:05:45.000Z</time>
      </trkpt>
      <trkpt lat="45.60386" lon="2.80047">
        <ele>1337.4</ele>
        <time>2021-08-25T13:05:50.000Z</time>
      </trkpt>
      <trkpt lat="45.60394" lon="2.80048">
        <ele>1337.8</ele>
        <time>2021-08-25T13:05:56.000Z</time>
      </trkpt>
      <trkpt lat="45.604" lon="2.80049">
        <ele>1338.2</ele>
        <time>2021-08-25T13:06:02.000Z</time>
      </trkpt>
      <trkpt lat="45.60408" lon="2.80052">
        <ele>1338.7</ele>
        <time>2021-08-25T13:06:09.000Z</time>
      </trkpt>
      <trkpt lat="45.60415" lon="2.80054">
        <ele>1339.2</ele>
        <time>2021-08-25T13:06:14.000Z</time>
      </trkpt>
      <trkpt lat="45.60424" lon="2.80059">
        <ele>1339.8</ele>
        <time>2021-08-25T13:06:20.000Z</time>
      </trkpt>
      <trkpt lat="45.60431" lon="2.80062">
        <ele>1340.3</ele>
        <time>2021-08-25T13:06:25.000Z</time>
      </trkpt>
      <trkpt lat="45.60438" lon="2.80067">
        <ele>1340.9</ele>
        <time>2021-08-25T13:06:31.000Z</time>
      </trkpt>
      <trkpt lat="45.60445" lon="2.80072">
        <ele>1341.6</ele>
        <time>2021-08-25T13:06:36.000Z</time>
      </trkpt>
      <trkpt lat="45.60452" lon="2.80076">
        <ele>1342.2</ele>
        <time>2021-08-25T13:06:41.000Z</time>
      </trkpt>
      <trkpt lat="45.60459" lon="2.80079">
        <ele>1342.7</ele>
        <time>2021-08-25T13:06:46.000Z</time>
      </trkpt>
      <trkpt lat="45.60468" lon="2.80084">
        <ele>1343.5</ele>
        <time>2021-08-25T13:06:52.000Z</time>
      </trkpt>
      <trkpt lat="45.60474" lon="2.80089">
        <ele>1344.3</ele>
        <time>2021-08-25T13:06:58.000Z</time>
      </trkpt>
      <trkpt lat="45.60482" lon="2.80094">
        <ele>1345.2</ele>
        <time>2021-08-25T13:07:04.000Z</time>
      </trkpt>
      <trkpt lat="45.60488" lon="2.801">
        <ele>1346.1</ele>
        <time>2021-08-25T13:07:10.000Z</time>
      </trkpt>
      <trkpt lat="45.60495" lon="2.80108">
        <ele>1347.2</ele>
        <time>2021-08-25T13:07:16.000Z</time>
      </trkpt>
      <trkpt lat="45.605" lon="2.80114">
        <ele>1347.9</ele>
        <time>2021-08-25T13:07:21.000Z</time>
      </trkpt>
      <trkpt lat="45.60504" lon="2.80121">
        <ele>1348.4</ele>
        <time>2021-08-25T13:07:26.000Z</time>
      </trkpt>
      <trkpt lat="45.60509" lon="2.80129">
        <ele>1348.8</ele>
        <time>2021-08-25T13:07:32.000Z</time>
      </trkpt>
      <trkpt lat="45.60513" lon="2.80138">
        <ele>1349.4</ele>
        <time>2021-08-25T13:07:38.000Z</time>
      </trkpt>
      <trkpt lat="45.60519" lon="2.80147">
        <ele>1349.7</ele>
        <time>2021-08-25T13:07:44.000Z</time>
      </trkpt>
      <trkpt lat="45.60522" lon="2.80156">
        <ele>1350.3</ele>
        <time>2021-08-25T13:07:49.000Z</time>
      </trkpt>
      <trkpt lat="45.60524" lon="2.80165">
        <ele>1350.8</ele>
        <time>2021-08-25T13:07:55.000Z</time>
      </trkpt>
      <trkpt lat="45.60528" lon="2.80173">
        <ele>1351.1</ele>
        <time>2021-08-25T13:08:00.000Z</time>
      </trkpt>
      <trkpt lat="45.60531" lon="2.80181">
        <ele>1351.5</ele>
        <time>2021-08-25T13:08:06.000Z</time>
      </trkpt>
      <trkpt lat="45.60537" lon="2.8019">
        <ele>1351.7</ele>
        <time>2021-08-25T13:08:12.000Z</time>
      </trkpt>
      <trkpt lat="45.60541" lon="2.80198">
        <ele>1352</ele>
        <time>2021-08-25T13:08:17.000Z</time>
      </trkpt>
      <trkpt lat="45.60546" lon="2.80206">
        <ele>1352.2</ele>
        <time>2021-08-25T13:08:22.000Z</time>
      </trkpt>
      <trkpt lat="45.60552" lon="2.80215">
        <ele>1352.5</ele>
        <time>2021-08-25T13:08:28.000Z</time>
      </trkpt>
      <trkpt lat="45.60556" lon="2.80223">
        <ele>1352.8</ele>
        <time>2021-08-25T13:08:33.000Z</time>
      </trkpt>
      <trkpt lat="45.60562" lon="2.80229">
        <ele>1352.8</ele>
        <time>2021-08-25T13:08:38.000Z</time>
      </trkpt>
      <trkpt lat="45.60569" lon="2.80235">
        <ele>1352.8</ele>
        <time>2021-08-25T13:08:44.000Z</time>
      </trkpt>
      <trkpt lat="45.60574" lon="2.80244">
        <ele>1353.2</ele>
        <time>2021-08-25T13:08:49.000Z</time>
      </trkpt>
      <trkpt lat="45.6058" lon="2.80252">
        <ele>1353.4</ele>
        <time>2021-08-25T13:08:54.000Z</time>
      </trkpt>
      <trkpt lat="45.60586" lon="2.80262">
        <ele>1353.6</ele>
        <time>2021-08-25T13:09:00.000Z</time>
      </trkpt>
      <trkpt lat="45.60592" lon="2.8027">
        <ele>1353.4</ele>
        <time>2021-08-25T13:09:05.000Z</time>
      </trkpt>
      <trkpt lat="45.60596" lon="2.80278">
        <ele>1353.5</ele>
        <time>2021-08-25T13:09:10.000Z</time>
      </trkpt>
      <trkpt lat="45.60601" lon="2.80288">
        <ele>1353.5</ele>
        <time>2021-08-25T13:09:16.000Z</time>
      </trkpt>
      <trkpt lat="45.60604" lon="2.80297">
        <ele>1353.7</ele>
        <time>2021-08-25T13:09:21.000Z</time>
      </trkpt>
      <trkpt lat="45.60608" lon="2.80305">
        <ele>1353.6</ele>
        <time>2021-08-25T13:09:26.000Z</time>
      </trkpt>
      <trkpt lat="45.60611" lon="2.80314">
        <ele>1353.7</ele>
        <time>2021-08-25T13:09:32.000Z</time>
      </trkpt>
      <trkpt lat="45.60615" lon="2.80324">
        <ele>1353.7</ele>
        <time>2021-08-25T13:09:38.000Z</time>
      </trkpt>
      <trkpt lat="45.60618" lon="2.80335">
        <ele>1353.8</ele>
        <time>2021-08-25T13:09:44.000Z</time>
      </trkpt>
      <trkpt lat="45.60621" lon="2.80346">
        <ele>1353.8</ele>
        <time>2021-08-25T13:09:49.000Z</time>
      </trkpt>
      <trkpt lat="45.60623" lon="2.80356">
        <ele>1353.8</ele>
        <time>2021-08-25T13:09:55.000Z</time>
      </trkpt>
      <trkpt lat="45.60625" lon="2.80366">
        <ele>1353.9</ele>
        <time>2021-08-25T13:10:02.000Z</time>
      </trkpt>
      <trkpt lat="45.60629" lon="2.80378">
        <ele>1353.6</ele>
        <time>2021-08-25T13:10:08.000Z</time>
      </trkpt>
      <trkpt lat="45.60631" lon="2.80387">
        <ele>1353.6</ele>
        <time>2021-08-25T13:10:13.000Z</time>
      </trkpt>
      <trkpt lat="45.60632" lon="2.80397">
        <ele>1353.8</ele>
        <time>2021-08-25T13:10:20.000Z</time>
      </trkpt>
      <trkpt lat="45.60632" lon="2.80407">
        <ele>1354.3</ele>
        <time>2021-08-25T13:10:25.000Z</time>
      </trkpt>
      <trkpt lat="45.60632" lon="2.80416">
        <ele>1354.6</ele>
        <time>2021-08-25T13:10:31.000Z</time>
      </trkpt>
      <trkpt lat="45.60632" lon="2.80426">
        <ele>1354.9</ele>
        <time>2021-08-25T13:10:36.000Z</time>
      </trkpt>
      <trkpt lat="45.6063" lon="2.80435">
        <ele>1355.5</ele>
        <time>2021-08-25T13:10:41.000Z</time>
      </trkpt>
      <trkpt lat="45.6063" lon="2.80446">
        <ele>1355.7</ele>
        <time>2021-08-25T13:10:46.000Z</time>
      </trkpt>
      <trkpt lat="45.60629" lon="2.80458">
        <ele>1356.2</ele>
        <time>2021-08-25T13:10:52.000Z</time>
      </trkpt>
      <trkpt lat="45.60628" lon="2.80468">
        <ele>1356.7</ele>
        <time>2021-08-25T13:10:59.000Z</time>
      </trkpt>
      <trkpt lat="45.60626" lon="2.80478">
        <ele>1357.3</ele>
        <time>2021-08-25T13:11:06.000Z</time>
      </trkpt>
      <trkpt lat="45.60624" lon="2.80489">
        <ele>1357.9</ele>
        <time>2021-08-25T13:11:12.000Z</time>
      </trkpt>
      <trkpt lat="45.60621" lon="2.80498">
        <ele>1358.7</ele>
        <time>2021-08-25T13:11:17.000Z</time>
      </trkpt>
      <trkpt lat="45.60617" lon="2.8051">
        <ele>1359.1</ele>
        <time>2021-08-25T13:11:22.000Z</time>
      </trkpt>
      <trkpt lat="45.60615" lon="2.8052">
        <ele>1359.1</ele>
        <time>2021-08-25T13:11:28.000Z</time>
      </trkpt>
      <trkpt lat="45.60612" lon="2.80529">
        <ele>1359.4</ele>
        <time>2021-08-25T13:11:34.000Z</time>
      </trkpt>
      <trkpt lat="45.60608" lon="2.80537">
        <ele>1360.1</ele>
        <time>2021-08-25T13:11:40.000Z</time>
      </trkpt>
      <trkpt lat="45.60606" lon="2.80546">
        <ele>1360.3</ele>
        <time>2021-08-25T13:11:46.000Z</time>
      </trkpt>
      <trkpt lat="45.60604" lon="2.80557">
        <ele>1360.5</ele>
        <time>2021-08-25T13:11:52.000Z</time>
      </trkpt>
      <trkpt lat="45.60603" lon="2.80568">
        <ele>1360.5</ele>
        <time>2021-08-25T13:11:58.000Z</time>
      </trkpt>
      <trkpt lat="45.60603" lon="2.80579">
        <ele>1360.2</ele>
        <time>2021-08-25T13:12:04.000Z</time>
      </trkpt>
      <trkpt lat="45.60603" lon="2.80589">
        <ele>1359.7</ele>
        <time>2021-08-25T13:12:09.000Z</time>
      </trkpt>
      <trkpt lat="45.60603" lon="2.806">
        <ele>1358.9</ele>
        <time>2021-08-25T13:12:14.000Z</time>
      </trkpt>
      <trkpt lat="45.60602" lon="2.80609">
        <ele>1358.6</ele>
        <time>2021-08-25T13:12:20.000Z</time>
      </trkpt>
      <trkpt lat="45.60602" lon="2.8062">
        <ele>1357.8</ele>
        <time>2021-08-25T13:12:27.000Z</time>
      </trkpt>
      <trkpt lat="45.60599" lon="2.80631">
        <ele>1357.8</ele>
        <time>2021-08-25T13:12:32.000Z</time>
      </trkpt>
      <trkpt lat="45.60598" lon="2.80641">
        <ele>1357.4</ele>
        <time>2021-08-25T13:12:39.000Z</time>
      </trkpt>
      <trkpt lat="45.60597" lon="2.80651">
        <ele>1356.9</ele>
        <time>2021-08-25T13:12:45.000Z</time>
      </trkpt>
      <trkpt lat="45.60594" lon="2.80663">
        <ele>1356.7</ele>
        <time>2021-08-25T13:12:50.000Z</time>
      </trkpt>
      <trkpt lat="45.60593" lon="2.80674">
        <ele>1356.4</ele>
        <time>2021-08-25T13:12:56.000Z</time>
      </trkpt>
      <trkpt lat="45.60593" lon="2.80684">
        <ele>1356.1</ele>
        <time>2021-08-25T13:13:02.000Z</time>
      </trkpt>
      <trkpt lat="45.60591" lon="2.80696">
        <ele>1356.2</ele>
        <time>2021-08-25T13:13:08.000Z</time>
      </trkpt>
      <trkpt lat="45.60589" lon="2.80706">
        <ele>1356.3</ele>
        <time>2021-08-25T13:13:15.000Z</time>
      </trkpt>
      <trkpt lat="45.60587" lon="2.80716">
        <ele>1356.4</ele>
        <time>2021-08-25T13:13:20.000Z</time>
      </trkpt>
      <trkpt lat="45.60585" lon="2.80725">
        <ele>1356.5</ele>
        <time>2021-08-25T13:13:25.000Z</time>
      </trkpt>
      <trkpt lat="45.60585" lon="2.80736">
        <ele>1356.2</ele>
        <time>2021-08-25T13:13:30.000Z</time>
      </trkpt>
      <trkpt lat="45.60584" lon="2.80745">
        <ele>1356</ele>
        <time>2021-08-25T13:13:39.000Z</time>
      </trkpt>
      <trkpt lat="45.60581" lon="2.80754">
        <ele>1356.1</ele>
        <time>2021-08-25T13:13:45.000Z</time>
      </trkpt>
      <trkpt lat="45.60582" lon="2.80764">
        <ele>1355.6</ele>
        <time>2021-08-25T13:13:51.000Z</time>
      </trkpt>
      <trkpt lat="45.60585" lon="2.80772">
        <ele>1354.9</ele>
        <time>2021-08-25T13:13:59.000Z</time>
      </trkpt>
      <trkpt lat="45.60588" lon="2.80782">
        <ele>1354</ele>
        <time>2021-08-25T13:14:06.000Z</time>
      </trkpt>
      <trkpt lat="45.60593" lon="2.80794">
        <ele>1352.7</ele>
        <time>2021-08-25T13:14:12.000Z</time>
      </trkpt>
      <trkpt lat="45.60596" lon="2.80803">
        <ele>1351.9</ele>
        <time>2021-08-25T13:14:17.000Z</time>
      </trkpt>
      <trkpt lat="45.60599" lon="2.80812">
        <ele>1351.1</ele>
        <time>2021-08-25T13:14:23.000Z</time>
      </trkpt>
      <trkpt lat="45.60604" lon="2.80821">
        <ele>1350.1</ele>
        <time>2021-08-25T13:14:28.000Z</time>
      </trkpt>
      <trkpt lat="45.6061" lon="2.80826">
        <ele>1349</ele>
        <time>2021-08-25T13:14:51.000Z</time>
      </trkpt>
      <trkpt lat="45.60613" lon="2.80835">
        <ele>1348.4</ele>
        <time>2021-08-25T13:14:57.000Z</time>
      </trkpt>
      <trkpt lat="45.60615" lon="2.80844">
        <ele>1348.2</ele>
        <time>2021-08-25T13:15:06.000Z</time>
      </trkpt>
      <trkpt lat="45.60616" lon="2.80853">
        <ele>1348.1</ele>
        <time>2021-08-25T13:15:12.000Z</time>
      </trkpt>
      <trkpt lat="45.60618" lon="2.80863">
        <ele>1347.9</ele>
        <time>2021-08-25T13:15:18.000Z</time>
      </trkpt>
      <trkpt lat="45.60621" lon="2.80873">
        <ele>1347.6</ele>
        <time>2021-08-25T13:15:25.000Z</time>
      </trkpt>
      <trkpt lat="45.60624" lon="2.80881">
        <ele>1347.2</ele>
        <time>2021-08-25T13:15:30.000Z</time>
      </trkpt>
      <trkpt lat="45.60626" lon="2.80891">
        <ele>1347</ele>
        <time>2021-08-25T13:15:38.000Z</time>
      </trkpt>
      <trkpt lat="45.60626" lon="2.80901">
        <ele>1347.2</ele>
        <time>2021-08-25T13:15:44.000Z</time>
      </trkpt>
      <trkpt lat="45.60626" lon="2.80911">
        <ele>1347.3</ele>
        <time>2021-08-25T13:15:49.000Z</time>
      </trkpt>
      <trkpt lat="45.60627" lon="2.80923">
        <ele>1347.1</ele>
        <time>2021-08-25T13:15:54.000Z</time>
      </trkpt>
      <trkpt lat="45.60627" lon="2.80936">
        <ele>1346.9</ele>
        <time>2021-08-25T13:16:00.000Z</time>
      </trkpt>
      <trkpt lat="45.60629" lon="2.80946">
        <ele>1346.5</ele>
        <time>2021-08-25T13:16:06.000Z</time>
      </trkpt>
      <trkpt lat="45.60631" lon="2.80958">
        <ele>1346.1</ele>
        <time>2021-08-25T13:16:12.000Z</time>
      </trkpt>
      <trkpt lat="45.60632" lon="2.80968">
        <ele>1345.8</ele>
        <time>2021-08-25T13:16:17.000Z</time>
      </trkpt>
      <trkpt lat="45.60632" lon="2.80979">
        <ele>1345.7</ele>
        <time>2021-08-25T13:16:25.000Z</time>
      </trkpt>
      <trkpt lat="45.60632" lon="2.80989">
        <ele>1345.6</ele>
        <time>2021-08-25T13:16:34.000Z</time>
      </trkpt>
      <trkpt lat="45.60633" lon="2.81001">
        <ele>1345.4</ele>
        <time>2021-08-25T13:16:40.000Z</time>
      </trkpt>
      <trkpt lat="45.60633" lon="2.81012">
        <ele>1345.2</ele>
        <time>2021-08-25T13:16:46.000Z</time>
      </trkpt>
      <trkpt lat="45.60634" lon="2.81028">
        <ele>1344.8</ele>
        <time>2021-08-25T13:16:52.000Z</time>
      </trkpt>
      <trkpt lat="45.60635" lon="2.81044">
        <ele>1344.5</ele>
        <time>2021-08-25T13:16:57.000Z</time>
      </trkpt>
      <trkpt lat="45.60631" lon="2.81036">
        <ele>1344.8</ele>
        <time>2021-08-25T13:17:18.000Z</time>
      </trkpt>
      <trkpt lat="45.60624" lon="2.81041">
        <ele>1345.1</ele>
        <time>2021-08-25T13:17:27.000Z</time>
      </trkpt>
      <trkpt lat="45.60621" lon="2.81049">
        <ele>1345</ele>
        <time>2021-08-25T13:17:33.000Z</time>
      </trkpt>
      <trkpt lat="45.60614" lon="2.81066">
        <ele>1344.8</ele>
        <time>2021-08-25T13:17:38.000Z</time>
      </trkpt>
      <trkpt lat="45.60604" lon="2.81098">
        <ele>1343.9</ele>
        <time>2021-08-25T13:17:44.000Z</time>
      </trkpt>
      <trkpt lat="45.60595" lon="2.81123">
        <ele>1342.7</ele>
        <time>2021-08-25T13:17:49.000Z</time>
      </trkpt>
      <trkpt lat="45.6059" lon="2.81141">
        <ele>1341.7</ele>
        <time>2021-08-25T13:17:54.000Z</time>
      </trkpt>
      <trkpt lat="45.60581" lon="2.81151">
        <ele>1340.8</ele>
        <time>2021-08-25T13:18:00.000Z</time>
      </trkpt>
      <trkpt lat="45.60578" lon="2.8116">
        <ele>1340.1</ele>
        <time>2021-08-25T13:18:09.000Z</time>
      </trkpt>
      <trkpt lat="45.60573" lon="2.81167">
        <ele>1339.5</ele>
        <time>2021-08-25T13:18:18.000Z</time>
      </trkpt>
      <trkpt lat="45.60567" lon="2.81162">
        <ele>1339.5</ele>
        <time>2021-08-25T13:18:26.000Z</time>
      </trkpt>
      <trkpt lat="45.60561" lon="2.81169">
        <ele>1338.9</ele>
        <time>2021-08-25T13:18:32.000Z</time>
      </trkpt>
      <trkpt lat="45.60555" lon="2.81176">
        <ele>1338.5</ele>
        <time>2021-08-25T13:18:40.000Z</time>
      </trkpt>
      <trkpt lat="45.60552" lon="2.81188">
        <ele>1338.2</ele>
        <time>2021-08-25T13:18:45.000Z</time>
      </trkpt>
      <trkpt lat="45.60553" lon="2.81198">
        <ele>1338.1</ele>
        <time>2021-08-25T13:18:53.000Z</time>
      </trkpt>
      <trkpt lat="45.60552" lon="2.81208">
        <ele>1337.9</ele>
        <time>2021-08-25T13:19:00.000Z</time>
      </trkpt>
      <trkpt lat="45.60552" lon="2.81218">
        <ele>1337.8</ele>
        <time>2021-08-25T13:19:07.000Z</time>
      </trkpt>
      <trkpt lat="45.60554" lon="2.81227">
        <ele>1337.8</ele>
        <time>2021-08-25T13:19:13.000Z</time>
      </trkpt>
      <trkpt lat="45.60558" lon="2.81235">
        <ele>1338</ele>
        <time>2021-08-25T13:19:18.000Z</time>
      </trkpt>
      <trkpt lat="45.60561" lon="2.81243">
        <ele>1338.2</ele>
        <time>2021-08-25T13:19:37.000Z</time>
      </trkpt>
      <trkpt lat="45.60566" lon="2.8125">
        <ele>1338.5</ele>
        <time>2021-08-25T13:19:43.000Z</time>
      </trkpt>
      <trkpt lat="45.60568" lon="2.81261">
        <ele>1338.7</ele>
        <time>2021-08-25T13:19:51.000Z</time>
      </trkpt>
      <trkpt lat="45.60567" lon="2.8127">
        <ele>1338.6</ele>
        <time>2021-08-25T13:19:58.000Z</time>
      </trkpt>
      <trkpt lat="45.60569" lon="2.81283">
        <ele>1338.8</ele>
        <time>2021-08-25T13:20:04.000Z</time>
      </trkpt>
      <trkpt lat="45.60569" lon="2.8127">
        <ele>1338.8</ele>
        <time>2021-08-25T13:20:10.000Z</time>
      </trkpt>
      <trkpt lat="45.60572" lon="2.81241">
        <ele>1339.1</ele>
        <time>2021-08-25T13:20:16.000Z</time>
      </trkpt>
      <trkpt lat="45.60568" lon="2.81249">
        <ele>1338.7</ele>
        <time>2021-08-25T13:20:33.000Z</time>
      </trkpt>
      <trkpt lat="45.60562" lon="2.81245">
        <ele>1338.3</ele>
        <time>2021-08-25T13:20:40.000Z</time>
      </trkpt>
      <trkpt lat="45.60562" lon="2.81261">
        <ele>1338.2</ele>
        <time>2021-08-25T13:20:48.000Z</time>
      </trkpt>
      <trkpt lat="45.60562" lon="2.81278">
        <ele>1338.2</ele>
        <time>2021-08-25T13:20:53.000Z</time>
      </trkpt>
      <trkpt lat="45.60562" lon="2.81288">
        <ele>1338.2</ele>
        <time>2021-08-25T13:20:59.000Z</time>
      </trkpt>
      <trkpt lat="45.60561" lon="2.81298">
        <ele>1338.1</ele>
        <time>2021-08-25T13:21:06.000Z</time>
      </trkpt>
      <trkpt lat="45.60561" lon="2.81308">
        <ele>1338.1</ele>
        <time>2021-08-25T13:21:17.000Z</time>
      </trkpt>
      <trkpt lat="45.60564" lon="2.81317">
        <ele>1338.4</ele>
        <time>2021-08-25T13:21:23.000Z</time>
      </trkpt>
      <trkpt lat="45.60564" lon="2.81327">
        <ele>1338.4</ele>
        <time>2021-08-25T13:21:29.000Z</time>
      </trkpt>
      <trkpt lat="45.60562" lon="2.81335">
        <ele>1338.3</ele>
        <time>2021-08-25T13:21:35.000Z</time>
      </trkpt>
      <trkpt lat="45.60561" lon="2.81345">
        <ele>1338.6</ele>
        <time>2021-08-25T13:21:43.000Z</time>
      </trkpt>
      <trkpt lat="45.60565" lon="2.81354">
        <ele>1339.3</ele>
        <time>2021-08-25T13:21:48.000Z</time>
      </trkpt>
      <trkpt lat="45.6057" lon="2.81362">
        <ele>1340.1</ele>
        <time>2021-08-25T13:22:01.000Z</time>
      </trkpt>
      <trkpt lat="45.60572" lon="2.81372">
        <ele>1340.8</ele>
        <time>2021-08-25T13:22:07.000Z</time>
      </trkpt>
      <trkpt lat="45.60571" lon="2.81386">
        <ele>1341.3</ele>
        <time>2021-08-25T13:22:12.000Z</time>
      </trkpt>
      <trkpt lat="45.60571" lon="2.81395">
        <ele>1341.7</ele>
        <time>2021-08-25T13:22:17.000Z</time>
      </trkpt>
      <trkpt lat="45.60574" lon="2.81407">
        <ele>1342.6</ele>
        <time>2021-08-25T13:22:22.000Z</time>
      </trkpt>
      <trkpt lat="45.60577" lon="2.81421">
        <ele>1343.6</ele>
        <time>2021-08-25T13:22:28.000Z</time>
      </trkpt>
      <trkpt lat="45.60575" lon="2.81433">
        <ele>1344</ele>
        <time>2021-08-25T13:22:58.000Z</time>
      </trkpt>
      <trkpt lat="45.60574" lon="2.81443">
        <ele>1344.5</ele>
        <time>2021-08-25T13:23:05.000Z</time>
      </trkpt>
      <trkpt lat="45.60574" lon="2.81453">
        <ele>1345.1</ele>
        <time>2021-08-25T13:23:14.000Z</time>
      </trkpt>
      <trkpt lat="45.60575" lon="2.81463">
        <ele>1345.8</ele>
        <time>2021-08-25T13:23:20.000Z</time>
      </trkpt>
      <trkpt lat="45.60575" lon="2.81473">
        <ele>1346.3</ele>
        <time>2021-08-25T13:23:25.000Z</time>
      </trkpt>
      <trkpt lat="45.60575" lon="2.81483">
        <ele>1346.9</ele>
        <time>2021-08-25T13:23:30.000Z</time>
      </trkpt>
      <trkpt lat="45.60575" lon="2.81496">
        <ele>1347.7</ele>
        <time>2021-08-25T13:23:36.000Z</time>
      </trkpt>
      <trkpt lat="45.60574" lon="2.81506">
        <ele>1347.9</ele>
        <time>2021-08-25T13:23:43.000Z</time>
      </trkpt>
      <trkpt lat="45.60572" lon="2.81517">
        <ele>1347.9</ele>
        <time>2021-08-25T13:23:48.000Z</time>
      </trkpt>
      <trkpt lat="45.60571" lon="2.81526">
        <ele>1348</ele>
        <time>2021-08-25T13:23:53.000Z</time>
      </trkpt>
      <trkpt lat="45.60571" lon="2.81537">
        <ele>1348.3</ele>
        <time>2021-08-25T13:23:59.000Z</time>
      </trkpt>
      <trkpt lat="45.60571" lon="2.81547">
        <ele>1348.6</ele>
        <time>2021-08-25T13:24:05.000Z</time>
      </trkpt>
      <trkpt lat="45.60573" lon="2.81556">
        <ele>1349.1</ele>
        <time>2021-08-25T13:24:11.000Z</time>
      </trkpt>
      <trkpt lat="45.60573" lon="2.81566">
        <ele>1349.3</ele>
        <time>2021-08-25T13:24:17.000Z</time>
      </trkpt>
      <trkpt lat="45.60576" lon="2.81575">
        <ele>1349.9</ele>
        <time>2021-08-25T13:24:29.000Z</time>
      </trkpt>
      <trkpt lat="45.60576" lon="2.81586">
        <ele>1350</ele>
        <time>2021-08-25T13:24:38.000Z</time>
      </trkpt>
      <trkpt lat="45.60574" lon="2.81597">
        <ele>1349.5</ele>
        <time>2021-08-25T13:24:44.000Z</time>
      </trkpt>
      <trkpt lat="45.60573" lon="2.81608">
        <ele>1349.1</ele>
        <time>2021-08-25T13:24:49.000Z</time>
      </trkpt>
      <trkpt lat="45.60572" lon="2.81619">
        <ele>1348.6</ele>
        <time>2021-08-25T13:24:55.000Z</time>
      </trkpt>
      <trkpt lat="45.60573" lon="2.81628">
        <ele>1348.5</ele>
        <time>2021-08-25T13:25:00.000Z</time>
      </trkpt>
      <trkpt lat="45.60574" lon="2.81638">
        <ele>1348.3</ele>
        <time>2021-08-25T13:25:07.000Z</time>
      </trkpt>
      <trkpt lat="45.60575" lon="2.81647">
        <ele>1348.1</ele>
        <time>2021-08-25T13:25:14.000Z</time>
      </trkpt>
      <trkpt lat="45.60577" lon="2.81656">
        <ele>1348</ele>
        <time>2021-08-25T13:25:23.000Z</time>
      </trkpt>
      <trkpt lat="45.60576" lon="2.81667">
        <ele>1347.5</ele>
        <time>2021-08-25T13:25:33.000Z</time>
      </trkpt>
      <trkpt lat="45.60583" lon="2.81662">
        <ele>1348.1</ele>
        <time>2021-08-25T13:25:42.000Z</time>
      </trkpt>
      <trkpt lat="45.60591" lon="2.81657">
        <ele>1348.4</ele>
        <time>2021-08-25T13:25:48.000Z</time>
      </trkpt>
      <trkpt lat="45.60598" lon="2.81654">
        <ele>1348.6</ele>
        <time>2021-08-25T13:25:56.000Z</time>
      </trkpt>
      <trkpt lat="45.60604" lon="2.81649">
        <ele>1348.9</ele>
        <time>2021-08-25T13:26:03.000Z</time>
      </trkpt>
      <trkpt lat="45.60609" lon="2.81644">
        <ele>1349.2</ele>
        <time>2021-08-25T13:26:17.000Z</time>
      </trkpt>
      <trkpt lat="45.60604" lon="2.81649">
        <ele>1348.9</ele>
        <time>2021-08-25T13:26:45.000Z</time>
      </trkpt>
      <trkpt lat="45.606" lon="2.81657">
        <ele>1348.5</ele>
        <time>2021-08-25T13:26:52.000Z</time>
      </trkpt>
      <trkpt lat="45.60599" lon="2.81667">
        <ele>1347.9</ele>
        <time>2021-08-25T13:27:06.000Z</time>
      </trkpt>
      <trkpt lat="45.60596" lon="2.81675">
        <ele>1346.7</ele>
        <time>2021-08-25T13:27:16.000Z</time>
      </trkpt>
      <trkpt lat="45.60592" lon="2.81684">
        <ele>1345.3</ele>
        <time>2021-08-25T13:27:23.000Z</time>
      </trkpt>
      <trkpt lat="45.6059" lon="2.81693">
        <ele>1343.9</ele>
        <time>2021-08-25T13:27:29.000Z</time>
      </trkpt>
      <trkpt lat="45.60589" lon="2.81703">
        <ele>1342.4</ele>
        <time>2021-08-25T13:27:34.000Z</time>
      </trkpt>
      <trkpt lat="45.60588" lon="2.81716">
        <ele>1340.3</ele>
        <time>2021-08-25T13:27:40.000Z</time>
      </trkpt>
      <trkpt lat="45.60583" lon="2.81727">
        <ele>1338.6</ele>
        <time>2021-08-25T13:27:45.000Z</time>
      </trkpt>
      <trkpt lat="45.60578" lon="2.8174">
        <ele>1336.4</ele>
        <time>2021-08-25T13:27:50.000Z</time>
      </trkpt>
      <trkpt lat="45.60574" lon="2.81756">
        <ele>1333.4</ele>
        <time>2021-08-25T13:27:56.000Z</time>
      </trkpt>
      <trkpt lat="45.60574" lon="2.81768">
        <ele>1330.6</ele>
        <time>2021-08-25T13:28:01.000Z</time>
      </trkpt>
      <trkpt lat="45.60571" lon="2.81792">
        <ele>1324.9</ele>
        <time>2021-08-25T13:28:06.000Z</time>
      </trkpt>
      <trkpt lat="45.60571" lon="2.81801">
        <ele>1322.8</ele>
        <time>2021-08-25T13:28:13.000Z</time>
      </trkpt>
      <trkpt lat="45.60572" lon="2.81811">
        <ele>1320.5</ele>
        <time>2021-08-25T13:28:24.000Z</time>
      </trkpt>
      <trkpt lat="45.60576" lon="2.81819">
        <ele>1318.6</ele>
        <time>2021-08-25T13:28:30.000Z</time>
      </trkpt>
      <trkpt lat="45.60576" lon="2.81829">
        <ele>1316.2</ele>
        <time>2021-08-25T13:28:46.000Z</time>
      </trkpt>
      <trkpt lat="45.6058" lon="2.81837">
        <ele>1314.5</ele>
        <time>2021-08-25T13:28:52.000Z</time>
      </trkpt>
      <trkpt lat="45.60582" lon="2.81845">
        <ele>1313.2</ele>
        <time>2021-08-25T13:29:00.000Z</time>
      </trkpt>
      <trkpt lat="45.60589" lon="2.81842">
        <ele>1313.9</ele>
        <time>2021-08-25T13:29:12.000Z</time>
      </trkpt>
      <trkpt lat="45.60594" lon="2.81847">
        <ele>1313.4</ele>
        <time>2021-08-25T13:29:22.000Z</time>
      </trkpt>
      <trkpt lat="45.60593" lon="2.81857">
        <ele>1311.8</ele>
        <time>2021-08-25T13:29:28.000Z</time>
      </trkpt>
      <trkpt lat="45.60591" lon="2.81867">
        <ele>1310.2</ele>
        <time>2021-08-25T13:29:33.000Z</time>
      </trkpt>
      <trkpt lat="45.60591" lon="2.81877">
        <ele>1308.7</ele>
        <time>2021-08-25T13:29:39.000Z</time>
      </trkpt>
      <trkpt lat="45.60589" lon="2.81887">
        <ele>1307</ele>
        <time>2021-08-25T13:29:45.000Z</time>
      </trkpt>
      <trkpt lat="45.60585" lon="2.81904">
        <ele>1304.1</ele>
        <time>2021-08-25T13:29:50.000Z</time>
      </trkpt>
      <trkpt lat="45.60582" lon="2.8192">
        <ele>1301.6</ele>
        <time>2021-08-25T13:29:56.000Z</time>
      </trkpt>
      <trkpt lat="45.60583" lon="2.8193">
        <ele>1300.4</ele>
        <time>2021-08-25T13:30:02.000Z</time>
      </trkpt>
      <trkpt lat="45.60582" lon="2.81939">
        <ele>1299.3</ele>
        <time>2021-08-25T13:30:11.000Z</time>
      </trkpt>
      <trkpt lat="45.60588" lon="2.81939">
        <ele>1299.7</ele>
        <time>2021-08-25T13:30:25.000Z</time>
      </trkpt>
      <trkpt lat="45.60588" lon="2.81949">
        <ele>1298.5</ele>
        <time>2021-08-25T13:30:40.000Z</time>
      </trkpt>
      <trkpt lat="45.60584" lon="2.81963">
        <ele>1296.5</ele>
        <time>2021-08-25T13:30:45.000Z</time>
      </trkpt>
      <trkpt lat="45.6058" lon="2.81978">
        <ele>1294.7</ele>
        <time>2021-08-25T13:30:50.000Z</time>
      </trkpt>
      <trkpt lat="45.60581" lon="2.81989">
        <ele>1293.3</ele>
        <time>2021-08-25T13:30:56.000Z</time>
      </trkpt>
      <trkpt lat="45.6058" lon="2.81999">
        <ele>1292.1</ele>
        <time>2021-08-25T13:31:01.000Z</time>
      </trkpt>
      <trkpt lat="45.60579" lon="2.8201">
        <ele>1291.3</ele>
        <time>2021-08-25T13:31:06.000Z</time>
      </trkpt>
      <trkpt lat="45.6058" lon="2.82022">
        <ele>1290.4</ele>
        <time>2021-08-25T13:31:12.000Z</time>
      </trkpt>
      <trkpt lat="45.60581" lon="2.82034">
        <ele>1289.5</ele>
        <time>2021-08-25T13:31:17.000Z</time>
      </trkpt>
      <trkpt lat="45.60581" lon="2.82043">
        <ele>1288.9</ele>
        <time>2021-08-25T13:31:22.000Z</time>
      </trkpt>
      <trkpt lat="45.60581" lon="2.82054">
        <ele>1288.1</ele>
        <time>2021-08-25T13:31:29.000Z</time>
      </trkpt>
      <trkpt lat="45.60586" lon="2.82061">
        <ele>1287.9</ele>
        <time>2021-08-25T13:31:39.000Z</time>
      </trkpt>
      <trkpt lat="45.60587" lon="2.82071">
        <ele>1287.3</ele>
        <time>2021-08-25T13:31:45.000Z</time>
      </trkpt>
      <trkpt lat="45.60586" lon="2.8208">
        <ele>1286.5</ele>
        <time>2021-08-25T13:31:51.000Z</time>
      </trkpt>
      <trkpt lat="45.60585" lon="2.82091">
        <ele>1285.7</ele>
        <time>2021-08-25T13:31:56.000Z</time>
      </trkpt>
      <trkpt lat="45.60586" lon="2.821">
        <ele>1285.3</ele>
        <time>2021-08-25T13:32:03.000Z</time>
      </trkpt>
      <trkpt lat="45.60586" lon="2.8211">
        <ele>1284.7</ele>
        <time>2021-08-25T13:32:08.000Z</time>
      </trkpt>
      <trkpt lat="45.60589" lon="2.82119">
        <ele>1284.5</ele>
        <time>2021-08-25T13:32:16.000Z</time>
      </trkpt>
      <trkpt lat="45.60595" lon="2.82123">
        <ele>1285</ele>
        <time>2021-08-25T13:32:23.000Z</time>
      </trkpt>
      <trkpt lat="45.60603" lon="2.82124">
        <ele>1285.9</ele>
        <time>2021-08-25T13:32:30.000Z</time>
      </trkpt>
      <trkpt lat="45.60609" lon="2.82132">
        <ele>1286.2</ele>
        <time>2021-08-25T13:32:36.000Z</time>
      </trkpt>
      <trkpt lat="45.60613" lon="2.82141">
        <ele>1286.2</ele>
        <time>2021-08-25T13:32:42.000Z</time>
      </trkpt>
      <trkpt lat="45.60616" lon="2.82149">
        <ele>1286.2</ele>
        <time>2021-08-25T13:32:53.000Z</time>
      </trkpt>
      <trkpt lat="45.60622" lon="2.82155">
        <ele>1286.7</ele>
        <time>2021-08-25T13:33:05.000Z</time>
      </trkpt>
      <trkpt lat="45.60618" lon="2.82146">
        <ele>1286.6</ele>
        <time>2021-08-25T13:33:23.000Z</time>
      </trkpt>
      <trkpt lat="45.60624" lon="2.82142">
        <ele>1287.6</ele>
        <time>2021-08-25T13:33:28.000Z</time>
      </trkpt>
      <trkpt lat="45.6063" lon="2.82144">
        <ele>1288.2</ele>
        <time>2021-08-25T13:33:35.000Z</time>
      </trkpt>
      <trkpt lat="45.6064" lon="2.8215">
        <ele>1289.2</ele>
        <time>2021-08-25T13:33:42.000Z</time>
      </trkpt>
      <trkpt lat="45.60643" lon="2.82173">
        <ele>1288.7</ele>
        <time>2021-08-25T13:33:48.000Z</time>
      </trkpt>
      <trkpt lat="45.60643" lon="2.82162">
        <ele>1289.1</ele>
        <time>2021-08-25T13:34:03.000Z</time>
      </trkpt>
      <trkpt lat="45.60637" lon="2.82159">
        <ele>1288.4</ele>
        <time>2021-08-25T13:34:08.000Z</time>
      </trkpt>
      <trkpt lat="45.60648" lon="2.82143">
        <ele>1290.5</ele>
        <time>2021-08-25T13:34:13.000Z</time>
      </trkpt>
      <trkpt lat="45.60657" lon="2.82124">
        <ele>1292.4</ele>
        <time>2021-08-25T13:34:18.000Z</time>
      </trkpt>
      <trkpt lat="45.60677" lon="2.82142">
        <ele>1293.5</ele>
        <time>2021-08-25T13:34:24.000Z</time>
      </trkpt>
      <trkpt lat="45.60684" lon="2.82152">
        <ele>1293.4</ele>
        <time>2021-08-25T13:34:29.000Z</time>
      </trkpt>
      <trkpt lat="45.60684" lon="2.82161">
        <ele>1293.1</ele>
        <time>2021-08-25T13:34:35.000Z</time>
      </trkpt>
      <trkpt lat="45.60688" lon="2.8217">
        <ele>1292.9</ele>
        <time>2021-08-25T13:34:40.000Z</time>
      </trkpt>
      <trkpt lat="45.60695" lon="2.82172">
        <ele>1293.1</ele>
        <time>2021-08-25T13:34:45.000Z</time>
      </trkpt>
      <trkpt lat="45.60709" lon="2.82177">
        <ele>1293.5</ele>
        <time>2021-08-25T13:34:50.000Z</time>
      </trkpt>
      <trkpt lat="45.6073" lon="2.82182">
        <ele>1294.1</ele>
        <time>2021-08-25T13:34:56.000Z</time>
      </trkpt>
      <trkpt lat="45.60738" lon="2.82187">
        <ele>1294.1</ele>
        <time>2021-08-25T13:35:01.000Z</time>
      </trkpt>
      <trkpt lat="45.60746" lon="2.82191">
        <ele>1294.1</ele>
        <time>2021-08-25T13:35:06.000Z</time>
      </trkpt>
      <trkpt lat="45.60755" lon="2.82199">
        <ele>1293.4</ele>
        <time>2021-08-25T13:35:12.000Z</time>
      </trkpt>
      <trkpt lat="45.60764" lon="2.82204">
        <ele>1292.6</ele>
        <time>2021-08-25T13:35:17.000Z</time>
      </trkpt>
      <trkpt lat="45.60772" lon="2.82207">
        <ele>1291.9</ele>
        <time>2021-08-25T13:35:22.000Z</time>
      </trkpt>
      <trkpt lat="45.60779" lon="2.82213">
        <ele>1291</ele>
        <time>2021-08-25T13:35:28.000Z</time>
      </trkpt>
      <trkpt lat="45.60787" lon="2.82216">
        <ele>1290.3</ele>
        <time>2021-08-25T13:35:33.000Z</time>
      </trkpt>
      <trkpt lat="45.60795" lon="2.82218">
        <ele>1289.7</ele>
        <time>2021-08-25T13:35:38.000Z</time>
      </trkpt>
      <trkpt lat="45.60803" lon="2.8222">
        <ele>1289</ele>
        <time>2021-08-25T13:35:44.000Z</time>
      </trkpt>
      <trkpt lat="45.6081" lon="2.82223">
        <ele>1288.3</ele>
        <time>2021-08-25T13:35:50.000Z</time>
      </trkpt>
      <trkpt lat="45.60818" lon="2.82228">
        <ele>1287.3</ele>
        <time>2021-08-25T13:35:56.000Z</time>
      </trkpt>
      <trkpt lat="45.60825" lon="2.82233">
        <ele>1286.4</ele>
        <time>2021-08-25T13:36:02.000Z</time>
      </trkpt>
      <trkpt lat="45.60836" lon="2.82236">
        <ele>1285.2</ele>
        <time>2021-08-25T13:36:08.000Z</time>
      </trkpt>
      <trkpt lat="45.60844" lon="2.82237">
        <ele>1284.2</ele>
        <time>2021-08-25T13:36:13.000Z</time>
      </trkpt>
      <trkpt lat="45.60852" lon="2.82239">
        <ele>1283.1</ele>
        <time>2021-08-25T13:36:18.000Z</time>
      </trkpt>
      <trkpt lat="45.60859" lon="2.82242">
        <ele>1282</ele>
        <time>2021-08-25T13:36:24.000Z</time>
      </trkpt>
      <trkpt lat="45.60867" lon="2.82245">
        <ele>1280.9</ele>
        <time>2021-08-25T13:36:29.000Z</time>
      </trkpt>
      <trkpt lat="45.60875" lon="2.82248">
        <ele>1279.7</ele>
        <time>2021-08-25T13:36:34.000Z</time>
      </trkpt>
      <trkpt lat="45.60884" lon="2.8225">
        <ele>1278.5</ele>
        <time>2021-08-25T13:36:40.000Z</time>
      </trkpt>
      <trkpt lat="45.6089" lon="2.82248">
        <ele>1278.1</ele>
        <time>2021-08-25T13:36:47.000Z</time>
      </trkpt>
      <trkpt lat="45.60897" lon="2.82244">
        <ele>1277.7</ele>
        <time>2021-08-25T13:36:52.000Z</time>
      </trkpt>
      <trkpt lat="45.60907" lon="2.82238">
        <ele>1277.1</ele>
        <time>2021-08-25T13:36:57.000Z</time>
      </trkpt>
      <trkpt lat="45.60914" lon="2.82234">
        <ele>1276.6</ele>
        <time>2021-08-25T13:37:11.000Z</time>
      </trkpt>
      <trkpt lat="45.60919" lon="2.8223">
        <ele>1276.6</ele>
        <time>2021-08-25T13:37:18.000Z</time>
      </trkpt>
      <trkpt lat="45.60926" lon="2.82228">
        <ele>1276.5</ele>
        <time>2021-08-25T13:37:24.000Z</time>
      </trkpt>
      <trkpt lat="45.60932" lon="2.82225">
        <ele>1276.6</ele>
        <time>2021-08-25T13:37:33.000Z</time>
      </trkpt>
      <trkpt lat="45.60939" lon="2.82222">
        <ele>1276.5</ele>
        <time>2021-08-25T13:37:49.000Z</time>
      </trkpt>
      <trkpt lat="45.60947" lon="2.82217">
        <ele>1276.6</ele>
        <time>2021-08-25T13:37:55.000Z</time>
      </trkpt>
      <trkpt lat="45.60954" lon="2.82215">
        <ele>1276.5</ele>
        <time>2021-08-25T13:38:00.000Z</time>
      </trkpt>
      <trkpt lat="45.60959" lon="2.82209">
        <ele>1276.7</ele>
        <time>2021-08-25T13:38:08.000Z</time>
      </trkpt>
      <trkpt lat="45.60965" lon="2.82214">
        <ele>1276.1</ele>
        <time>2021-08-25T13:38:39.000Z</time>
      </trkpt>
      <trkpt lat="45.60966" lon="2.82225">
        <ele>1275.4</ele>
        <time>2021-08-25T13:38:53.000Z</time>
      </trkpt>
      <trkpt lat="45.60973" lon="2.82228">
        <ele>1275</ele>
        <time>2021-08-25T13:39:01.000Z</time>
      </trkpt>
      <trkpt lat="45.6098" lon="2.82232">
        <ele>1274.5</ele>
        <time>2021-08-25T13:39:07.000Z</time>
      </trkpt>
      <trkpt lat="45.60986" lon="2.82236">
        <ele>1274.1</ele>
        <time>2021-08-25T13:39:12.000Z</time>
      </trkpt>
      <trkpt lat="45.60993" lon="2.82239">
        <ele>1273.7</ele>
        <time>2021-08-25T13:39:17.000Z</time>
      </trkpt>
      <trkpt lat="45.61" lon="2.82244">
        <ele>1273.3</ele>
        <time>2021-08-25T13:39:23.000Z</time>
      </trkpt>
      <trkpt lat="45.61007" lon="2.82244">
        <ele>1272.3</ele>
        <time>2021-08-25T13:39:43.000Z</time>
      </trkpt>
      <trkpt lat="45.61014" lon="2.82244">
        <ele>1271.3</ele>
        <time>2021-08-25T13:39:50.000Z</time>
      </trkpt>
      <trkpt lat="45.61023" lon="2.82243">
        <ele>1270.1</ele>
        <time>2021-08-25T13:39:56.000Z</time>
      </trkpt>
      <trkpt lat="45.61031" lon="2.82241">
        <ele>1269.1</ele>
        <time>2021-08-25T13:40:01.000Z</time>
      </trkpt>
      <trkpt lat="45.6104" lon="2.8224">
        <ele>1268</ele>
        <time>2021-08-25T13:40:06.000Z</time>
      </trkpt>
      <trkpt lat="45.61051" lon="2.82239">
        <ele>1266.5</ele>
        <time>2021-08-25T13:40:12.000Z</time>
      </trkpt>
      <trkpt lat="45.6106" lon="2.82237">
        <ele>1265.4</ele>
        <time>2021-08-25T13:40:17.000Z</time>
      </trkpt>
      <trkpt lat="45.61071" lon="2.82236">
        <ele>1264</ele>
        <time>2021-08-25T13:40:22.000Z</time>
      </trkpt>
      <trkpt lat="45.61084" lon="2.82234">
        <ele>1262.5</ele>
        <time>2021-08-25T13:40:28.000Z</time>
      </trkpt>
      <trkpt lat="45.61095" lon="2.82231">
        <ele>1262.5</ele>
        <time>2021-08-25T13:40:33.000Z</time>
      </trkpt>
      <trkpt lat="45.61106" lon="2.82227">
        <ele>1262.6</ele>
        <time>2021-08-25T13:40:38.000Z</time>
      </trkpt>
      <trkpt lat="45.61115" lon="2.82221">
        <ele>1262.7</ele>
        <time>2021-08-25T13:40:44.000Z</time>
      </trkpt>
      <trkpt lat="45.61123" lon="2.82214">
        <ele>1263</ele>
        <time>2021-08-25T13:40:49.000Z</time>
      </trkpt>
      <trkpt lat="45.61129" lon="2.8221">
        <ele>1263</ele>
        <time>2021-08-25T13:40:54.000Z</time>
      </trkpt>
      <trkpt lat="45.61137" lon="2.82207">
        <ele>1262.8</ele>
        <time>2021-08-25T13:41:00.000Z</time>
      </trkpt>
      <trkpt lat="45.61143" lon="2.82206">
        <ele>1262.6</ele>
        <time>2021-08-25T13:41:05.000Z</time>
      </trkpt>
      <trkpt lat="45.61151" lon="2.82204">
        <ele>1262.4</ele>
        <time>2021-08-25T13:41:10.000Z</time>
      </trkpt>
      <trkpt lat="45.61159" lon="2.82203">
        <ele>1262</ele>
        <time>2021-08-25T13:41:16.000Z</time>
      </trkpt>
      <trkpt lat="45.61166" lon="2.82205">
        <ele>1261.6</ele>
        <time>2021-08-25T13:41:21.000Z</time>
      </trkpt>
      <trkpt lat="45.61173" lon="2.82207">
        <ele>1261.1</ele>
        <time>2021-08-25T13:41:26.000Z</time>
      </trkpt>
      <trkpt lat="45.6118" lon="2.8221">
        <ele>1260.5</ele>
        <time>2021-08-25T13:41:32.000Z</time>
      </trkpt>
      <trkpt lat="45.61187" lon="2.82216">
        <ele>1259.7</ele>
        <time>2021-08-25T13:41:38.000Z</time>
      </trkpt>
      <trkpt lat="45.61198" lon="2.82219">
        <ele>1258.7</ele>
        <time>2021-08-25T13:41:44.000Z</time>
      </trkpt>
      <trkpt lat="45.61209" lon="2.82224">
        <ele>1257.5</ele>
        <time>2021-08-25T13:41:49.000Z</time>
      </trkpt>
      <trkpt lat="45.61216" lon="2.82229">
        <ele>1256.5</ele>
        <time>2021-08-25T13:41:54.000Z</time>
      </trkpt>
      <trkpt lat="45.61221" lon="2.82233">
        <ele>1255.7</ele>
        <time>2021-08-25T13:42:00.000Z</time>
      </trkpt>
      <trkpt lat="45.61223" lon="2.82243">
        <ele>1254.6</ele>
        <time>2021-08-25T13:42:11.000Z</time>
      </trkpt>
      <trkpt lat="45.61219" lon="2.82252">
        <ele>1254.2</ele>
        <time>2021-08-25T13:42:18.000Z</time>
      </trkpt>
      <trkpt lat="45.61218" lon="2.82263">
        <ele>1253.3</ele>
        <time>2021-08-25T13:43:12.000Z</time>
      </trkpt>
      <trkpt lat="45.61221" lon="2.82255">
        <ele>1253.7</ele>
        <time>2021-08-25T13:43:21.000Z</time>
      </trkpt>
      <trkpt lat="45.61227" lon="2.82248">
        <ele>1253.7</ele>
        <time>2021-08-25T13:43:27.000Z</time>
      </trkpt>
      <trkpt lat="45.61232" lon="2.82242">
        <ele>1253.8</ele>
        <time>2021-08-25T13:43:32.000Z</time>
      </trkpt>
      <trkpt lat="45.61237" lon="2.82235">
        <ele>1254</ele>
        <time>2021-08-25T13:43:38.000Z</time>
      </trkpt>
      <trkpt lat="45.61242" lon="2.82227">
        <ele>1254.4</ele>
        <time>2021-08-25T13:43:44.000Z</time>
      </trkpt>
      <trkpt lat="45.61248" lon="2.82222">
        <ele>1254.5</ele>
        <time>2021-08-25T13:43:55.000Z</time>
      </trkpt>
      <trkpt lat="45.61241" lon="2.82218">
        <ele>1255.5</ele>
        <time>2021-08-25T13:44:34.000Z</time>
      </trkpt>
      <trkpt lat="45.61246" lon="2.82211">
        <ele>1256</ele>
        <time>2021-08-25T13:44:47.000Z</time>
      </trkpt>
      <trkpt lat="45.61252" lon="2.82205">
        <ele>1256.3</ele>
        <time>2021-08-25T13:45:00.000Z</time>
      </trkpt>
      <trkpt lat="45.61258" lon="2.82202">
        <ele>1256.3</ele>
        <time>2021-08-25T13:45:11.000Z</time>
      </trkpt>
      <trkpt lat="45.61261" lon="2.82193">
        <ele>1257.1</ele>
        <time>2021-08-25T13:45:18.000Z</time>
      </trkpt>
      <trkpt lat="45.61264" lon="2.82183">
        <ele>1258.1</ele>
        <time>2021-08-25T13:45:25.000Z</time>
      </trkpt>
      <trkpt lat="45.61266" lon="2.82174">
        <ele>1259</ele>
        <time>2021-08-25T13:45:31.000Z</time>
      </trkpt>
      <trkpt lat="45.61265" lon="2.82163">
        <ele>1260.6</ele>
        <time>2021-08-25T13:45:37.000Z</time>
      </trkpt>
      <trkpt lat="45.61263" lon="2.82153">
        <ele>1262.4</ele>
        <time>2021-08-25T13:45:43.000Z</time>
      </trkpt>
      <trkpt lat="45.61261" lon="2.82144">
        <ele>1264.1</ele>
        <time>2021-08-25T13:45:49.000Z</time>
      </trkpt>
      <trkpt lat="45.61265" lon="2.82132">
        <ele>1266</ele>
        <time>2021-08-25T13:45:54.000Z</time>
      </trkpt>
      <trkpt lat="45.61269" lon="2.82123">
        <ele>1267.3</ele>
        <time>2021-08-25T13:46:00.000Z</time>
      </trkpt>
      <trkpt lat="45.61274" lon="2.82116">
        <ele>1268.3</ele>
        <time>2021-08-25T13:46:06.000Z</time>
      </trkpt>
      <trkpt lat="45.6128" lon="2.82107">
        <ele>1269.6</ele>
        <time>2021-08-25T13:46:12.000Z</time>
      </trkpt>
      <trkpt lat="45.61286" lon="2.82103">
        <ele>1270.1</ele>
        <time>2021-08-25T13:46:25.000Z</time>
      </trkpt>
      <trkpt lat="45.61286" lon="2.82093">
        <ele>1271.9</ele>
        <time>2021-08-25T13:46:51.000Z</time>
      </trkpt>
      <trkpt lat="45.61293" lon="2.8209">
        <ele>1272.2</ele>
        <time>2021-08-25T13:46:57.000Z</time>
      </trkpt>
      <trkpt lat="45.61302" lon="2.82088">
        <ele>1272.2</ele>
        <time>2021-08-25T13:47:02.000Z</time>
      </trkpt>
      <trkpt lat="45.61308" lon="2.82083">
        <ele>1273</ele>
        <time>2021-08-25T13:47:08.000Z</time>
      </trkpt>
      <trkpt lat="45.61315" lon="2.82092">
        <ele>1271</ele>
        <time>2021-08-25T13:47:23.000Z</time>
      </trkpt>
      <trkpt lat="45.61318" lon="2.82082">
        <ele>1272.8</ele>
        <time>2021-08-25T13:49:10.000Z</time>
      </trkpt>
      <trkpt lat="45.61319" lon="2.82073">
        <ele>1274.3</ele>
        <time>2021-08-25T13:49:18.000Z</time>
      </trkpt>
      <trkpt lat="45.61317" lon="2.82063">
        <ele>1276.1</ele>
        <time>2021-08-25T13:49:35.000Z</time>
      </trkpt>
      <trkpt lat="45.61319" lon="2.82054">
        <ele>1277.6</ele>
        <time>2021-08-25T13:49:44.000Z</time>
      </trkpt>
      <trkpt lat="45.61324" lon="2.82047">
        <ele>1278.7</ele>
        <time>2021-08-25T13:49:54.000Z</time>
      </trkpt>
      <trkpt lat="45.61328" lon="2.82039">
        <ele>1280.1</ele>
        <time>2021-08-25T13:50:07.000Z</time>
      </trkpt>
      <trkpt lat="45.61335" lon="2.82022">
        <ele>1282.9</ele>
        <time>2021-08-25T13:51:13.000Z</time>
      </trkpt>
      <trkpt lat="45.61338" lon="2.82014">
        <ele>1284</ele>
        <time>2021-08-25T13:51:25.000Z</time>
      </trkpt>
      <trkpt lat="45.6134" lon="2.82003">
        <ele>1285.8</ele>
        <time>2021-08-25T13:51:33.000Z</time>
      </trkpt>
      <trkpt lat="45.61345" lon="2.81995">
        <ele>1286.3</ele>
        <time>2021-08-25T13:52:09.000Z</time>
      </trkpt>
      <trkpt lat="45.61351" lon="2.81991">
        <ele>1286.1</ele>
        <time>2021-08-25T13:52:22.000Z</time>
      </trkpt>
      <trkpt lat="45.6136" lon="2.81981">
        <ele>1286.4</ele>
        <time>2021-08-25T13:52:29.000Z</time>
      </trkpt>
      <trkpt lat="45.61347" lon="2.81974">
        <ele>1288</ele>
        <time>2021-08-25T13:53:35.000Z</time>
      </trkpt>
      <trkpt lat="45.61337" lon="2.81974">
        <ele>1288.6</ele>
        <time>2021-08-25T13:54:05.000Z</time>
      </trkpt>
      <trkpt lat="45.61326" lon="2.81979">
        <ele>1288.6</ele>
        <time>2021-08-25T13:54:18.000Z</time>
      </trkpt>
      <trkpt lat="45.61316" lon="2.81975">
        <ele>1288.9</ele>
        <time>2021-08-25T13:55:14.000Z</time>
      </trkpt>
      <trkpt lat="45.61311" lon="2.81962">
        <ele>1290</ele>
        <time>2021-08-25T13:55:46.000Z</time>
      </trkpt>
      <trkpt lat="45.61313" lon="2.81953">
        <ele>1290.7</ele>
        <time>2021-08-25T13:56:23.000Z</time>
      </trkpt>
      <trkpt lat="45.6132" lon="2.81951">
        <ele>1290.7</ele>
        <time>2021-08-25T13:56:34.000Z</time>
      </trkpt>
      <trkpt lat="45.61327" lon="2.81948">
        <ele>1290.8</ele>
        <time>2021-08-25T13:56:42.000Z</time>
      </trkpt>
      <trkpt lat="45.61333" lon="2.81945">
        <ele>1291</ele>
        <time>2021-08-25T13:56:50.000Z</time>
      </trkpt>
      <trkpt lat="45.61342" lon="2.81943">
        <ele>1290.8</ele>
        <time>2021-08-25T13:56:56.000Z</time>
      </trkpt>
      <trkpt lat="45.6135" lon="2.81939">
        <ele>1291</ele>
        <time>2021-08-25T13:57:12.000Z</time>
      </trkpt>
      <trkpt lat="45.61352" lon="2.81929">
        <ele>1291.8</ele>
        <time>2021-08-25T13:57:37.000Z</time>
      </trkpt>
      <trkpt lat="45.61358" lon="2.81923">
        <ele>1292.4</ele>
        <time>2021-08-25T13:58:13.000Z</time>
      </trkpt>
      <trkpt lat="45.61363" lon="2.81917">
        <ele>1293</ele>
        <time>2021-08-25T13:58:39.000Z</time>
      </trkpt>
      <trkpt lat="45.6137" lon="2.81916">
        <ele>1293</ele>
        <time>2021-08-25T13:58:44.000Z</time>
      </trkpt>
      <trkpt lat="45.61376" lon="2.81915">
        <ele>1293.1</ele>
        <time>2021-08-25T13:58:52.000Z</time>
      </trkpt>
      <trkpt lat="45.61383" lon="2.81912">
        <ele>1293.3</ele>
        <time>2021-08-25T13:59:03.000Z</time>
      </trkpt>
      <trkpt lat="45.61389" lon="2.81907">
        <ele>1293.6</ele>
        <time>2021-08-25T13:59:13.000Z</time>
      </trkpt>
      <trkpt lat="45.61399" lon="2.81904">
        <ele>1293.8</ele>
        <time>2021-08-25T13:59:30.000Z</time>
      </trkpt>
      <trkpt lat="45.61406" lon="2.81901">
        <ele>1294.1</ele>
        <time>2021-08-25T13:59:36.000Z</time>
      </trkpt>
      <trkpt lat="45.61413" lon="2.81896">
        <ele>1294.5</ele>
        <time>2021-08-25T13:59:54.000Z</time>
      </trkpt>
      <trkpt lat="45.6142" lon="2.81891">
        <ele>1294.5</ele>
        <time>2021-08-25T14:00:03.000Z</time>
      </trkpt>
      <trkpt lat="45.61427" lon="2.81887">
        <ele>1294.2</ele>
        <time>2021-08-25T14:00:10.000Z</time>
      </trkpt>
      <trkpt lat="45.61432" lon="2.81881">
        <ele>1294.2</ele>
        <time>2021-08-25T14:00:18.000Z</time>
      </trkpt>
      <trkpt lat="45.61439" lon="2.81882">
        <ele>1293.5</ele>
        <time>2021-08-25T14:00:26.000Z</time>
      </trkpt>
      <trkpt lat="45.61446" lon="2.8188">
        <ele>1293</ele>
        <time>2021-08-25T14:00:32.000Z</time>
      </trkpt>
      <trkpt lat="45.61453" lon="2.81885">
        <ele>1291.9</ele>
        <time>2021-08-25T14:00:40.000Z</time>
      </trkpt>
      <trkpt lat="45.61459" lon="2.81885">
        <ele>1291.4</ele>
        <time>2021-08-25T14:00:45.000Z</time>
      </trkpt>
      <trkpt lat="45.61467" lon="2.81884">
        <ele>1290.7</ele>
        <time>2021-08-25T14:00:50.000Z</time>
      </trkpt>
      <trkpt lat="45.61475" lon="2.81881">
        <ele>1290.4</ele>
        <time>2021-08-25T14:00:56.000Z</time>
      </trkpt>
      <trkpt lat="45.61481" lon="2.81874">
        <ele>1290.7</ele>
        <time>2021-08-25T14:01:04.000Z</time>
      </trkpt>
      <trkpt lat="45.61488" lon="2.81873">
        <ele>1290.3</ele>
        <time>2021-08-25T14:01:09.000Z</time>
      </trkpt>
      <trkpt lat="45.61498" lon="2.8187">
        <ele>1289.9</ele>
        <time>2021-08-25T14:01:14.000Z</time>
      </trkpt>
      <trkpt lat="45.61509" lon="2.8187">
        <ele>1288.2</ele>
        <time>2021-08-25T14:01:20.000Z</time>
      </trkpt>
      <trkpt lat="45.61514" lon="2.81863">
        <ele>1288.4</ele>
        <time>2021-08-25T14:01:26.000Z</time>
      </trkpt>
      <trkpt lat="45.61519" lon="2.81857">
        <ele>1288.5</ele>
        <time>2021-08-25T14:01:37.000Z</time>
      </trkpt>
      <trkpt lat="45.61526" lon="2.81857">
        <ele>1287.4</ele>
        <time>2021-08-25T14:01:44.000Z</time>
      </trkpt>
      <trkpt lat="45.61533" lon="2.81851">
        <ele>1287.1</ele>
        <time>2021-08-25T14:02:22.000Z</time>
      </trkpt>
      <trkpt lat="45.61539" lon="2.81848">
        <ele>1286.6</ele>
        <time>2021-08-25T14:02:43.000Z</time>
      </trkpt>
      <trkpt lat="45.61545" lon="2.81843">
        <ele>1286.5</ele>
        <time>2021-08-25T14:03:02.000Z</time>
      </trkpt>
      <trkpt lat="45.6155" lon="2.81839">
        <ele>1286.3</ele>
        <time>2021-08-25T14:03:11.000Z</time>
      </trkpt>
      <trkpt lat="45.61556" lon="2.81832">
        <ele>1286.3</ele>
        <time>2021-08-25T14:03:20.000Z</time>
      </trkpt>
      <trkpt lat="45.61563" lon="2.81831">
        <ele>1285.3</ele>
        <time>2021-08-25T14:03:30.000Z</time>
      </trkpt>
      <trkpt lat="45.61571" lon="2.81832">
        <ele>1284</ele>
        <time>2021-08-25T14:03:36.000Z</time>
      </trkpt>
      <trkpt lat="45.61578" lon="2.81827">
        <ele>1283.3</ele>
        <time>2021-08-25T14:03:43.000Z</time>
      </trkpt>
      <trkpt lat="45.61584" lon="2.81823">
        <ele>1282.6</ele>
        <time>2021-08-25T14:03:51.000Z</time>
      </trkpt>
      <trkpt lat="45.6159" lon="2.81819">
        <ele>1281.2</ele>
        <time>2021-08-25T14:03:56.000Z</time>
      </trkpt>
      <trkpt lat="45.61599" lon="2.81814">
        <ele>1279.1</ele>
        <time>2021-08-25T14:04:05.000Z</time>
      </trkpt>
      <trkpt lat="45.61606" lon="2.81814">
        <ele>1277.2</ele>
        <time>2021-08-25T14:04:17.000Z</time>
      </trkpt>
      <trkpt lat="45.61613" lon="2.81813">
        <ele>1275.4</ele>
        <time>2021-08-25T14:04:23.000Z</time>
      </trkpt>
      <trkpt lat="45.61623" lon="2.81815">
        <ele>1272.5</ele>
        <time>2021-08-25T14:04:28.000Z</time>
      </trkpt>
      <trkpt lat="45.6163" lon="2.81818">
        <ele>1270.3</ele>
        <time>2021-08-25T14:04:54.000Z</time>
      </trkpt>
      <trkpt lat="45.61637" lon="2.81815">
        <ele>1268.7</ele>
        <time>2021-08-25T14:05:00.000Z</time>
      </trkpt>
      <trkpt lat="45.61641" lon="2.81807">
        <ele>1268.6</ele>
        <time>2021-08-25T14:05:05.000Z</time>
      </trkpt>
      <trkpt lat="45.61648" lon="2.81803">
        <ele>1267.3</ele>
        <time>2021-08-25T14:05:12.000Z</time>
      </trkpt>
      <trkpt lat="45.61654" lon="2.818">
        <ele>1266.1</ele>
        <time>2021-08-25T14:05:17.000Z</time>
      </trkpt>
      <trkpt lat="45.61659" lon="2.81795">
        <ele>1265.5</ele>
        <time>2021-08-25T14:05:26.000Z</time>
      </trkpt>
      <trkpt lat="45.61665" lon="2.81784">
        <ele>1265.5</ele>
        <time>2021-08-25T14:06:03.000Z</time>
      </trkpt>
      <trkpt lat="45.61668" lon="2.81775">
        <ele>1266.2</ele>
        <time>2021-08-25T14:06:25.000Z</time>
      </trkpt>
      <trkpt lat="45.6167" lon="2.81766">
        <ele>1267.1</ele>
        <time>2021-08-25T14:06:36.000Z</time>
      </trkpt>
      <trkpt lat="45.61675" lon="2.81759">
        <ele>1267.1</ele>
        <time>2021-08-25T14:06:44.000Z</time>
      </trkpt>
      <trkpt lat="45.61681" lon="2.81755">
        <ele>1266.6</ele>
        <time>2021-08-25T14:07:01.000Z</time>
      </trkpt>
      <trkpt lat="45.61686" lon="2.81749">
        <ele>1266.5</ele>
        <time>2021-08-25T14:07:22.000Z</time>
      </trkpt>
      <trkpt lat="45.61687" lon="2.81738">
        <ele>1268.3</ele>
        <time>2021-08-25T14:07:28.000Z</time>
      </trkpt>
      <trkpt lat="45.61699" lon="2.81723">
        <ele>1268.7</ele>
        <time>2021-08-25T14:07:41.000Z</time>
      </trkpt>
      <trkpt lat="45.61705" lon="2.81715">
        <ele>1269</ele>
        <time>2021-08-25T14:07:46.000Z</time>
      </trkpt>
      <trkpt lat="45.61705" lon="2.81701">
        <ele>1271.5</ele>
        <time>2021-08-25T14:07:52.000Z</time>
      </trkpt>
      <trkpt lat="45.61711" lon="2.81697">
        <ele>1271</ele>
        <time>2021-08-25T14:08:06.000Z</time>
      </trkpt>
      <trkpt lat="45.61708" lon="2.81687">
        <ele>1273.4</ele>
        <time>2021-08-25T14:08:48.000Z</time>
      </trkpt>
      <trkpt lat="45.61708" lon="2.81677">
        <ele>1275.2</ele>
        <time>2021-08-25T14:09:04.000Z</time>
      </trkpt>
      <trkpt lat="45.61705" lon="2.81667">
        <ele>1277.7</ele>
        <time>2021-08-25T14:09:12.000Z</time>
      </trkpt>
      <trkpt lat="45.617" lon="2.81659">
        <ele>1280</ele>
        <time>2021-08-25T14:09:49.000Z</time>
      </trkpt>
      <trkpt lat="45.61699" lon="2.81644">
        <ele>1282.4</ele>
        <time>2021-08-25T14:11:08.000Z</time>
      </trkpt>
      <trkpt lat="45.61695" lon="2.8163">
        <ele>1285.3</ele>
        <time>2021-08-25T14:11:54.000Z</time>
      </trkpt>
      <trkpt lat="45.61695" lon="2.81613">
        <ele>1287.8</ele>
        <time>2021-08-25T14:12:10.000Z</time>
      </trkpt>
      <trkpt lat="45.61704" lon="2.81601">
        <ele>1288</ele>
        <time>2021-08-25T14:13:27.000Z</time>
      </trkpt>
      <trkpt lat="45.61713" lon="2.81601">
        <ele>1286.4</ele>
        <time>2021-08-25T14:13:50.000Z</time>
      </trkpt>
      <trkpt lat="45.61699" lon="2.8159">
        <ele>1290.6</ele>
        <time>2021-08-25T14:14:39.000Z</time>
      </trkpt>
      <trkpt lat="45.61695" lon="2.8158">
        <ele>1292.6</ele>
        <time>2021-08-25T14:15:14.000Z</time>
      </trkpt>
      <trkpt lat="45.61702" lon="2.81579">
        <ele>1291.5</ele>
        <time>2021-08-25T14:15:58.000Z</time>
      </trkpt>
      <trkpt lat="45.61713" lon="2.81589">
        <ele>1288.3</ele>
        <time>2021-08-25T14:17:18.000Z</time>
      </trkpt>
      <trkpt lat="45.6171" lon="2.81597">
        <ele>1287.6</ele>
        <time>2021-08-25T14:17:30.000Z</time>
      </trkpt>
      <trkpt lat="45.61708" lon="2.81609">
        <ele>1286.1</ele>
        <time>2021-08-25T14:18:05.000Z</time>
      </trkpt>
      <trkpt lat="45.61709" lon="2.81619">
        <ele>1284.3</ele>
        <time>2021-08-25T14:18:27.000Z</time>
      </trkpt>
      <trkpt lat="45.61707" lon="2.81628">
        <ele>1283.3</ele>
        <time>2021-08-25T14:18:38.000Z</time>
      </trkpt>
      <trkpt lat="45.61708" lon="2.81637">
        <ele>1281.7</ele>
        <time>2021-08-25T14:18:44.000Z</time>
      </trkpt>
      <trkpt lat="45.61709" lon="2.81647">
        <ele>1279.9</ele>
        <time>2021-08-25T14:18:58.000Z</time>
      </trkpt>
      <trkpt lat="45.61705" lon="2.81654">
        <ele>1279.7</ele>
        <time>2021-08-25T14:19:07.000Z</time>
      </trkpt>
      <trkpt lat="45.61701" lon="2.81663">
        <ele>1279.1</ele>
        <time>2021-08-25T14:19:13.000Z</time>
      </trkpt>
      <trkpt lat="45.61698" lon="2.81673">
        <ele>1278.1</ele>
        <time>2021-08-25T14:19:19.000Z</time>
      </trkpt>
      <trkpt lat="45.61696" lon="2.81683">
        <ele>1276.7</ele>
        <time>2021-08-25T14:19:33.000Z</time>
      </trkpt>
      <trkpt lat="45.61696" lon="2.81693">
        <ele>1274.8</ele>
        <time>2021-08-25T14:19:42.000Z</time>
      </trkpt>
      <trkpt lat="45.61695" lon="2.81702">
        <ele>1273.4</ele>
        <time>2021-08-25T14:19:49.000Z</time>
      </trkpt>
      <trkpt lat="45.61693" lon="2.81711">
        <ele>1272.1</ele>
        <time>2021-08-25T14:19:55.000Z</time>
      </trkpt>
      <trkpt lat="45.61691" lon="2.8172">
        <ele>1270.9</ele>
        <time>2021-08-25T14:20:00.000Z</time>
      </trkpt>
      <trkpt lat="45.6169" lon="2.81733">
        <ele>1268.7</ele>
        <time>2021-08-25T14:20:05.000Z</time>
      </trkpt>
      <trkpt lat="45.61691" lon="2.81746">
        <ele>1266.1</ele>
        <time>2021-08-25T14:20:10.000Z</time>
      </trkpt>
      <trkpt lat="45.61692" lon="2.81755">
        <ele>1264.5</ele>
        <time>2021-08-25T14:20:17.000Z</time>
      </trkpt>
      <trkpt lat="45.61694" lon="2.81764">
        <ele>1263</ele>
        <time>2021-08-25T14:20:34.000Z</time>
      </trkpt>
      <trkpt lat="45.61696" lon="2.81775">
        <ele>1261.2</ele>
        <time>2021-08-25T14:20:45.000Z</time>
      </trkpt>
      <trkpt lat="45.61699" lon="2.81784">
        <ele>1259.5</ele>
        <time>2021-08-25T14:20:52.000Z</time>
      </trkpt>
      <trkpt lat="45.61705" lon="2.81783">
        <ele>1258.6</ele>
        <time>2021-08-25T14:20:58.000Z</time>
      </trkpt>
      <trkpt lat="45.61712" lon="2.81781">
        <ele>1257.6</ele>
        <time>2021-08-25T14:21:18.000Z</time>
      </trkpt>
      <trkpt lat="45.61718" lon="2.81784">
        <ele>1256.3</ele>
        <time>2021-08-25T14:21:27.000Z</time>
      </trkpt>
      <trkpt lat="45.61726" lon="2.81787">
        <ele>1254.5</ele>
        <time>2021-08-25T14:21:33.000Z</time>
      </trkpt>
      <trkpt lat="45.61734" lon="2.81786">
        <ele>1253.3</ele>
        <time>2021-08-25T14:21:39.000Z</time>
      </trkpt>
      <trkpt lat="45.61743" lon="2.81783">
        <ele>1252</ele>
        <time>2021-08-25T14:21:44.000Z</time>
      </trkpt>
      <trkpt lat="45.6175" lon="2.81783">
        <ele>1250.8</ele>
        <time>2021-08-25T14:21:52.000Z</time>
      </trkpt>
      <trkpt lat="45.61757" lon="2.81783">
        <ele>1250.8</ele>
        <time>2021-08-25T14:21:57.000Z</time>
      </trkpt>
      <trkpt lat="45.61765" lon="2.81787">
        <ele>1250.3</ele>
        <time>2021-08-25T14:22:02.000Z</time>
      </trkpt>
      <trkpt lat="45.61769" lon="2.81795">
        <ele>1249.6</ele>
        <time>2021-08-25T14:22:15.000Z</time>
      </trkpt>
      <trkpt lat="45.61778" lon="2.81797">
        <ele>1249.4</ele>
        <time>2021-08-25T14:22:20.000Z</time>
      </trkpt>
      <trkpt lat="45.61771" lon="2.81796">
        <ele>1249.5</ele>
        <time>2021-08-25T14:23:12.000Z</time>
      </trkpt>
      <trkpt lat="45.61777" lon="2.81802">
        <ele>1249</ele>
        <time>2021-08-25T14:23:52.000Z</time>
      </trkpt>
      <trkpt lat="45.6178" lon="2.8181">
        <ele>1248.3</ele>
        <time>2021-08-25T14:24:03.000Z</time>
      </trkpt>
      <trkpt lat="45.61787" lon="2.81811">
        <ele>1248.2</ele>
        <time>2021-08-25T14:24:16.000Z</time>
      </trkpt>
      <trkpt lat="45.61793" lon="2.81814">
        <ele>1248</ele>
        <time>2021-08-25T14:24:21.000Z</time>
      </trkpt>
      <trkpt lat="45.618" lon="2.81811">
        <ele>1248.3</ele>
        <time>2021-08-25T14:24:26.000Z</time>
      </trkpt>
      <trkpt lat="45.61807" lon="2.8181">
        <ele>1248.3</ele>
        <time>2021-08-25T14:24:38.000Z</time>
      </trkpt>
      <trkpt lat="45.61814" lon="2.81815">
        <ele>1248</ele>
        <time>2021-08-25T14:24:47.000Z</time>
      </trkpt>
      <trkpt lat="45.61819" lon="2.81821">
        <ele>1247.6</ele>
        <time>2021-08-25T14:25:01.000Z</time>
      </trkpt>
      <trkpt lat="45.61823" lon="2.81833">
        <ele>1246.9</ele>
        <time>2021-08-25T14:25:16.000Z</time>
      </trkpt>
      <trkpt lat="45.6183" lon="2.81835">
        <ele>1246.9</ele>
        <time>2021-08-25T14:25:21.000Z</time>
      </trkpt>
      <trkpt lat="45.6184" lon="2.81844">
        <ele>1247.1</ele>
        <time>2021-08-25T14:25:26.000Z</time>
      </trkpt>
      <trkpt lat="45.61843" lon="2.81852">
        <ele>1247</ele>
        <time>2021-08-25T14:25:36.000Z</time>
      </trkpt>
      <trkpt lat="45.61852" lon="2.8186">
        <ele>1247.4</ele>
        <time>2021-08-25T14:25:45.000Z</time>
      </trkpt>
      <trkpt lat="45.61863" lon="2.81865">
        <ele>1248.2</ele>
        <time>2021-08-25T14:25:50.000Z</time>
      </trkpt>
      <trkpt lat="45.61868" lon="2.81873">
        <ele>1248.4</ele>
        <time>2021-08-25T14:25:56.000Z</time>
      </trkpt>
      <trkpt lat="45.61874" lon="2.81877">
        <ele>1248.8</ele>
        <time>2021-08-25T14:26:05.000Z</time>
      </trkpt>
      <trkpt lat="45.61878" lon="2.81886">
        <ele>1248.9</ele>
        <time>2021-08-25T14:26:14.000Z</time>
      </trkpt>
      <trkpt lat="45.61877" lon="2.81895">
        <ele>1248.5</ele>
        <time>2021-08-25T14:26:27.000Z</time>
      </trkpt>
      <trkpt lat="45.6188" lon="2.81904">
        <ele>1248.5</ele>
        <time>2021-08-25T14:26:33.000Z</time>
      </trkpt>
      <trkpt lat="45.61879" lon="2.81913">
        <ele>1248.1</ele>
        <time>2021-08-25T14:26:40.000Z</time>
      </trkpt>
      <trkpt lat="45.61875" lon="2.81923">
        <ele>1247.4</ele>
        <time>2021-08-25T14:26:46.000Z</time>
      </trkpt>
      <trkpt lat="45.61875" lon="2.81933">
        <ele>1247.3</ele>
        <time>2021-08-25T14:26:53.000Z</time>
      </trkpt>
      <trkpt lat="45.61875" lon="2.81943">
        <ele>1247.2</ele>
        <time>2021-08-25T14:27:00.000Z</time>
      </trkpt>
      <trkpt lat="45.61875" lon="2.81954">
        <ele>1247.1</ele>
        <time>2021-08-25T14:27:07.000Z</time>
      </trkpt>
      <trkpt lat="45.61875" lon="2.81965">
        <ele>1246.9</ele>
        <time>2021-08-25T14:27:13.000Z</time>
      </trkpt>
      <trkpt lat="45.61877" lon="2.81975">
        <ele>1247</ele>
        <time>2021-08-25T14:27:18.000Z</time>
      </trkpt>
      <trkpt lat="45.6188" lon="2.81984">
        <ele>1247.1</ele>
        <time>2021-08-25T14:27:25.000Z</time>
      </trkpt>
      <trkpt lat="45.61881" lon="2.81993">
        <ele>1247.1</ele>
        <time>2021-08-25T14:27:30.000Z</time>
      </trkpt>
      <trkpt lat="45.61883" lon="2.82003">
        <ele>1247.2</ele>
        <time>2021-08-25T14:27:36.000Z</time>
      </trkpt>
      <trkpt lat="45.61883" lon="2.82013">
        <ele>1247.2</ele>
        <time>2021-08-25T14:27:43.000Z</time>
      </trkpt>
      <trkpt lat="45.61881" lon="2.82023">
        <ele>1247</ele>
        <time>2021-08-25T14:27:50.000Z</time>
      </trkpt>
      <trkpt lat="45.61877" lon="2.82036">
        <ele>1246.7</ele>
        <time>2021-08-25T14:27:56.000Z</time>
      </trkpt>
      <trkpt lat="45.61873" lon="2.82045">
        <ele>1246.3</ele>
        <time>2021-08-25T14:28:01.000Z</time>
      </trkpt>
      <trkpt lat="45.6187" lon="2.82057">
        <ele>1246.1</ele>
        <time>2021-08-25T14:28:07.000Z</time>
      </trkpt>
      <trkpt lat="45.61862" lon="2.82058">
        <ele>1245.4</ele>
        <time>2021-08-25T14:28:16.000Z</time>
      </trkpt>
      <trkpt lat="45.61855" lon="2.82059">
        <ele>1244.8</ele>
        <time>2021-08-25T14:28:23.000Z</time>
      </trkpt>
      <trkpt lat="45.61851" lon="2.82066">
        <ele>1244.5</ele>
        <time>2021-08-25T14:29:12.000Z</time>
      </trkpt>
      <trkpt lat="45.61846" lon="2.82076">
        <ele>1244.1</ele>
        <time>2021-08-25T14:29:48.000Z</time>
      </trkpt>
      <trkpt lat="45.61846" lon="2.82086">
        <ele>1244.1</ele>
        <time>2021-08-25T14:30:06.000Z</time>
      </trkpt>
      <trkpt lat="45.61847" lon="2.82095">
        <ele>1244.1</ele>
        <time>2021-08-25T14:30:15.000Z</time>
      </trkpt>
      <trkpt lat="45.61849" lon="2.82105">
        <ele>1244.3</ele>
        <time>2021-08-25T14:30:22.000Z</time>
      </trkpt>
      <trkpt lat="45.61851" lon="2.82114">
        <ele>1244.5</ele>
        <time>2021-08-25T14:30:34.000Z</time>
      </trkpt>
      <trkpt lat="45.61856" lon="2.82121">
        <ele>1244.9</ele>
        <time>2021-08-25T14:30:53.000Z</time>
      </trkpt>
      <trkpt lat="45.61857" lon="2.82131">
        <ele>1245</ele>
        <time>2021-08-25T14:31:02.000Z</time>
      </trkpt>
      <trkpt lat="45.61864" lon="2.82132">
        <ele>1245.6</ele>
        <time>2021-08-25T14:31:12.000Z</time>
      </trkpt>
      <trkpt lat="45.61871" lon="2.82134">
        <ele>1246.2</ele>
        <time>2021-08-25T14:31:18.000Z</time>
      </trkpt>
      <trkpt lat="45.61878" lon="2.82139">
        <ele>1246.8</ele>
        <time>2021-08-25T14:31:30.000Z</time>
      </trkpt>
      <trkpt lat="45.61885" lon="2.82137">
        <ele>1247.3</ele>
        <time>2021-08-25T14:31:40.000Z</time>
      </trkpt>
      <trkpt lat="45.61887" lon="2.82146">
        <ele>1247.5</ele>
        <time>2021-08-25T14:31:53.000Z</time>
      </trkpt>
      <trkpt lat="45.61887" lon="2.82155">
        <ele>1247.5</ele>
        <time>2021-08-25T14:32:01.000Z</time>
      </trkpt>
      <trkpt lat="45.61883" lon="2.82163">
        <ele>1247.2</ele>
        <time>2021-08-25T14:32:12.000Z</time>
      </trkpt>
      <trkpt lat="45.61884" lon="2.82173">
        <ele>1247.3</ele>
        <time>2021-08-25T14:32:22.000Z</time>
      </trkpt>
      <trkpt lat="45.61884" lon="2.82183">
        <ele>1247.5</ele>
        <time>2021-08-25T14:32:36.000Z</time>
      </trkpt>
      <trkpt lat="45.61886" lon="2.82193">
        <ele>1247.7</ele>
        <time>2021-08-25T14:32:48.000Z</time>
      </trkpt>
      <trkpt lat="45.61887" lon="2.82209">
        <ele>1248</ele>
        <time>2021-08-25T14:32:53.000Z</time>
      </trkpt>
      <trkpt lat="45.61884" lon="2.82219">
        <ele>1247.9</ele>
        <time>2021-08-25T14:32:58.000Z</time>
      </trkpt>
      <trkpt lat="45.61886" lon="2.82229">
        <ele>1248.2</ele>
        <time>2021-08-25T14:33:12.000Z</time>
      </trkpt>
      <trkpt lat="45.61885" lon="2.8224">
        <ele>1248.2</ele>
        <time>2021-08-25T14:33:34.000Z</time>
      </trkpt>
      <trkpt lat="45.61893" lon="2.82241">
        <ele>1248.9</ele>
        <time>2021-08-25T14:33:45.000Z</time>
      </trkpt>
      <trkpt lat="45.619" lon="2.82241">
        <ele>1249.5</ele>
        <time>2021-08-25T14:33:50.000Z</time>
      </trkpt>
      <trkpt lat="45.61908" lon="2.8224">
        <ele>1250.2</ele>
        <time>2021-08-25T14:33:56.000Z</time>
      </trkpt>
      <trkpt lat="45.61918" lon="2.82238">
        <ele>1250.9</ele>
        <time>2021-08-25T14:34:01.000Z</time>
      </trkpt>
      <trkpt lat="45.61924" lon="2.82234">
        <ele>1250.9</ele>
        <time>2021-08-25T14:34:06.000Z</time>
      </trkpt>
      <trkpt lat="45.61931" lon="2.82234">
        <ele>1250.9</ele>
        <time>2021-08-25T14:34:14.000Z</time>
      </trkpt>
      <trkpt lat="45.61938" lon="2.82234">
        <ele>1251</ele>
        <time>2021-08-25T14:34:21.000Z</time>
      </trkpt>
      <trkpt lat="45.61946" lon="2.82235">
        <ele>1251.1</ele>
        <time>2021-08-25T14:34:26.000Z</time>
      </trkpt>
      <trkpt lat="45.61953" lon="2.82233">
        <ele>1251.2</ele>
        <time>2021-08-25T14:34:33.000Z</time>
      </trkpt>
      <trkpt lat="45.61959" lon="2.82228">
        <ele>1251.3</ele>
        <time>2021-08-25T14:34:38.000Z</time>
      </trkpt>
      <trkpt lat="45.61966" lon="2.82217">
        <ele>1251.5</ele>
        <time>2021-08-25T14:34:44.000Z</time>
      </trkpt>
      <trkpt lat="45.61969" lon="2.82209">
        <ele>1251.7</ele>
        <time>2021-08-25T14:34:49.000Z</time>
      </trkpt>
      <trkpt lat="45.61972" lon="2.822">
        <ele>1252</ele>
        <time>2021-08-25T14:34:54.000Z</time>
      </trkpt>
      <trkpt lat="45.61976" lon="2.82188">
        <ele>1252.4</ele>
        <time>2021-08-25T14:35:11.000Z</time>
      </trkpt>
      <trkpt lat="45.61976" lon="2.82178">
        <ele>1252.6</ele>
        <time>2021-08-25T14:35:19.000Z</time>
      </trkpt>
      <trkpt lat="45.61976" lon="2.82168">
        <ele>1252.8</ele>
        <time>2021-08-25T14:35:25.000Z</time>
      </trkpt>
      <trkpt lat="45.61973" lon="2.82159">
        <ele>1253.1</ele>
        <time>2021-08-25T14:35:31.000Z</time>
      </trkpt>
      <trkpt lat="45.61974" lon="2.82149">
        <ele>1253.6</ele>
        <time>2021-08-25T14:35:38.000Z</time>
      </trkpt>
      <trkpt lat="45.6198" lon="2.82144">
        <ele>1254.3</ele>
        <time>2021-08-25T14:36:00.000Z</time>
      </trkpt>
      <trkpt lat="45.61986" lon="2.82143">
        <ele>1254.7</ele>
        <time>2021-08-25T14:36:10.000Z</time>
      </trkpt>
      <trkpt lat="45.61993" lon="2.82138">
        <ele>1255.6</ele>
        <time>2021-08-25T14:36:22.000Z</time>
      </trkpt>
      <trkpt lat="45.61999" lon="2.82135">
        <ele>1256.2</ele>
        <time>2021-08-25T14:36:33.000Z</time>
      </trkpt>
      <trkpt lat="45.62006" lon="2.82133">
        <ele>1256.9</ele>
        <time>2021-08-25T14:36:41.000Z</time>
      </trkpt>
      <trkpt lat="45.62013" lon="2.82132">
        <ele>1257.5</ele>
        <time>2021-08-25T14:36:46.000Z</time>
      </trkpt>
      <trkpt lat="45.6202" lon="2.82123">
        <ele>1258.5</ele>
        <time>2021-08-25T14:36:52.000Z</time>
      </trkpt>
      <trkpt lat="45.62026" lon="2.8212">
        <ele>1259.1</ele>
        <time>2021-08-25T14:37:02.000Z</time>
      </trkpt>
      <trkpt lat="45.62032" lon="2.82116">
        <ele>1259.6</ele>
        <time>2021-08-25T14:37:10.000Z</time>
      </trkpt>
      <trkpt lat="45.62039" lon="2.82116">
        <ele>1260.1</ele>
        <time>2021-08-25T14:37:19.000Z</time>
      </trkpt>
      <trkpt lat="45.62046" lon="2.82113">
        <ele>1260.5</ele>
        <time>2021-08-25T14:37:27.000Z</time>
      </trkpt>
      <trkpt lat="45.6205" lon="2.82105">
        <ele>1260.9</ele>
        <time>2021-08-25T14:37:36.000Z</time>
      </trkpt>
      <trkpt lat="45.62052" lon="2.82095">
        <ele>1261.1</ele>
        <time>2021-08-25T14:37:50.000Z</time>
      </trkpt>
      <trkpt lat="45.62054" lon="2.82082">
        <ele>1261.4</ele>
        <time>2021-08-25T14:37:56.000Z</time>
      </trkpt>
      <trkpt lat="45.62059" lon="2.82075">
        <ele>1262.3</ele>
        <time>2021-08-25T14:38:04.000Z</time>
      </trkpt>
      <trkpt lat="45.62066" lon="2.82074">
        <ele>1262.6</ele>
        <time>2021-08-25T14:38:11.000Z</time>
      </trkpt>
      <trkpt lat="45.62073" lon="2.82072">
        <ele>1263.1</ele>
        <time>2021-08-25T14:38:17.000Z</time>
      </trkpt>
      <trkpt lat="45.6208" lon="2.82072">
        <ele>1263.4</ele>
        <time>2021-08-25T14:38:24.000Z</time>
      </trkpt>
      <trkpt lat="45.62086" lon="2.82075">
        <ele>1263.2</ele>
        <time>2021-08-25T14:38:31.000Z</time>
      </trkpt>
      <trkpt lat="45.62092" lon="2.82079">
        <ele>1263</ele>
        <time>2021-08-25T14:38:41.000Z</time>
      </trkpt>
      <trkpt lat="45.62099" lon="2.82081">
        <ele>1263</ele>
        <time>2021-08-25T14:38:46.000Z</time>
      </trkpt>
      <trkpt lat="45.62107" lon="2.82081">
        <ele>1263.4</ele>
        <time>2021-08-25T14:38:59.000Z</time>
      </trkpt>
      <trkpt lat="45.62113" lon="2.82084">
        <ele>1263.5</ele>
        <time>2021-08-25T14:39:05.000Z</time>
      </trkpt>
      <trkpt lat="45.6212" lon="2.82087">
        <ele>1264</ele>
        <time>2021-08-25T14:39:12.000Z</time>
      </trkpt>
      <trkpt lat="45.62127" lon="2.82087">
        <ele>1264.3</ele>
        <time>2021-08-25T14:39:18.000Z</time>
      </trkpt>
      <trkpt lat="45.62132" lon="2.82093">
        <ele>1265</ele>
        <time>2021-08-25T14:39:27.000Z</time>
      </trkpt>
      <trkpt lat="45.62133" lon="2.82103">
        <ele>1265.8</ele>
        <time>2021-08-25T14:39:35.000Z</time>
      </trkpt>
      <trkpt lat="45.62128" lon="2.82111">
        <ele>1266.1</ele>
        <time>2021-08-25T14:39:40.000Z</time>
      </trkpt>
      <trkpt lat="45.62128" lon="2.8212">
        <ele>1266.7</ele>
        <time>2021-08-25T14:39:48.000Z</time>
      </trkpt>
      <trkpt lat="45.62127" lon="2.8213">
        <ele>1267.3</ele>
        <time>2021-08-25T14:39:57.000Z</time>
      </trkpt>
      <trkpt lat="45.62129" lon="2.82142">
        <ele>1268.3</ele>
        <time>2021-08-25T14:41:13.000Z</time>
      </trkpt>
      <trkpt lat="45.6213" lon="2.82152">
        <ele>1269.1</ele>
        <time>2021-08-25T14:41:20.000Z</time>
      </trkpt>
      <trkpt lat="45.62132" lon="2.82161">
        <ele>1270</ele>
        <time>2021-08-25T14:41:26.000Z</time>
      </trkpt>
      <trkpt lat="45.62136" lon="2.82169">
        <ele>1271.1</ele>
        <time>2021-08-25T14:41:34.000Z</time>
      </trkpt>
      <trkpt lat="45.6214" lon="2.82176">
        <ele>1272.2</ele>
        <time>2021-08-25T14:41:41.000Z</time>
      </trkpt>
      <trkpt lat="45.62146" lon="2.82182">
        <ele>1273.5</ele>
        <time>2021-08-25T14:41:49.000Z</time>
      </trkpt>
      <trkpt lat="45.62152" lon="2.82186">
        <ele>1274.6</ele>
        <time>2021-08-25T14:41:55.000Z</time>
      </trkpt>
      <trkpt lat="45.62158" lon="2.8219">
        <ele>1275.8</ele>
        <time>2021-08-25T14:42:00.000Z</time>
      </trkpt>
      <trkpt lat="45.62165" lon="2.82194">
        <ele>1277.1</ele>
        <time>2021-08-25T14:42:06.000Z</time>
      </trkpt>
      <trkpt lat="45.62171" lon="2.822">
        <ele>1278</ele>
        <time>2021-08-25T14:42:15.000Z</time>
      </trkpt>
      <trkpt lat="45.62175" lon="2.82207">
        <ele>1278.8</ele>
        <time>2021-08-25T14:42:23.000Z</time>
      </trkpt>
      <trkpt lat="45.62179" lon="2.82216">
        <ele>1279.8</ele>
        <time>2021-08-25T14:42:28.000Z</time>
      </trkpt>
      <trkpt lat="45.62183" lon="2.82224">
        <ele>1280.7</ele>
        <time>2021-08-25T14:42:34.000Z</time>
      </trkpt>
      <trkpt lat="45.62188" lon="2.82232">
        <ele>1281.8</ele>
        <time>2021-08-25T14:42:40.000Z</time>
      </trkpt>
      <trkpt lat="45.6219" lon="2.82241">
        <ele>1282.8</ele>
        <time>2021-08-25T14:42:52.000Z</time>
      </trkpt>
      <trkpt lat="45.62185" lon="2.82249">
        <ele>1283.2</ele>
        <time>2021-08-25T14:42:59.000Z</time>
      </trkpt>
      <trkpt lat="45.62182" lon="2.82257">
        <ele>1283.8</ele>
        <time>2021-08-25T14:43:07.000Z</time>
      </trkpt>
      <trkpt lat="45.6219" lon="2.82268">
        <ele>1285.4</ele>
        <time>2021-08-25T14:43:24.000Z</time>
      </trkpt>
      <trkpt lat="45.62196" lon="2.82272">
        <ele>1286.3</ele>
        <time>2021-08-25T14:43:30.000Z</time>
      </trkpt>
      <trkpt lat="45.62195" lon="2.82281">
        <ele>1287.1</ele>
        <time>2021-08-25T14:44:18.000Z</time>
      </trkpt>
      <trkpt lat="45.6219" lon="2.82289">
        <ele>1287.5</ele>
        <time>2021-08-25T14:44:24.000Z</time>
      </trkpt>
      <trkpt lat="45.62185" lon="2.82299">
        <ele>1288</ele>
        <time>2021-08-25T14:44:29.000Z</time>
      </trkpt>
      <trkpt lat="45.62184" lon="2.82309">
        <ele>1288.8</ele>
        <time>2021-08-25T14:44:37.000Z</time>
      </trkpt>
      <trkpt lat="45.62179" lon="2.82319">
        <ele>1289.2</ele>
        <time>2021-08-25T14:44:52.000Z</time>
      </trkpt>
      <trkpt lat="45.62175" lon="2.82328">
        <ele>1289.5</ele>
        <time>2021-08-25T14:44:57.000Z</time>
      </trkpt>
      <trkpt lat="45.62173" lon="2.82337">
        <ele>1290.2</ele>
        <time>2021-08-25T14:45:08.000Z</time>
      </trkpt>
      <trkpt lat="45.62168" lon="2.82345">
        <ele>1290.6</ele>
        <time>2021-08-25T14:45:24.000Z</time>
      </trkpt>
      <trkpt lat="45.62165" lon="2.82353">
        <ele>1291.1</ele>
        <time>2021-08-25T14:45:36.000Z</time>
      </trkpt>
      <trkpt lat="45.62162" lon="2.82362">
        <ele>1291.7</ele>
        <time>2021-08-25T14:45:47.000Z</time>
      </trkpt>
      <trkpt lat="45.62159" lon="2.8237">
        <ele>1292.2</ele>
        <time>2021-08-25T14:45:58.000Z</time>
      </trkpt>
      <trkpt lat="45.62156" lon="2.82379">
        <ele>1292.7</ele>
        <time>2021-08-25T14:46:09.000Z</time>
      </trkpt>
      <trkpt lat="45.62154" lon="2.82388">
        <ele>1293.4</ele>
        <time>2021-08-25T14:46:17.000Z</time>
      </trkpt>
      <trkpt lat="45.62152" lon="2.82396">
        <ele>1294</ele>
        <time>2021-08-25T14:46:26.000Z</time>
      </trkpt>
      <trkpt lat="45.62148" lon="2.82408">
        <ele>1294.7</ele>
        <time>2021-08-25T14:46:35.000Z</time>
      </trkpt>
      <trkpt lat="45.62148" lon="2.82418">
        <ele>1295.8</ele>
        <time>2021-08-25T14:46:40.000Z</time>
      </trkpt>
      <trkpt lat="45.62146" lon="2.82429">
        <ele>1296.9</ele>
        <time>2021-08-25T14:47:15.000Z</time>
      </trkpt>
      <trkpt lat="45.62144" lon="2.82438">
        <ele>1297.7</ele>
        <time>2021-08-25T14:47:31.000Z</time>
      </trkpt>
      <trkpt lat="45.62141" lon="2.82459">
        <ele>1300</ele>
        <time>2021-08-25T14:47:55.000Z</time>
      </trkpt>
      <trkpt lat="45.6214" lon="2.82469">
        <ele>1301.1</ele>
        <time>2021-08-25T14:48:11.000Z</time>
      </trkpt>
      <trkpt lat="45.6214" lon="2.82479">
        <ele>1302.4</ele>
        <time>2021-08-25T14:48:18.000Z</time>
      </trkpt>
      <trkpt lat="45.62138" lon="2.82489">
        <ele>1303.4</ele>
        <time>2021-08-25T14:48:26.000Z</time>
      </trkpt>
      <trkpt lat="45.6213" lon="2.82498">
        <ele>1303.1</ele>
        <time>2021-08-25T14:48:42.000Z</time>
      </trkpt>
      <trkpt lat="45.62127" lon="2.82507">
        <ele>1304.5</ele>
        <time>2021-08-25T14:48:54.000Z</time>
      </trkpt>
      <trkpt lat="45.62125" lon="2.82516">
        <ele>1306.2</ele>
        <time>2021-08-25T14:49:08.000Z</time>
      </trkpt>
      <trkpt lat="45.6212" lon="2.82522">
        <ele>1306.8</ele>
        <time>2021-08-25T14:49:23.000Z</time>
      </trkpt>
      <trkpt lat="45.62115" lon="2.8253">
        <ele>1307.8</ele>
        <time>2021-08-25T14:49:28.000Z</time>
      </trkpt>
      <trkpt lat="45.62117" lon="2.82543">
        <ele>1311.3</ele>
        <time>2021-08-25T14:49:34.000Z</time>
      </trkpt>
      <trkpt lat="45.6212" lon="2.82554">
        <ele>1314.4</ele>
        <time>2021-08-25T14:49:41.000Z</time>
      </trkpt>
      <trkpt lat="45.62118" lon="2.82567">
        <ele>1317.1</ele>
        <time>2021-08-25T14:49:46.000Z</time>
      </trkpt>
      <trkpt lat="45.62111" lon="2.82573">
        <ele>1317.5</ele>
        <time>2021-08-25T14:49:57.000Z</time>
      </trkpt>
      <trkpt lat="45.62109" lon="2.82588">
        <ele>1320.7</ele>
        <time>2021-08-25T14:50:31.000Z</time>
      </trkpt>
      <trkpt lat="45.62109" lon="2.82601">
        <ele>1323.6</ele>
        <time>2021-08-25T14:50:44.000Z</time>
      </trkpt>
      <trkpt lat="45.62106" lon="2.82611">
        <ele>1325.5</ele>
        <time>2021-08-25T14:51:02.000Z</time>
      </trkpt>
      <trkpt lat="45.62101" lon="2.82623">
        <ele>1327.6</ele>
        <time>2021-08-25T14:51:31.000Z</time>
      </trkpt>
      <trkpt lat="45.62101" lon="2.82633">
        <ele>1329.8</ele>
        <time>2021-08-25T14:51:46.000Z</time>
      </trkpt>
      <trkpt lat="45.621" lon="2.82643">
        <ele>1332</ele>
        <time>2021-08-25T14:51:56.000Z</time>
      </trkpt>
      <trkpt lat="45.62091" lon="2.82651">
        <ele>1333</ele>
        <time>2021-08-25T14:52:08.000Z</time>
      </trkpt>
      <trkpt lat="45.62084" lon="2.82654">
        <ele>1333</ele>
        <time>2021-08-25T14:52:18.000Z</time>
      </trkpt>
      <trkpt lat="45.62078" lon="2.8266">
        <ele>1333.3</ele>
        <time>2021-08-25T14:52:28.000Z</time>
      </trkpt>
      <trkpt lat="45.62075" lon="2.82668">
        <ele>1334.4</ele>
        <time>2021-08-25T14:52:42.000Z</time>
      </trkpt>
      <trkpt lat="45.6207" lon="2.82676">
        <ele>1334.4</ele>
        <time>2021-08-25T14:52:51.000Z</time>
      </trkpt>
      <trkpt lat="45.62069" lon="2.82685">
        <ele>1335.4</ele>
        <time>2021-08-25T14:52:59.000Z</time>
      </trkpt>
      <trkpt lat="45.62068" lon="2.82695">
        <ele>1336.6</ele>
        <time>2021-08-25T14:53:12.000Z</time>
      </trkpt>
      <trkpt lat="45.62072" lon="2.82703">
        <ele>1338.5</ele>
        <time>2021-08-25T14:53:25.000Z</time>
      </trkpt>
      <trkpt lat="45.62071" lon="2.82712">
        <ele>1339.5</ele>
        <time>2021-08-25T14:53:31.000Z</time>
      </trkpt>
      <trkpt lat="45.62069" lon="2.82722">
        <ele>1340.4</ele>
        <time>2021-08-25T14:53:37.000Z</time>
      </trkpt>
      <trkpt lat="45.62066" lon="2.82734">
        <ele>1341.5</ele>
        <time>2021-08-25T14:54:04.000Z</time>
      </trkpt>
      <trkpt lat="45.62063" lon="2.82744">
        <ele>1342.3</ele>
        <time>2021-08-25T14:54:10.000Z</time>
      </trkpt>
      <trkpt lat="45.62062" lon="2.82753">
        <ele>1343</ele>
        <time>2021-08-25T14:54:16.000Z</time>
      </trkpt>
      <trkpt lat="45.62059" lon="2.82762">
        <ele>1342.8</ele>
        <time>2021-08-25T14:54:21.000Z</time>
      </trkpt>
      <trkpt lat="45.62059" lon="2.82772">
        <ele>1343.2</ele>
        <time>2021-08-25T14:54:28.000Z</time>
      </trkpt>
      <trkpt lat="45.62055" lon="2.8278">
        <ele>1342.8</ele>
        <time>2021-08-25T14:54:33.000Z</time>
      </trkpt>
      <trkpt lat="45.62052" lon="2.82789">
        <ele>1342.6</ele>
        <time>2021-08-25T14:54:38.000Z</time>
      </trkpt>
      <trkpt lat="45.62053" lon="2.82798">
        <ele>1343.2</ele>
        <time>2021-08-25T14:54:48.000Z</time>
      </trkpt>
      <trkpt lat="45.62054" lon="2.82812">
        <ele>1343.9</ele>
        <time>2021-08-25T14:55:59.000Z</time>
      </trkpt>
      <trkpt lat="45.62061" lon="2.82815">
        <ele>1345.1</ele>
        <time>2021-08-25T14:56:15.000Z</time>
      </trkpt>
      <trkpt lat="45.62066" lon="2.82819">
        <ele>1346</ele>
        <time>2021-08-25T14:56:32.000Z</time>
      </trkpt>
      <trkpt lat="45.62071" lon="2.82826">
        <ele>1347</ele>
        <time>2021-08-25T14:56:49.000Z</time>
      </trkpt>
      <trkpt lat="45.62075" lon="2.82834">
        <ele>1347.8</ele>
        <time>2021-08-25T14:57:13.000Z</time>
      </trkpt>
      <trkpt lat="45.62081" lon="2.82845">
        <ele>1349.1</ele>
        <time>2021-08-25T14:58:21.000Z</time>
      </trkpt>
      <trkpt lat="45.62079" lon="2.82854">
        <ele>1349.3</ele>
        <time>2021-08-25T14:58:36.000Z</time>
      </trkpt>
      <trkpt lat="45.62081" lon="2.82863">
        <ele>1349.9</ele>
        <time>2021-08-25T14:58:57.000Z</time>
      </trkpt>
      <trkpt lat="45.6208" lon="2.82873">
        <ele>1350.2</ele>
        <time>2021-08-25T14:59:15.000Z</time>
      </trkpt>
      <trkpt lat="45.62081" lon="2.82883">
        <ele>1350.7</ele>
        <time>2021-08-25T14:59:27.000Z</time>
      </trkpt>
      <trkpt lat="45.62082" lon="2.82896">
        <ele>1351.2</ele>
        <time>2021-08-25T14:59:55.000Z</time>
      </trkpt>
      <trkpt lat="45.62083" lon="2.82907">
        <ele>1351.6</ele>
        <time>2021-08-25T15:00:08.000Z</time>
      </trkpt>
      <trkpt lat="45.62085" lon="2.82917">
        <ele>1352.3</ele>
        <time>2021-08-25T15:00:17.000Z</time>
      </trkpt>
      <trkpt lat="45.62086" lon="2.82926">
        <ele>1354.1</ele>
        <time>2021-08-25T15:00:23.000Z</time>
      </trkpt>
      <trkpt lat="45.6209" lon="2.82934">
        <ele>1356</ele>
        <time>2021-08-25T15:00:33.000Z</time>
      </trkpt>
      <trkpt lat="45.62092" lon="2.82943">
        <ele>1357.9</ele>
        <time>2021-08-25T15:00:45.000Z</time>
      </trkpt>
      <trkpt lat="45.62092" lon="2.82953">
        <ele>1359.7</ele>
        <time>2021-08-25T15:00:52.000Z</time>
      </trkpt>
      <trkpt lat="45.62092" lon="2.82966">
        <ele>1362.1</ele>
        <time>2021-08-25T15:00:58.000Z</time>
      </trkpt>
      <trkpt lat="45.62096" lon="2.82975">
        <ele>1364</ele>
        <time>2021-08-25T15:01:04.000Z</time>
      </trkpt>
      <trkpt lat="45.62101" lon="2.82987">
        <ele>1366.4</ele>
        <time>2021-08-25T15:01:31.000Z</time>
      </trkpt>
      <trkpt lat="45.62106" lon="2.82993">
        <ele>1367.6</ele>
        <time>2021-08-25T15:02:10.000Z</time>
      </trkpt>
      <trkpt lat="45.62109" lon="2.83002">
        <ele>1369.2</ele>
        <time>2021-08-25T15:02:25.000Z</time>
      </trkpt>
      <trkpt lat="45.62113" lon="2.8301">
        <ele>1370.6</ele>
        <time>2021-08-25T15:02:38.000Z</time>
      </trkpt>
      <trkpt lat="45.62118" lon="2.83017">
        <ele>1371.8</ele>
        <time>2021-08-25T15:03:05.000Z</time>
      </trkpt>
      <trkpt lat="45.62124" lon="2.83022">
        <ele>1372.6</ele>
        <time>2021-08-25T15:03:17.000Z</time>
      </trkpt>
      <trkpt lat="45.62127" lon="2.83031">
        <ele>1374</ele>
        <time>2021-08-25T15:03:28.000Z</time>
      </trkpt>
      <trkpt lat="45.6213" lon="2.83039">
        <ele>1375.2</ele>
        <time>2021-08-25T15:03:41.000Z</time>
      </trkpt>
      <trkpt lat="45.62134" lon="2.83048">
        <ele>1376.5</ele>
        <time>2021-08-25T15:03:56.000Z</time>
      </trkpt>
      <trkpt lat="45.62136" lon="2.83057">
        <ele>1377.7</ele>
        <time>2021-08-25T15:04:04.000Z</time>
      </trkpt>
      <trkpt lat="45.62139" lon="2.83066">
        <ele>1379</ele>
        <time>2021-08-25T15:04:10.000Z</time>
      </trkpt>
      <trkpt lat="45.62143" lon="2.83078">
        <ele>1380.6</ele>
        <time>2021-08-25T15:04:16.000Z</time>
      </trkpt>
      <trkpt lat="45.62148" lon="2.83086">
        <ele>1381.5</ele>
        <time>2021-08-25T15:04:22.000Z</time>
      </trkpt>
      <trkpt lat="45.62152" lon="2.83093">
        <ele>1382</ele>
        <time>2021-08-25T15:04:29.000Z</time>
      </trkpt>
      <trkpt lat="45.62166" lon="2.83104">
        <ele>1382.7</ele>
        <time>2021-08-25T15:04:34.000Z</time>
      </trkpt>
      <trkpt lat="45.62175" lon="2.83107">
        <ele>1383.8</ele>
        <time>2021-08-25T15:04:40.000Z</time>
      </trkpt>
      <trkpt lat="45.62179" lon="2.83116">
        <ele>1385.1</ele>
        <time>2021-08-25T15:04:58.000Z</time>
      </trkpt>
      <trkpt lat="45.62185" lon="2.83118">
        <ele>1385.9</ele>
        <time>2021-08-25T15:05:09.000Z</time>
      </trkpt>
      <trkpt lat="45.62191" lon="2.83124">
        <ele>1387.2</ele>
        <time>2021-08-25T15:05:16.000Z</time>
      </trkpt>
      <trkpt lat="45.62198" lon="2.83125">
        <ele>1388.1</ele>
        <time>2021-08-25T15:05:26.000Z</time>
      </trkpt>
      <trkpt lat="45.62204" lon="2.83123">
        <ele>1388.5</ele>
        <time>2021-08-25T15:05:33.000Z</time>
      </trkpt>
      <trkpt lat="45.62211" lon="2.83122">
        <ele>1389.2</ele>
        <time>2021-08-25T15:05:40.000Z</time>
      </trkpt>
      <trkpt lat="45.62218" lon="2.83122">
        <ele>1390</ele>
        <time>2021-08-25T15:05:47.000Z</time>
      </trkpt>
      <trkpt lat="45.62225" lon="2.8312">
        <ele>1390.5</ele>
        <time>2021-08-25T15:05:54.000Z</time>
      </trkpt>
      <trkpt lat="45.62231" lon="2.83118">
        <ele>1390.9</ele>
        <time>2021-08-25T15:06:00.000Z</time>
      </trkpt>
      <trkpt lat="45.62238" lon="2.83115">
        <ele>1391.3</ele>
        <time>2021-08-25T15:06:07.000Z</time>
      </trkpt>
      <trkpt lat="45.62245" lon="2.83116">
        <ele>1392.2</ele>
        <time>2021-08-25T15:06:12.000Z</time>
      </trkpt>
      <trkpt lat="45.6225" lon="2.83107">
        <ele>1391.4</ele>
        <time>2021-08-25T15:06:18.000Z</time>
      </trkpt>
      <trkpt lat="45.62252" lon="2.83098">
        <ele>1390.4</ele>
        <time>2021-08-25T15:06:25.000Z</time>
      </trkpt>
      <trkpt lat="45.62256" lon="2.83091">
        <ele>1390</ele>
        <time>2021-08-25T15:06:58.000Z</time>
      </trkpt>
      <trkpt lat="45.62264" lon="2.83092">
        <ele>1391.3</ele>
        <time>2021-08-25T15:07:05.000Z</time>
      </trkpt>
      <trkpt lat="45.62271" lon="2.83092">
        <ele>1392.3</ele>
        <time>2021-08-25T15:07:11.000Z</time>
      </trkpt>
      <trkpt lat="45.62278" lon="2.8309">
        <ele>1393</ele>
        <time>2021-08-25T15:07:17.000Z</time>
      </trkpt>
      <trkpt lat="45.62284" lon="2.83088">
        <ele>1393.6</ele>
        <time>2021-08-25T15:07:22.000Z</time>
      </trkpt>
      <trkpt lat="45.62291" lon="2.83084">
        <ele>1394</ele>
        <time>2021-08-25T15:07:28.000Z</time>
      </trkpt>
      <trkpt lat="45.62297" lon="2.8308">
        <ele>1394.5</ele>
        <time>2021-08-25T15:07:36.000Z</time>
      </trkpt>
      <trkpt lat="45.62304" lon="2.83079">
        <ele>1395.4</ele>
        <time>2021-08-25T15:07:43.000Z</time>
      </trkpt>
      <trkpt lat="45.62311" lon="2.83082">
        <ele>1396.7</ele>
        <time>2021-08-25T15:07:51.000Z</time>
      </trkpt>
      <trkpt lat="45.62318" lon="2.83085">
        <ele>1398</ele>
        <time>2021-08-25T15:07:56.000Z</time>
      </trkpt>
      <trkpt lat="45.62325" lon="2.83086">
        <ele>1399.2</ele>
        <time>2021-08-25T15:08:03.000Z</time>
      </trkpt>
      <trkpt lat="45.62331" lon="2.83092">
        <ele>1401</ele>
        <time>2021-08-25T15:08:10.000Z</time>
      </trkpt>
      <trkpt lat="45.62337" lon="2.83098">
        <ele>1402.3</ele>
        <time>2021-08-25T15:08:16.000Z</time>
      </trkpt>
      <trkpt lat="45.62342" lon="2.83104">
        <ele>1403.3</ele>
        <time>2021-08-25T15:08:22.000Z</time>
      </trkpt>
      <trkpt lat="45.62347" lon="2.83111">
        <ele>1404.5</ele>
        <time>2021-08-25T15:08:32.000Z</time>
      </trkpt>
      <trkpt lat="45.62355" lon="2.83115">
        <ele>1405.2</ele>
        <time>2021-08-25T15:09:10.000Z</time>
      </trkpt>
      <trkpt lat="45.6236" lon="2.83123">
        <ele>1406.5</ele>
        <time>2021-08-25T15:09:21.000Z</time>
      </trkpt>
      <trkpt lat="45.62364" lon="2.83131">
        <ele>1407.8</ele>
        <time>2021-08-25T15:09:30.000Z</time>
      </trkpt>
      <trkpt lat="45.6237" lon="2.83133">
        <ele>1408.2</ele>
        <time>2021-08-25T15:09:37.000Z</time>
      </trkpt>
      <trkpt lat="45.62376" lon="2.83137">
        <ele>1408.9</ele>
        <time>2021-08-25T15:09:45.000Z</time>
      </trkpt>
      <trkpt lat="45.62383" lon="2.83139">
        <ele>1409.3</ele>
        <time>2021-08-25T15:09:53.000Z</time>
      </trkpt>
      <trkpt lat="45.62391" lon="2.83138">
        <ele>1409.2</ele>
        <time>2021-08-25T15:10:35.000Z</time>
      </trkpt>
      <trkpt lat="45.62396" lon="2.83143">
        <ele>1410.1</ele>
        <time>2021-08-25T15:10:47.000Z</time>
      </trkpt>
      <trkpt lat="45.62402" lon="2.83148">
        <ele>1410.9</ele>
        <time>2021-08-25T15:10:54.000Z</time>
      </trkpt>
      <trkpt lat="45.62407" lon="2.83155">
        <ele>1412.1</ele>
        <time>2021-08-25T15:11:01.000Z</time>
      </trkpt>
      <trkpt lat="45.62411" lon="2.83162">
        <ele>1413.2</ele>
        <time>2021-08-25T15:11:08.000Z</time>
      </trkpt>
      <trkpt lat="45.62415" lon="2.83171">
        <ele>1414.8</ele>
        <time>2021-08-25T15:11:15.000Z</time>
      </trkpt>
      <trkpt lat="45.62418" lon="2.83181">
        <ele>1416.4</ele>
        <time>2021-08-25T15:11:21.000Z</time>
      </trkpt>
      <trkpt lat="45.62422" lon="2.8319">
        <ele>1417.4</ele>
        <time>2021-08-25T15:11:28.000Z</time>
      </trkpt>
      <trkpt lat="45.62427" lon="2.83196">
        <ele>1417.7</ele>
        <time>2021-08-25T15:11:33.000Z</time>
      </trkpt>
      <trkpt lat="45.62431" lon="2.83203">
        <ele>1418.5</ele>
        <time>2021-08-25T15:11:38.000Z</time>
      </trkpt>
      <trkpt lat="45.62436" lon="2.83211">
        <ele>1419.4</ele>
        <time>2021-08-25T15:11:44.000Z</time>
      </trkpt>
      <trkpt lat="45.6244" lon="2.83218">
        <ele>1420.2</ele>
        <time>2021-08-25T15:11:51.000Z</time>
      </trkpt>
      <trkpt lat="45.62446" lon="2.83226">
        <ele>1421.2</ele>
        <time>2021-08-25T15:11:59.000Z</time>
      </trkpt>
      <trkpt lat="45.62452" lon="2.83232">
        <ele>1421.7</ele>
        <time>2021-08-25T15:12:05.000Z</time>
      </trkpt>
      <trkpt lat="45.6246" lon="2.83238">
        <ele>1422.2</ele>
        <time>2021-08-25T15:12:10.000Z</time>
      </trkpt>
      <trkpt lat="45.62466" lon="2.83243">
        <ele>1422.7</ele>
        <time>2021-08-25T15:12:17.000Z</time>
      </trkpt>
      <trkpt lat="45.62473" lon="2.83246">
        <ele>1422.6</ele>
        <time>2021-08-25T15:12:28.000Z</time>
      </trkpt>
      <trkpt lat="45.6248" lon="2.83248">
        <ele>1422.4</ele>
        <time>2021-08-25T15:12:33.000Z</time>
      </trkpt>
      <trkpt lat="45.62487" lon="2.8325">
        <ele>1422.2</ele>
        <time>2021-08-25T15:12:38.000Z</time>
      </trkpt>
      <trkpt lat="45.62494" lon="2.83252">
        <ele>1422.2</ele>
        <time>2021-08-25T15:12:44.000Z</time>
      </trkpt>
      <trkpt lat="45.62502" lon="2.83254">
        <ele>1422</ele>
        <time>2021-08-25T15:12:53.000Z</time>
      </trkpt>
      <trkpt lat="45.62509" lon="2.83253">
        <ele>1421</ele>
        <time>2021-08-25T15:13:02.000Z</time>
      </trkpt>
      <trkpt lat="45.62516" lon="2.83255">
        <ele>1420.9</ele>
        <time>2021-08-25T15:13:10.000Z</time>
      </trkpt>
      <trkpt lat="45.62522" lon="2.83256">
        <ele>1420.6</ele>
        <time>2021-08-25T15:13:18.000Z</time>
      </trkpt>
      <trkpt lat="45.62529" lon="2.83256">
        <ele>1419.9</ele>
        <time>2021-08-25T15:13:27.000Z</time>
      </trkpt>
      <trkpt lat="45.62536" lon="2.83255">
        <ele>1418.9</ele>
        <time>2021-08-25T15:13:40.000Z</time>
      </trkpt>
      <trkpt lat="45.62543" lon="2.83255">
        <ele>1418.2</ele>
        <time>2021-08-25T15:13:51.000Z</time>
      </trkpt>
      <trkpt lat="45.62549" lon="2.83256">
        <ele>1417.9</ele>
        <time>2021-08-25T15:13:59.000Z</time>
      </trkpt>
      <trkpt lat="45.62556" lon="2.83259">
        <ele>1418.4</ele>
        <time>2021-08-25T15:14:11.000Z</time>
      </trkpt>
      <trkpt lat="45.62561" lon="2.83265">
        <ele>1420.2</ele>
        <time>2021-08-25T15:14:21.000Z</time>
      </trkpt>
      <trkpt lat="45.62566" lon="2.83269">
        <ele>1421.4</ele>
        <time>2021-08-25T15:14:30.000Z</time>
      </trkpt>
      <trkpt lat="45.62573" lon="2.83273">
        <ele>1422.4</ele>
        <time>2021-08-25T15:14:38.000Z</time>
      </trkpt>
      <trkpt lat="45.62579" lon="2.83278">
        <ele>1424.1</ele>
        <time>2021-08-25T15:14:50.000Z</time>
      </trkpt>
      <trkpt lat="45.62585" lon="2.83283">
        <ele>1425.7</ele>
        <time>2021-08-25T15:14:58.000Z</time>
      </trkpt>
      <trkpt lat="45.6259" lon="2.83288">
        <ele>1427.2</ele>
        <time>2021-08-25T15:15:06.000Z</time>
      </trkpt>
      <trkpt lat="45.62596" lon="2.83292">
        <ele>1428.3</ele>
        <time>2021-08-25T15:15:17.000Z</time>
      </trkpt>
      <trkpt lat="45.62601" lon="2.83299">
        <ele>1430.7</ele>
        <time>2021-08-25T15:15:48.000Z</time>
      </trkpt>
      <trkpt lat="45.62607" lon="2.83305">
        <ele>1432.5</ele>
        <time>2021-08-25T15:15:56.000Z</time>
      </trkpt>
      <trkpt lat="45.62613" lon="2.8331">
        <ele>1434</ele>
        <time>2021-08-25T15:16:03.000Z</time>
      </trkpt>
      <trkpt lat="45.62618" lon="2.83316">
        <ele>1436</ele>
        <time>2021-08-25T15:16:13.000Z</time>
      </trkpt>
      <trkpt lat="45.62622" lon="2.83323">
        <ele>1438.5</ele>
        <time>2021-08-25T15:16:22.000Z</time>
      </trkpt>
      <trkpt lat="45.62627" lon="2.83329">
        <ele>1440.5</ele>
        <time>2021-08-25T15:16:44.000Z</time>
      </trkpt>
      <trkpt lat="45.62633" lon="2.83333">
        <ele>1441.5</ele>
        <time>2021-08-25T15:16:51.000Z</time>
      </trkpt>
      <trkpt lat="45.62639" lon="2.83338">
        <ele>1442</ele>
        <time>2021-08-25T15:17:01.000Z</time>
      </trkpt>
      <trkpt lat="45.62645" lon="2.83343">
        <ele>1442.4</ele>
        <time>2021-08-25T15:17:13.000Z</time>
      </trkpt>
      <trkpt lat="45.62652" lon="2.83346">
        <ele>1442.2</ele>
        <time>2021-08-25T15:17:20.000Z</time>
      </trkpt>
      <trkpt lat="45.62658" lon="2.8335">
        <ele>1442.2</ele>
        <time>2021-08-25T15:17:29.000Z</time>
      </trkpt>
      <trkpt lat="45.62668" lon="2.83351">
        <ele>1441</ele>
        <time>2021-08-25T15:18:08.000Z</time>
      </trkpt>
      <trkpt lat="45.62661" lon="2.83355">
        <ele>1442.7</ele>
        <time>2021-08-25T15:18:36.000Z</time>
      </trkpt>
      <trkpt lat="45.62657" lon="2.83362">
        <ele>1444.6</ele>
        <time>2021-08-25T15:18:48.000Z</time>
      </trkpt>
      <trkpt lat="45.62653" lon="2.8337">
        <ele>1446.9</ele>
        <time>2021-08-25T15:18:59.000Z</time>
      </trkpt>
      <trkpt lat="45.62642" lon="2.83378">
        <ele>1450.4</ele>
        <time>2021-08-25T15:19:45.000Z</time>
      </trkpt>
      <trkpt lat="45.62629" lon="2.83376">
        <ele>1452.3</ele>
        <time>2021-08-25T15:20:48.000Z</time>
      </trkpt>
      <trkpt lat="45.62616" lon="2.83381">
        <ele>1455.9</ele>
        <time>2021-08-25T15:21:18.000Z</time>
      </trkpt>
      <trkpt lat="45.62611" lon="2.83387">
        <ele>1458.4</ele>
        <time>2021-08-25T15:22:17.000Z</time>
      </trkpt>
      <trkpt lat="45.62607" lon="2.83396">
        <ele>1461.6</ele>
        <time>2021-08-25T15:22:33.000Z</time>
      </trkpt>
      <trkpt lat="45.62601" lon="2.83402">
        <ele>1464.6</ele>
        <time>2021-08-25T15:22:42.000Z</time>
      </trkpt>
      <trkpt lat="45.62596" lon="2.83409">
        <ele>1467.7</ele>
        <time>2021-08-25T15:22:51.000Z</time>
      </trkpt>
      <trkpt lat="45.6259" lon="2.83415">
        <ele>1470.9</ele>
        <time>2021-08-25T15:23:01.000Z</time>
      </trkpt>
      <trkpt lat="45.62587" lon="2.83424">
        <ele>1472.1</ele>
        <time>2021-08-25T15:23:15.000Z</time>
      </trkpt>
      <trkpt lat="45.62581" lon="2.83429">
        <ele>1472.9</ele>
        <time>2021-08-25T15:23:22.000Z</time>
      </trkpt>
      <trkpt lat="45.62576" lon="2.83435">
        <ele>1472.7</ele>
        <time>2021-08-25T15:23:29.000Z</time>
      </trkpt>
      <trkpt lat="45.62571" lon="2.83442">
        <ele>1472.7</ele>
        <time>2021-08-25T15:23:35.000Z</time>
      </trkpt>
      <trkpt lat="45.62566" lon="2.83448">
        <ele>1472.7</ele>
        <time>2021-08-25T15:23:40.000Z</time>
      </trkpt>
      <trkpt lat="45.62561" lon="2.83454">
        <ele>1472.7</ele>
        <time>2021-08-25T15:23:47.000Z</time>
      </trkpt>
      <trkpt lat="45.62556" lon="2.8346">
        <ele>1472.9</ele>
        <time>2021-08-25T15:23:53.000Z</time>
      </trkpt>
      <trkpt lat="45.62552" lon="2.83468">
        <ele>1473.2</ele>
        <time>2021-08-25T15:24:01.000Z</time>
      </trkpt>
      <trkpt lat="45.62547" lon="2.83475">
        <ele>1473.6</ele>
        <time>2021-08-25T15:24:11.000Z</time>
      </trkpt>
      <trkpt lat="45.62542" lon="2.83482">
        <ele>1474</ele>
        <time>2021-08-25T15:24:22.000Z</time>
      </trkpt>
      <trkpt lat="45.62538" lon="2.83489">
        <ele>1474.5</ele>
        <time>2021-08-25T15:24:31.000Z</time>
      </trkpt>
      <trkpt lat="45.62534" lon="2.83497">
        <ele>1475.2</ele>
        <time>2021-08-25T15:24:38.000Z</time>
      </trkpt>
      <trkpt lat="45.62529" lon="2.83504">
        <ele>1475.6</ele>
        <time>2021-08-25T15:24:49.000Z</time>
      </trkpt>
      <trkpt lat="45.62525" lon="2.83512">
        <ele>1475.8</ele>
        <time>2021-08-25T15:24:56.000Z</time>
      </trkpt>
      <trkpt lat="45.6252" lon="2.8352">
        <ele>1476.1</ele>
        <time>2021-08-25T15:25:04.000Z</time>
      </trkpt>
      <trkpt lat="45.62515" lon="2.83527">
        <ele>1476.5</ele>
        <time>2021-08-25T15:25:11.000Z</time>
      </trkpt>
      <trkpt lat="45.6251" lon="2.83534">
        <ele>1477</ele>
        <time>2021-08-25T15:25:20.000Z</time>
      </trkpt>
      <trkpt lat="45.62505" lon="2.83541">
        <ele>1477.5</ele>
        <time>2021-08-25T15:25:32.000Z</time>
      </trkpt>
      <trkpt lat="45.62499" lon="2.83547">
        <ele>1478</ele>
        <time>2021-08-25T15:25:41.000Z</time>
      </trkpt>
      <trkpt lat="45.62493" lon="2.83552">
        <ele>1477.5</ele>
        <time>2021-08-25T15:25:49.000Z</time>
      </trkpt>
      <trkpt lat="45.62487" lon="2.83558">
        <ele>1477.2</ele>
        <time>2021-08-25T15:25:55.000Z</time>
      </trkpt>
      <trkpt lat="45.62483" lon="2.83566">
        <ele>1477.2</ele>
        <time>2021-08-25T15:26:01.000Z</time>
      </trkpt>
      <trkpt lat="45.62478" lon="2.83574">
        <ele>1477.2</ele>
        <time>2021-08-25T15:26:08.000Z</time>
      </trkpt>
      <trkpt lat="45.62472" lon="2.83578">
        <ele>1477</ele>
        <time>2021-08-25T15:26:14.000Z</time>
      </trkpt>
      <trkpt lat="45.62466" lon="2.83585">
        <ele>1476.8</ele>
        <time>2021-08-25T15:26:20.000Z</time>
      </trkpt>
      <trkpt lat="45.62461" lon="2.83592">
        <ele>1475.8</ele>
        <time>2021-08-25T15:26:25.000Z</time>
      </trkpt>
      <trkpt lat="45.62455" lon="2.83598">
        <ele>1475.1</ele>
        <time>2021-08-25T15:26:31.000Z</time>
      </trkpt>
      <trkpt lat="45.62449" lon="2.83605">
        <ele>1474.7</ele>
        <time>2021-08-25T15:26:37.000Z</time>
      </trkpt>
      <trkpt lat="45.62443" lon="2.8361">
        <ele>1474.5</ele>
        <time>2021-08-25T15:26:42.000Z</time>
      </trkpt>
      <trkpt lat="45.62437" lon="2.83617">
        <ele>1474.6</ele>
        <time>2021-08-25T15:26:48.000Z</time>
      </trkpt>
      <trkpt lat="45.6243" lon="2.83623">
        <ele>1475</ele>
        <time>2021-08-25T15:26:53.000Z</time>
      </trkpt>
      <trkpt lat="45.62425" lon="2.8363">
        <ele>1475.5</ele>
        <time>2021-08-25T15:26:58.000Z</time>
      </trkpt>
      <trkpt lat="45.62419" lon="2.83636">
        <ele>1476.3</ele>
        <time>2021-08-25T15:27:04.000Z</time>
      </trkpt>
      <trkpt lat="45.62413" lon="2.83641">
        <ele>1476.5</ele>
        <time>2021-08-25T15:27:09.000Z</time>
      </trkpt>
      <trkpt lat="45.62406" lon="2.83644">
        <ele>1476.1</ele>
        <time>2021-08-25T15:27:15.000Z</time>
      </trkpt>
      <trkpt lat="45.62399" lon="2.83647">
        <ele>1475.7</ele>
        <time>2021-08-25T15:27:20.000Z</time>
      </trkpt>
      <trkpt lat="45.62393" lon="2.83652">
        <ele>1475.6</ele>
        <time>2021-08-25T15:27:25.000Z</time>
      </trkpt>
      <trkpt lat="45.62387" lon="2.83656">
        <ele>1475.4</ele>
        <time>2021-08-25T15:27:30.000Z</time>
      </trkpt>
      <trkpt lat="45.6238" lon="2.83662">
        <ele>1475.4</ele>
        <time>2021-08-25T15:27:53.000Z</time>
      </trkpt>
      <trkpt lat="45.62372" lon="2.83665">
        <ele>1475.2</ele>
        <time>2021-08-25T15:27:59.000Z</time>
      </trkpt>
      <trkpt lat="45.62366" lon="2.8367">
        <ele>1474.9</ele>
        <time>2021-08-25T15:28:05.000Z</time>
      </trkpt>
      <trkpt lat="45.62361" lon="2.83676">
        <ele>1474.6</ele>
        <time>2021-08-25T15:28:14.000Z</time>
      </trkpt>
      <trkpt lat="45.62356" lon="2.83681">
        <ele>1474.5</ele>
        <time>2021-08-25T15:28:21.000Z</time>
      </trkpt>
      <trkpt lat="45.6235" lon="2.83687">
        <ele>1474.6</ele>
        <time>2021-08-25T15:28:29.000Z</time>
      </trkpt>
      <trkpt lat="45.62344" lon="2.83692">
        <ele>1474.9</ele>
        <time>2021-08-25T15:28:36.000Z</time>
      </trkpt>
      <trkpt lat="45.62339" lon="2.83699">
        <ele>1475.5</ele>
        <time>2021-08-25T15:28:43.000Z</time>
      </trkpt>
      <trkpt lat="45.62334" lon="2.83706">
        <ele>1476.3</ele>
        <time>2021-08-25T15:28:50.000Z</time>
      </trkpt>
      <trkpt lat="45.62327" lon="2.83714">
        <ele>1476.6</ele>
        <time>2021-08-25T15:28:56.000Z</time>
      </trkpt>
      <trkpt lat="45.62322" lon="2.8372">
        <ele>1476.8</ele>
        <time>2021-08-25T15:29:01.000Z</time>
      </trkpt>
      <trkpt lat="45.62317" lon="2.83728">
        <ele>1477.3</ele>
        <time>2021-08-25T15:29:06.000Z</time>
      </trkpt>
      <trkpt lat="45.62312" lon="2.8374">
        <ele>1478.2</ele>
        <time>2021-08-25T15:29:12.000Z</time>
      </trkpt>
      <trkpt lat="45.62308" lon="2.83748">
        <ele>1478.9</ele>
        <time>2021-08-25T15:29:17.000Z</time>
      </trkpt>
      <trkpt lat="45.62302" lon="2.83755">
        <ele>1479.1</ele>
        <time>2021-08-25T15:29:23.000Z</time>
      </trkpt>
      <trkpt lat="45.62297" lon="2.83763">
        <ele>1479.4</ele>
        <time>2021-08-25T15:29:29.000Z</time>
      </trkpt>
      <trkpt lat="45.62292" lon="2.83769">
        <ele>1479.6</ele>
        <time>2021-08-25T15:29:34.000Z</time>
      </trkpt>
      <trkpt lat="45.62289" lon="2.83778">
        <ele>1480.1</ele>
        <time>2021-08-25T15:29:41.000Z</time>
      </trkpt>
      <trkpt lat="45.62283" lon="2.83783">
        <ele>1480.3</ele>
        <time>2021-08-25T15:30:02.000Z</time>
      </trkpt>
      <trkpt lat="45.62281" lon="2.83792">
        <ele>1480.9</ele>
        <time>2021-08-25T15:30:11.000Z</time>
      </trkpt>
      <trkpt lat="45.62279" lon="2.83801">
        <ele>1481.5</ele>
        <time>2021-08-25T15:30:17.000Z</time>
      </trkpt>
      <trkpt lat="45.62275" lon="2.8381">
        <ele>1482.1</ele>
        <time>2021-08-25T15:30:23.000Z</time>
      </trkpt>
      <trkpt lat="45.62271" lon="2.8382">
        <ele>1482.8</ele>
        <time>2021-08-25T15:30:29.000Z</time>
      </trkpt>
      <trkpt lat="45.62267" lon="2.83829">
        <ele>1483.5</ele>
        <time>2021-08-25T15:30:36.000Z</time>
      </trkpt>
      <trkpt lat="45.62264" lon="2.83837">
        <ele>1484</ele>
        <time>2021-08-25T15:30:44.000Z</time>
      </trkpt>
      <trkpt lat="45.62261" lon="2.83846">
        <ele>1484.5</ele>
        <time>2021-08-25T15:30:51.000Z</time>
      </trkpt>
      <trkpt lat="45.6226" lon="2.83855">
        <ele>1485</ele>
        <time>2021-08-25T15:30:57.000Z</time>
      </trkpt>
      <trkpt lat="45.62257" lon="2.83865">
        <ele>1485.6</ele>
        <time>2021-08-25T15:31:04.000Z</time>
      </trkpt>
      <trkpt lat="45.62254" lon="2.83873">
        <ele>1486.2</ele>
        <time>2021-08-25T15:31:10.000Z</time>
      </trkpt>
      <trkpt lat="45.62252" lon="2.83883">
        <ele>1486.9</ele>
        <time>2021-08-25T15:31:17.000Z</time>
      </trkpt>
      <trkpt lat="45.6225" lon="2.83892">
        <ele>1487.5</ele>
        <time>2021-08-25T15:31:22.000Z</time>
      </trkpt>
      <trkpt lat="45.62248" lon="2.83902">
        <ele>1488.1</ele>
        <time>2021-08-25T15:31:28.000Z</time>
      </trkpt>
      <trkpt lat="45.62248" lon="2.83913">
        <ele>1488.7</ele>
        <time>2021-08-25T15:31:34.000Z</time>
      </trkpt>
      <trkpt lat="45.62247" lon="2.83922">
        <ele>1489.2</ele>
        <time>2021-08-25T15:31:40.000Z</time>
      </trkpt>
      <trkpt lat="45.62246" lon="2.83933">
        <ele>1489.7</ele>
        <time>2021-08-25T15:31:47.000Z</time>
      </trkpt>
      <trkpt lat="45.62248" lon="2.83942">
        <ele>1490.2</ele>
        <time>2021-08-25T15:31:52.000Z</time>
      </trkpt>
      <trkpt lat="45.62251" lon="2.83951">
        <ele>1490.6</ele>
        <time>2021-08-25T15:31:58.000Z</time>
      </trkpt>
      <trkpt lat="45.62255" lon="2.8396">
        <ele>1490.6</ele>
        <time>2021-08-25T15:32:04.000Z</time>
      </trkpt>
      <trkpt lat="45.62257" lon="2.83968">
        <ele>1490.8</ele>
        <time>2021-08-25T15:32:10.000Z</time>
      </trkpt>
      <trkpt lat="45.6226" lon="2.83978">
        <ele>1490.9</ele>
        <time>2021-08-25T15:32:16.000Z</time>
      </trkpt>
      <trkpt lat="45.62261" lon="2.83987">
        <ele>1491.2</ele>
        <time>2021-08-25T15:32:24.000Z</time>
      </trkpt>
      <trkpt lat="45.62264" lon="2.83997">
        <ele>1491.4</ele>
        <time>2021-08-25T15:32:43.000Z</time>
      </trkpt>
      <trkpt lat="45.62267" lon="2.84006">
        <ele>1491.7</ele>
        <time>2021-08-25T15:32:51.000Z</time>
      </trkpt>
      <trkpt lat="45.6227" lon="2.84015">
        <ele>1492.3</ele>
        <time>2021-08-25T15:32:57.000Z</time>
      </trkpt>
      <trkpt lat="45.62272" lon="2.84024">
        <ele>1492.9</ele>
        <time>2021-08-25T15:33:47.000Z</time>
      </trkpt>
      <trkpt lat="45.62275" lon="2.84033">
        <ele>1493.5</ele>
        <time>2021-08-25T15:33:53.000Z</time>
      </trkpt>
      <trkpt lat="45.62279" lon="2.84043">
        <ele>1494</ele>
        <time>2021-08-25T15:34:00.000Z</time>
      </trkpt>
      <trkpt lat="45.62283" lon="2.84051">
        <ele>1494.3</ele>
        <time>2021-08-25T15:34:06.000Z</time>
      </trkpt>
      <trkpt lat="45.62286" lon="2.84061">
        <ele>1495</ele>
        <time>2021-08-25T15:34:13.000Z</time>
      </trkpt>
      <trkpt lat="45.62289" lon="2.84069">
        <ele>1495.4</ele>
        <time>2021-08-25T15:34:20.000Z</time>
      </trkpt>
      <trkpt lat="45.62294" lon="2.84077">
        <ele>1495.6</ele>
        <time>2021-08-25T15:34:27.000Z</time>
      </trkpt>
      <trkpt lat="45.62297" lon="2.84086">
        <ele>1496.3</ele>
        <time>2021-08-25T15:34:51.000Z</time>
      </trkpt>
      <trkpt lat="45.623" lon="2.84095">
        <ele>1497.3</ele>
        <time>2021-08-25T15:35:00.000Z</time>
      </trkpt>
      <trkpt lat="45.62302" lon="2.84104">
        <ele>1498.5</ele>
        <time>2021-08-25T15:35:07.000Z</time>
      </trkpt>
      <trkpt lat="45.62305" lon="2.84114">
        <ele>1499.6</ele>
        <time>2021-08-25T15:35:13.000Z</time>
      </trkpt>
      <trkpt lat="45.6231" lon="2.84121">
        <ele>1500.1</ele>
        <time>2021-08-25T15:35:18.000Z</time>
      </trkpt>
      <trkpt lat="45.62316" lon="2.84129">
        <ele>1500.6</ele>
        <time>2021-08-25T15:35:24.000Z</time>
      </trkpt>
      <trkpt lat="45.62319" lon="2.84138">
        <ele>1501.5</ele>
        <time>2021-08-25T15:35:32.000Z</time>
      </trkpt>
      <trkpt lat="45.62325" lon="2.84145">
        <ele>1501.9</ele>
        <time>2021-08-25T15:35:39.000Z</time>
      </trkpt>
      <trkpt lat="45.6233" lon="2.84153">
        <ele>1502.4</ele>
        <time>2021-08-25T15:35:45.000Z</time>
      </trkpt>
      <trkpt lat="45.62335" lon="2.84159">
        <ele>1502.2</ele>
        <time>2021-08-25T15:35:50.000Z</time>
      </trkpt>
      <trkpt lat="45.62339" lon="2.84167">
        <ele>1501.7</ele>
        <time>2021-08-25T15:35:56.000Z</time>
      </trkpt>
      <trkpt lat="45.62343" lon="2.84175">
        <ele>1500.8</ele>
        <time>2021-08-25T15:36:02.000Z</time>
      </trkpt>
      <trkpt lat="45.62347" lon="2.84182">
        <ele>1499.9</ele>
        <time>2021-08-25T15:36:08.000Z</time>
      </trkpt>
      <trkpt lat="45.62352" lon="2.84189">
        <ele>1498.6</ele>
        <time>2021-08-25T15:36:14.000Z</time>
      </trkpt>
      <trkpt lat="45.62356" lon="2.84198">
        <ele>1498</ele>
        <time>2021-08-25T15:36:20.000Z</time>
      </trkpt>
      <trkpt lat="45.6236" lon="2.84206">
        <ele>1497.3</ele>
        <time>2021-08-25T15:36:26.000Z</time>
      </trkpt>
      <trkpt lat="45.62364" lon="2.84214">
        <ele>1496.7</ele>
        <time>2021-08-25T15:36:34.000Z</time>
      </trkpt>
      <trkpt lat="45.62365" lon="2.84223">
        <ele>1497.4</ele>
        <time>2021-08-25T15:37:24.000Z</time>
      </trkpt>
      <trkpt lat="45.62369" lon="2.84231">
        <ele>1496.8</ele>
        <time>2021-08-25T15:37:32.000Z</time>
      </trkpt>
      <trkpt lat="45.62373" lon="2.8424">
        <ele>1496.5</ele>
        <time>2021-08-25T15:37:40.000Z</time>
      </trkpt>
      <trkpt lat="45.62377" lon="2.84248">
        <ele>1496.1</ele>
        <time>2021-08-25T15:37:46.000Z</time>
      </trkpt>
      <trkpt lat="45.62381" lon="2.84257">
        <ele>1495.6</ele>
        <time>2021-08-25T15:37:52.000Z</time>
      </trkpt>
      <trkpt lat="45.62385" lon="2.84265">
        <ele>1495</ele>
        <time>2021-08-25T15:38:00.000Z</time>
      </trkpt>
      <trkpt lat="45.62388" lon="2.84275">
        <ele>1495</ele>
        <time>2021-08-25T15:38:06.000Z</time>
      </trkpt>
      <trkpt lat="45.62392" lon="2.84286">
        <ele>1494.8</ele>
        <time>2021-08-25T15:38:12.000Z</time>
      </trkpt>
      <trkpt lat="45.62394" lon="2.84296">
        <ele>1495.2</ele>
        <time>2021-08-25T15:38:18.000Z</time>
      </trkpt>
      <trkpt lat="45.62396" lon="2.84305">
        <ele>1495.6</ele>
        <time>2021-08-25T15:38:27.000Z</time>
      </trkpt>
      <trkpt lat="45.62398" lon="2.84314">
        <ele>1495.9</ele>
        <time>2021-08-25T15:38:34.000Z</time>
      </trkpt>
      <trkpt lat="45.62401" lon="2.84324">
        <ele>1496.1</ele>
        <time>2021-08-25T15:38:40.000Z</time>
      </trkpt>
      <trkpt lat="45.62402" lon="2.84334">
        <ele>1496.9</ele>
        <time>2021-08-25T15:38:48.000Z</time>
      </trkpt>
      <trkpt lat="45.62406" lon="2.84342">
        <ele>1496</ele>
        <time>2021-08-25T15:38:54.000Z</time>
      </trkpt>
      <trkpt lat="45.62408" lon="2.84352">
        <ele>1495.8</ele>
        <time>2021-08-25T15:39:01.000Z</time>
      </trkpt>
      <trkpt lat="45.62411" lon="2.84361">
        <ele>1495.4</ele>
        <time>2021-08-25T15:39:08.000Z</time>
      </trkpt>
      <trkpt lat="45.62414" lon="2.8437">
        <ele>1494.9</ele>
        <time>2021-08-25T15:39:15.000Z</time>
      </trkpt>
      <trkpt lat="45.62414" lon="2.8438">
        <ele>1495.3</ele>
        <time>2021-08-25T15:39:23.000Z</time>
      </trkpt>
      <trkpt lat="45.62415" lon="2.84393">
        <ele>1495.5</ele>
        <time>2021-08-25T15:39:39.000Z</time>
      </trkpt>
      <trkpt lat="45.6242" lon="2.844">
        <ele>1494.2</ele>
        <time>2021-08-25T15:40:01.000Z</time>
      </trkpt>
      <trkpt lat="45.62421" lon="2.8441">
        <ele>1494.2</ele>
        <time>2021-08-25T15:40:09.000Z</time>
      </trkpt>
      <trkpt lat="45.62421" lon="2.8442">
        <ele>1494.5</ele>
        <time>2021-08-25T15:40:18.000Z</time>
      </trkpt>
      <trkpt lat="45.62423" lon="2.84429">
        <ele>1494.1</ele>
        <time>2021-08-25T15:40:24.000Z</time>
      </trkpt>
      <trkpt lat="45.62425" lon="2.84439">
        <ele>1493.7</ele>
        <time>2021-08-25T15:40:30.000Z</time>
      </trkpt>
      <trkpt lat="45.62427" lon="2.84448">
        <ele>1493.4</ele>
        <time>2021-08-25T15:40:36.000Z</time>
      </trkpt>
      <trkpt lat="45.62427" lon="2.84457">
        <ele>1493.7</ele>
        <time>2021-08-25T15:40:43.000Z</time>
      </trkpt>
      <trkpt lat="45.62427" lon="2.84466">
        <ele>1494</ele>
        <time>2021-08-25T15:40:52.000Z</time>
      </trkpt>
      <trkpt lat="45.62428" lon="2.84477">
        <ele>1494.1</ele>
        <time>2021-08-25T15:41:02.000Z</time>
      </trkpt>
      <trkpt lat="45.62432" lon="2.84486">
        <ele>1493.2</ele>
        <time>2021-08-25T15:41:09.000Z</time>
      </trkpt>
      <trkpt lat="45.62436" lon="2.84493">
        <ele>1492.4</ele>
        <time>2021-08-25T15:41:15.000Z</time>
      </trkpt>
      <trkpt lat="45.62441" lon="2.84501">
        <ele>1491.3</ele>
        <time>2021-08-25T15:41:21.000Z</time>
      </trkpt>
      <trkpt lat="45.62446" lon="2.84509">
        <ele>1490.1</ele>
        <time>2021-08-25T15:41:33.000Z</time>
      </trkpt>
      <trkpt lat="45.6245" lon="2.84516">
        <ele>1489.3</ele>
        <time>2021-08-25T15:41:40.000Z</time>
      </trkpt>
      <trkpt lat="45.62453" lon="2.84525">
        <ele>1488.8</ele>
        <time>2021-08-25T15:43:04.000Z</time>
      </trkpt>
      <trkpt lat="45.62458" lon="2.84532">
        <ele>1487.9</ele>
        <time>2021-08-25T15:43:10.000Z</time>
      </trkpt>
      <trkpt lat="45.62463" lon="2.84539">
        <ele>1487.1</ele>
        <time>2021-08-25T15:43:16.000Z</time>
      </trkpt>
      <trkpt lat="45.62469" lon="2.84545">
        <ele>1486.1</ele>
        <time>2021-08-25T15:43:22.000Z</time>
      </trkpt>
      <trkpt lat="45.62475" lon="2.84551">
        <ele>1485.1</ele>
        <time>2021-08-25T15:43:28.000Z</time>
      </trkpt>
      <trkpt lat="45.6248" lon="2.84557">
        <ele>1484.5</ele>
        <time>2021-08-25T15:43:34.000Z</time>
      </trkpt>
      <trkpt lat="45.62485" lon="2.84564">
        <ele>1484</ele>
        <time>2021-08-25T15:43:40.000Z</time>
      </trkpt>
      <trkpt lat="45.6249" lon="2.84572">
        <ele>1483.7</ele>
        <time>2021-08-25T15:43:46.000Z</time>
      </trkpt>
      <trkpt lat="45.62495" lon="2.8458">
        <ele>1483.5</ele>
        <time>2021-08-25T15:43:52.000Z</time>
      </trkpt>
      <trkpt lat="45.62498" lon="2.84588">
        <ele>1483.4</ele>
        <time>2021-08-25T15:43:57.000Z</time>
      </trkpt>
      <trkpt lat="45.62504" lon="2.84596">
        <ele>1482.3</ele>
        <time>2021-08-25T15:44:02.000Z</time>
      </trkpt>
      <trkpt lat="45.62508" lon="2.84602">
        <ele>1481.5</ele>
        <time>2021-08-25T15:44:08.000Z</time>
      </trkpt>
      <trkpt lat="45.62513" lon="2.84609">
        <ele>1480.5</ele>
        <time>2021-08-25T15:44:16.000Z</time>
      </trkpt>
      <trkpt lat="45.62519" lon="2.84615">
        <ele>1479.4</ele>
        <time>2021-08-25T15:44:23.000Z</time>
      </trkpt>
      <trkpt lat="45.62524" lon="2.8462">
        <ele>1478.4</ele>
        <time>2021-08-25T15:44:30.000Z</time>
      </trkpt>
      <trkpt lat="45.6253" lon="2.84627">
        <ele>1477.4</ele>
        <time>2021-08-25T15:44:38.000Z</time>
      </trkpt>
      <trkpt lat="45.62533" lon="2.84636">
        <ele>1477.3</ele>
        <time>2021-08-25T15:44:44.000Z</time>
      </trkpt>
      <trkpt lat="45.62538" lon="2.84644">
        <ele>1476.7</ele>
        <time>2021-08-25T15:44:52.000Z</time>
      </trkpt>
      <trkpt lat="45.62542" lon="2.84652">
        <ele>1476.5</ele>
        <time>2021-08-25T15:44:59.000Z</time>
      </trkpt>
      <trkpt lat="45.62546" lon="2.84664">
        <ele>1476.5</ele>
        <time>2021-08-25T15:45:04.000Z</time>
      </trkpt>
      <trkpt lat="45.62548" lon="2.84674">
        <ele>1476.2</ele>
        <time>2021-08-25T15:45:11.000Z</time>
      </trkpt>
      <trkpt lat="45.62553" lon="2.84681">
        <ele>1475.1</ele>
        <time>2021-08-25T15:45:17.000Z</time>
      </trkpt>
      <trkpt lat="45.62556" lon="2.84691">
        <ele>1474.3</ele>
        <time>2021-08-25T15:45:24.000Z</time>
      </trkpt>
      <trkpt lat="45.6256" lon="2.84698">
        <ele>1473.5</ele>
        <time>2021-08-25T15:45:31.000Z</time>
      </trkpt>
      <trkpt lat="45.62565" lon="2.84706">
        <ele>1472.5</ele>
        <time>2021-08-25T15:45:38.000Z</time>
      </trkpt>
      <trkpt lat="45.62568" lon="2.84714">
        <ele>1471.9</ele>
        <time>2021-08-25T15:45:45.000Z</time>
      </trkpt>
      <trkpt lat="45.62573" lon="2.84722">
        <ele>1470.9</ele>
        <time>2021-08-25T15:45:54.000Z</time>
      </trkpt>
      <trkpt lat="45.62577" lon="2.8473">
        <ele>1470.2</ele>
        <time>2021-08-25T15:46:01.000Z</time>
      </trkpt>
      <trkpt lat="45.62581" lon="2.84738">
        <ele>1469.5</ele>
        <time>2021-08-25T15:46:08.000Z</time>
      </trkpt>
      <trkpt lat="45.62585" lon="2.84747">
        <ele>1468.6</ele>
        <time>2021-08-25T15:46:15.000Z</time>
      </trkpt>
      <trkpt lat="45.62589" lon="2.84756">
        <ele>1467</ele>
        <time>2021-08-25T15:46:23.000Z</time>
      </trkpt>
      <trkpt lat="45.62591" lon="2.84765">
        <ele>1465.9</ele>
        <time>2021-08-25T15:46:32.000Z</time>
      </trkpt>
      <trkpt lat="45.62595" lon="2.84773">
        <ele>1464.3</ele>
        <time>2021-08-25T15:46:43.000Z</time>
      </trkpt>
      <trkpt lat="45.626" lon="2.84781">
        <ele>1462.5</ele>
        <time>2021-08-25T15:46:52.000Z</time>
      </trkpt>
      <trkpt lat="45.62603" lon="2.84791">
        <ele>1461.2</ele>
        <time>2021-08-25T15:47:02.000Z</time>
      </trkpt>
      <trkpt lat="45.62605" lon="2.84801">
        <ele>1460.1</ele>
        <time>2021-08-25T15:47:10.000Z</time>
      </trkpt>
      <trkpt lat="45.62607" lon="2.8481">
        <ele>1459.2</ele>
        <time>2021-08-25T15:47:20.000Z</time>
      </trkpt>
      <trkpt lat="45.6261" lon="2.8482">
        <ele>1457.9</ele>
        <time>2021-08-25T15:47:29.000Z</time>
      </trkpt>
      <trkpt lat="45.62611" lon="2.84829">
        <ele>1457.2</ele>
        <time>2021-08-25T15:47:38.000Z</time>
      </trkpt>
      <trkpt lat="45.62614" lon="2.84839">
        <ele>1456</ele>
        <time>2021-08-25T15:47:46.000Z</time>
      </trkpt>
      <trkpt lat="45.62614" lon="2.84848">
        <ele>1455.4</ele>
        <time>2021-08-25T15:47:54.000Z</time>
      </trkpt>
      <trkpt lat="45.62616" lon="2.84857">
        <ele>1454.4</ele>
        <time>2021-08-25T15:48:01.000Z</time>
      </trkpt>
      <trkpt lat="45.62618" lon="2.84866">
        <ele>1453.4</ele>
        <time>2021-08-25T15:48:08.000Z</time>
      </trkpt>
      <trkpt lat="45.6262" lon="2.84875">
        <ele>1452.4</ele>
        <time>2021-08-25T15:48:14.000Z</time>
      </trkpt>
      <trkpt lat="45.62621" lon="2.84886">
        <ele>1451.4</ele>
        <time>2021-08-25T15:48:21.000Z</time>
      </trkpt>
      <trkpt lat="45.62622" lon="2.84895">
        <ele>1450.6</ele>
        <time>2021-08-25T15:48:27.000Z</time>
      </trkpt>
      <trkpt lat="45.62622" lon="2.84905">
        <ele>1449.9</ele>
        <time>2021-08-25T15:48:36.000Z</time>
      </trkpt>
      <trkpt lat="45.62624" lon="2.84915">
        <ele>1448.8</ele>
        <time>2021-08-25T15:48:43.000Z</time>
      </trkpt>
      <trkpt lat="45.62625" lon="2.84925">
        <ele>1448.4</ele>
        <time>2021-08-25T15:48:54.000Z</time>
      </trkpt>
      <trkpt lat="45.62628" lon="2.84938">
        <ele>1447.4</ele>
        <time>2021-08-25T15:49:00.000Z</time>
      </trkpt>
      <trkpt lat="45.62627" lon="2.84948">
        <ele>1447.5</ele>
        <time>2021-08-25T15:49:06.000Z</time>
      </trkpt>
      <trkpt lat="45.62627" lon="2.84957">
        <ele>1447.3</ele>
        <time>2021-08-25T15:49:13.000Z</time>
      </trkpt>
      <trkpt lat="45.62628" lon="2.84966">
        <ele>1446.9</ele>
        <time>2021-08-25T15:49:21.000Z</time>
      </trkpt>
      <trkpt lat="45.62628" lon="2.84976">
        <ele>1446.7</ele>
        <time>2021-08-25T15:49:27.000Z</time>
      </trkpt>
      <trkpt lat="45.6263" lon="2.84985">
        <ele>1446.1</ele>
        <time>2021-08-25T15:49:34.000Z</time>
      </trkpt>
      <trkpt lat="45.62633" lon="2.84994">
        <ele>1445.2</ele>
        <time>2021-08-25T15:49:40.000Z</time>
      </trkpt>
      <trkpt lat="45.62637" lon="2.85002">
        <ele>1444.2</ele>
        <time>2021-08-25T15:49:45.000Z</time>
      </trkpt>
      <trkpt lat="45.62641" lon="2.8501">
        <ele>1443.4</ele>
        <time>2021-08-25T15:49:51.000Z</time>
      </trkpt>
      <trkpt lat="45.62645" lon="2.85017">
        <ele>1442.5</ele>
        <time>2021-08-25T15:49:58.000Z</time>
      </trkpt>
      <trkpt lat="45.6265" lon="2.85026">
        <ele>1441.4</ele>
        <time>2021-08-25T15:50:05.000Z</time>
      </trkpt>
      <trkpt lat="45.62654" lon="2.85033">
        <ele>1440.6</ele>
        <time>2021-08-25T15:50:12.000Z</time>
      </trkpt>
      <trkpt lat="45.62658" lon="2.85041">
        <ele>1439.7</ele>
        <time>2021-08-25T15:50:20.000Z</time>
      </trkpt>
      <trkpt lat="45.6266" lon="2.8505">
        <ele>1439.3</ele>
        <time>2021-08-25T15:50:27.000Z</time>
      </trkpt>
      <trkpt lat="45.62665" lon="2.85057">
        <ele>1438.1</ele>
        <time>2021-08-25T15:50:34.000Z</time>
      </trkpt>
      <trkpt lat="45.6267" lon="2.85063">
        <ele>1436.7</ele>
        <time>2021-08-25T15:50:42.000Z</time>
      </trkpt>
      <trkpt lat="45.62672" lon="2.85072">
        <ele>1436.1</ele>
        <time>2021-08-25T15:50:49.000Z</time>
      </trkpt>
      <trkpt lat="45.62676" lon="2.85081">
        <ele>1434.8</ele>
        <time>2021-08-25T15:50:56.000Z</time>
      </trkpt>
      <trkpt lat="45.62678" lon="2.8509">
        <ele>1434.4</ele>
        <time>2021-08-25T15:51:03.000Z</time>
      </trkpt>
      <trkpt lat="45.6268" lon="2.85099">
        <ele>1434</ele>
        <time>2021-08-25T15:51:10.000Z</time>
      </trkpt>
      <trkpt lat="45.62681" lon="2.85112">
        <ele>1434</ele>
        <time>2021-08-25T15:52:19.000Z</time>
      </trkpt>
      <trkpt lat="45.62679" lon="2.85121">
        <ele>1435</ele>
        <time>2021-08-25T15:57:19.000Z</time>
      </trkpt>
      <trkpt lat="45.62681" lon="2.8513">
        <ele>1434.6</ele>
        <time>2021-08-25T15:57:25.000Z</time>
      </trkpt>
      <trkpt lat="45.62682" lon="2.8514">
        <ele>1434.5</ele>
        <time>2021-08-25T15:57:30.000Z</time>
      </trkpt>
      <trkpt lat="45.62685" lon="2.85152">
        <ele>1433.8</ele>
        <time>2021-08-25T15:57:36.000Z</time>
      </trkpt>
      <trkpt lat="45.62687" lon="2.85162">
        <ele>1433.3</ele>
        <time>2021-08-25T15:57:43.000Z</time>
      </trkpt>
      <trkpt lat="45.6269" lon="2.85171">
        <ele>1432.4</ele>
        <time>2021-08-25T15:57:49.000Z</time>
      </trkpt>
      <trkpt lat="45.62693" lon="2.85179">
        <ele>1431.4</ele>
        <time>2021-08-25T15:57:55.000Z</time>
      </trkpt>
      <trkpt lat="45.62697" lon="2.85189">
        <ele>1430.1</ele>
        <time>2021-08-25T15:58:02.000Z</time>
      </trkpt>
      <trkpt lat="45.62701" lon="2.85197">
        <ele>1428.7</ele>
        <time>2021-08-25T15:58:08.000Z</time>
      </trkpt>
      <trkpt lat="45.62704" lon="2.85206">
        <ele>1427.6</ele>
        <time>2021-08-25T15:58:14.000Z</time>
      </trkpt>
      <trkpt lat="45.62708" lon="2.85215">
        <ele>1426.2</ele>
        <time>2021-08-25T15:58:25.000Z</time>
      </trkpt>
      <trkpt lat="45.62713" lon="2.85221">
        <ele>1424.3</ele>
        <time>2021-08-25T15:58:32.000Z</time>
      </trkpt>
      <trkpt lat="45.62719" lon="2.85227">
        <ele>1422.1</ele>
        <time>2021-08-25T15:58:38.000Z</time>
      </trkpt>
      <trkpt lat="45.62725" lon="2.85234">
        <ele>1419.8</ele>
        <time>2021-08-25T15:58:44.000Z</time>
      </trkpt>
      <trkpt lat="45.62731" lon="2.85238">
        <ele>1417.5</ele>
        <time>2021-08-25T15:58:51.000Z</time>
      </trkpt>
      <trkpt lat="45.62738" lon="2.85241">
        <ele>1414.7</ele>
        <time>2021-08-25T15:58:59.000Z</time>
      </trkpt>
      <trkpt lat="45.62745" lon="2.8524">
        <ele>1412</ele>
        <time>2021-08-25T15:59:04.000Z</time>
      </trkpt>
      <trkpt lat="45.62754" lon="2.85237">
        <ele>1409</ele>
        <time>2021-08-25T15:59:09.000Z</time>
      </trkpt>
      <trkpt lat="45.62761" lon="2.85234">
        <ele>1407.3</ele>
        <time>2021-08-25T15:59:14.000Z</time>
      </trkpt>
      <trkpt lat="45.62766" lon="2.85229">
        <ele>1406</ele>
        <time>2021-08-25T15:59:22.000Z</time>
      </trkpt>
      <trkpt lat="45.62773" lon="2.85226">
        <ele>1404.2</ele>
        <time>2021-08-25T15:59:29.000Z</time>
      </trkpt>
      <trkpt lat="45.62779" lon="2.85223">
        <ele>1402.6</ele>
        <time>2021-08-25T15:59:36.000Z</time>
      </trkpt>
      <trkpt lat="45.62786" lon="2.85221">
        <ele>1400.8</ele>
        <time>2021-08-25T15:59:41.000Z</time>
      </trkpt>
      <trkpt lat="45.62792" lon="2.85224">
        <ele>1399.3</ele>
        <time>2021-08-25T15:59:47.000Z</time>
      </trkpt>
      <trkpt lat="45.62798" lon="2.85228">
        <ele>1397.9</ele>
        <time>2021-08-25T15:59:53.000Z</time>
      </trkpt>
      <trkpt lat="45.62804" lon="2.85233">
        <ele>1396.5</ele>
        <time>2021-08-25T15:59:59.000Z</time>
      </trkpt>
      <trkpt lat="45.6281" lon="2.85234">
        <ele>1395</ele>
        <time>2021-08-25T16:00:05.000Z</time>
      </trkpt>
      <trkpt lat="45.62816" lon="2.85238">
        <ele>1393.7</ele>
        <time>2021-08-25T16:00:24.000Z</time>
      </trkpt>
      <trkpt lat="45.62822" lon="2.85243">
        <ele>1392.4</ele>
        <time>2021-08-25T16:00:30.000Z</time>
      </trkpt>
      <trkpt lat="45.62828" lon="2.85247">
        <ele>1391.1</ele>
        <time>2021-08-25T16:00:39.000Z</time>
      </trkpt>
      <trkpt lat="45.62835" lon="2.85249">
        <ele>1389.7</ele>
        <time>2021-08-25T16:00:51.000Z</time>
      </trkpt>
      <trkpt lat="45.62841" lon="2.85252">
        <ele>1389</ele>
        <time>2021-08-25T16:01:00.000Z</time>
      </trkpt>
      <trkpt lat="45.62848" lon="2.85252">
        <ele>1388</ele>
        <time>2021-08-25T16:01:06.000Z</time>
      </trkpt>
      <trkpt lat="45.62854" lon="2.85253">
        <ele>1387.3</ele>
        <time>2021-08-25T16:01:17.000Z</time>
      </trkpt>
      <trkpt lat="45.62859" lon="2.85245">
        <ele>1386</ele>
        <time>2021-08-25T16:01:48.000Z</time>
      </trkpt>
      <trkpt lat="45.62862" lon="2.85237">
        <ele>1385</ele>
        <time>2021-08-25T16:02:08.000Z</time>
      </trkpt>
      <trkpt lat="45.62865" lon="2.85228">
        <ele>1383.9</ele>
        <time>2021-08-25T16:02:15.000Z</time>
      </trkpt>
      <trkpt lat="45.62868" lon="2.8522">
        <ele>1382.8</ele>
        <time>2021-08-25T16:02:26.000Z</time>
      </trkpt>
      <trkpt lat="45.62875" lon="2.85217">
        <ele>1381.4</ele>
        <time>2021-08-25T16:02:34.000Z</time>
      </trkpt>
      <trkpt lat="45.62882" lon="2.85215">
        <ele>1380.1</ele>
        <time>2021-08-25T16:02:43.000Z</time>
      </trkpt>
      <trkpt lat="45.62887" lon="2.85221">
        <ele>1379.8</ele>
        <time>2021-08-25T16:02:56.000Z</time>
      </trkpt>
      <trkpt lat="45.62893" lon="2.85226">
        <ele>1379.2</ele>
        <time>2021-08-25T16:03:05.000Z</time>
      </trkpt>
      <trkpt lat="45.62895" lon="2.85239">
        <ele>1380.1</ele>
        <time>2021-08-25T16:03:12.000Z</time>
      </trkpt>
      <trkpt lat="45.62902" lon="2.85242">
        <ele>1379.3</ele>
        <time>2021-08-25T16:03:19.000Z</time>
      </trkpt>
      <trkpt lat="45.62908" lon="2.85249">
        <ele>1379.1</ele>
        <time>2021-08-25T16:03:26.000Z</time>
      </trkpt>
      <trkpt lat="45.62912" lon="2.85265">
        <ele>1380.1</ele>
        <time>2021-08-25T16:03:32.000Z</time>
      </trkpt>
      <trkpt lat="45.62916" lon="2.85291">
        <ele>1382</ele>
        <time>2021-08-25T16:03:37.000Z</time>
      </trkpt>
      <trkpt lat="45.62924" lon="2.85319">
        <ele>1383.5</ele>
        <time>2021-08-25T16:03:42.000Z</time>
      </trkpt>
      <trkpt lat="45.62935" lon="2.85324">
        <ele>1382.1</ele>
        <time>2021-08-25T16:03:48.000Z</time>
      </trkpt>
      <trkpt lat="45.62944" lon="2.85333">
        <ele>1381.4</ele>
        <time>2021-08-25T16:03:53.000Z</time>
      </trkpt>
      <trkpt lat="45.62952" lon="2.85337">
        <ele>1380.6</ele>
        <time>2021-08-25T16:03:58.000Z</time>
      </trkpt>
      <trkpt lat="45.6296" lon="2.85339">
        <ele>1379.5</ele>
        <time>2021-08-25T16:04:04.000Z</time>
      </trkpt>
      <trkpt lat="45.62967" lon="2.85345">
        <ele>1379.1</ele>
        <time>2021-08-25T16:04:09.000Z</time>
      </trkpt>
      <trkpt lat="45.62975" lon="2.8535">
        <ele>1378.3</ele>
        <time>2021-08-25T16:04:14.000Z</time>
      </trkpt>
      <trkpt lat="45.62983" lon="2.85353">
        <ele>1377.2</ele>
        <time>2021-08-25T16:04:20.000Z</time>
      </trkpt>
      <trkpt lat="45.62989" lon="2.85357">
        <ele>1376.6</ele>
        <time>2021-08-25T16:04:26.000Z</time>
      </trkpt>
      <trkpt lat="45.63001" lon="2.85357">
        <ele>1374.4</ele>
        <time>2021-08-25T16:04:32.000Z</time>
      </trkpt>
      <trkpt lat="45.63008" lon="2.85358">
        <ele>1373.5</ele>
        <time>2021-08-25T16:04:37.000Z</time>
      </trkpt>
      <trkpt lat="45.63015" lon="2.85359">
        <ele>1372.5</ele>
        <time>2021-08-25T16:04:42.000Z</time>
      </trkpt>
      <trkpt lat="45.63026" lon="2.8536">
        <ele>1371</ele>
        <time>2021-08-25T16:04:48.000Z</time>
      </trkpt>
      <trkpt lat="45.63033" lon="2.85361">
        <ele>1370</ele>
        <time>2021-08-25T16:04:54.000Z</time>
      </trkpt>
      <trkpt lat="45.6304" lon="2.85363">
        <ele>1369</ele>
        <time>2021-08-25T16:05:01.000Z</time>
      </trkpt>
      <trkpt lat="45.63047" lon="2.85364">
        <ele>1368</ele>
        <time>2021-08-25T16:05:06.000Z</time>
      </trkpt>
      <trkpt lat="45.63059" lon="2.85365">
        <ele>1366.2</ele>
        <time>2021-08-25T16:05:12.000Z</time>
      </trkpt>
      <trkpt lat="45.63066" lon="2.85368">
        <ele>1365.2</ele>
        <time>2021-08-25T16:05:18.000Z</time>
      </trkpt>
      <trkpt lat="45.63074" lon="2.85369">
        <ele>1363.9</ele>
        <time>2021-08-25T16:05:24.000Z</time>
      </trkpt>
      <trkpt lat="45.63082" lon="2.85372">
        <ele>1362.7</ele>
        <time>2021-08-25T16:05:29.000Z</time>
      </trkpt>
      <trkpt lat="45.63089" lon="2.85373">
        <ele>1361.8</ele>
        <time>2021-08-25T16:05:34.000Z</time>
      </trkpt>
      <trkpt lat="45.63098" lon="2.85373">
        <ele>1360.6</ele>
        <time>2021-08-25T16:05:40.000Z</time>
      </trkpt>
      <trkpt lat="45.63105" lon="2.85372">
        <ele>1359.7</ele>
        <time>2021-08-25T16:05:46.000Z</time>
      </trkpt>
      <trkpt lat="45.63112" lon="2.85371">
        <ele>1358.8</ele>
        <time>2021-08-25T16:05:52.000Z</time>
      </trkpt>
      <trkpt lat="45.63119" lon="2.8537">
        <ele>1357.9</ele>
        <time>2021-08-25T16:05:57.000Z</time>
      </trkpt>
      <trkpt lat="45.63126" lon="2.8537">
        <ele>1357</ele>
        <time>2021-08-25T16:06:04.000Z</time>
      </trkpt>
      <trkpt lat="45.63133" lon="2.85373">
        <ele>1356.2</ele>
        <time>2021-08-25T16:06:12.000Z</time>
      </trkpt>
      <trkpt lat="45.63145" lon="2.85379">
        <ele>1354.8</ele>
        <time>2021-08-25T16:06:29.000Z</time>
      </trkpt>
      <trkpt lat="45.63151" lon="2.85382">
        <ele>1354.1</ele>
        <time>2021-08-25T16:06:36.000Z</time>
      </trkpt>
      <trkpt lat="45.63158" lon="2.85384">
        <ele>1353.3</ele>
        <time>2021-08-25T16:06:44.000Z</time>
      </trkpt>
      <trkpt lat="45.63164" lon="2.85386">
        <ele>1352.6</ele>
        <time>2021-08-25T16:06:53.000Z</time>
      </trkpt>
      <trkpt lat="45.63174" lon="2.85385">
        <ele>1352.5</ele>
        <time>2021-08-25T16:07:09.000Z</time>
      </trkpt>
      <trkpt lat="45.63181" lon="2.85385">
        <ele>1352.8</ele>
        <time>2021-08-25T16:07:18.000Z</time>
      </trkpt>
      <trkpt lat="45.63187" lon="2.85391">
        <ele>1353.2</ele>
        <time>2021-08-25T16:07:26.000Z</time>
      </trkpt>
      <trkpt lat="45.63195" lon="2.85393">
        <ele>1353.5</ele>
        <time>2021-08-25T16:07:32.000Z</time>
      </trkpt>
      <trkpt lat="45.63202" lon="2.85391">
        <ele>1353.8</ele>
        <time>2021-08-25T16:07:41.000Z</time>
      </trkpt>
      <trkpt lat="45.63209" lon="2.85391">
        <ele>1354</ele>
        <time>2021-08-25T16:07:49.000Z</time>
      </trkpt>
      <trkpt lat="45.63215" lon="2.85393">
        <ele>1354.3</ele>
        <time>2021-08-25T16:08:02.000Z</time>
      </trkpt>
      <trkpt lat="45.63222" lon="2.85394">
        <ele>1354.5</ele>
        <time>2021-08-25T16:08:14.000Z</time>
      </trkpt>
      <trkpt lat="45.63228" lon="2.85391">
        <ele>1354.8</ele>
        <time>2021-08-25T16:08:21.000Z</time>
      </trkpt>
      <trkpt lat="45.63235" lon="2.8539">
        <ele>1355</ele>
        <time>2021-08-25T16:08:29.000Z</time>
      </trkpt>
      <trkpt lat="45.63242" lon="2.85388">
        <ele>1355.4</ele>
        <time>2021-08-25T16:08:37.000Z</time>
      </trkpt>
      <trkpt lat="45.63248" lon="2.85385">
        <ele>1355.7</ele>
        <time>2021-08-25T16:08:43.000Z</time>
      </trkpt>
      <trkpt lat="45.63255" lon="2.8538">
        <ele>1356.4</ele>
        <time>2021-08-25T16:08:49.000Z</time>
      </trkpt>
      <trkpt lat="45.63262" lon="2.85378">
        <ele>1357.1</ele>
        <time>2021-08-25T16:08:54.000Z</time>
      </trkpt>
      <trkpt lat="45.63268" lon="2.85383">
        <ele>1357.6</ele>
        <time>2021-08-25T16:09:02.000Z</time>
      </trkpt>
      <trkpt lat="45.63274" lon="2.85387">
        <ele>1358.2</ele>
        <time>2021-08-25T16:09:09.000Z</time>
      </trkpt>
      <trkpt lat="45.6328" lon="2.85393">
        <ele>1358.8</ele>
        <time>2021-08-25T16:09:14.000Z</time>
      </trkpt>
      <trkpt lat="45.63287" lon="2.85395">
        <ele>1359.5</ele>
        <time>2021-08-25T16:09:20.000Z</time>
      </trkpt>
      <trkpt lat="45.63293" lon="2.85393">
        <ele>1360.1</ele>
        <time>2021-08-25T16:09:27.000Z</time>
      </trkpt>
      <trkpt lat="45.63298" lon="2.85387">
        <ele>1360.7</ele>
        <time>2021-08-25T16:09:35.000Z</time>
      </trkpt>
      <trkpt lat="45.63305" lon="2.8539">
        <ele>1361.4</ele>
        <time>2021-08-25T16:09:44.000Z</time>
      </trkpt>
      <trkpt lat="45.63312" lon="2.8539">
        <ele>1362.1</ele>
        <time>2021-08-25T16:09:52.000Z</time>
      </trkpt>
      <trkpt lat="45.63319" lon="2.85391">
        <ele>1362.9</ele>
        <time>2021-08-25T16:09:59.000Z</time>
      </trkpt>
      <trkpt lat="45.63325" lon="2.85395">
        <ele>1363.6</ele>
        <time>2021-08-25T16:10:05.000Z</time>
      </trkpt>
      <trkpt lat="45.63331" lon="2.85398">
        <ele>1364.3</ele>
        <time>2021-08-25T16:10:10.000Z</time>
      </trkpt>
      <trkpt lat="45.63339" lon="2.85399">
        <ele>1364.7</ele>
        <time>2021-08-25T16:10:16.000Z</time>
      </trkpt>
      <trkpt lat="45.63346" lon="2.85395">
        <ele>1364.6</ele>
        <time>2021-08-25T16:10:36.000Z</time>
      </trkpt>
      <trkpt lat="45.63352" lon="2.85389">
        <ele>1364.3</ele>
        <time>2021-08-25T16:10:43.000Z</time>
      </trkpt>
      <trkpt lat="45.63358" lon="2.85385">
        <ele>1364.1</ele>
        <time>2021-08-25T16:10:48.000Z</time>
      </trkpt>
      <trkpt lat="45.63365" lon="2.85386">
        <ele>1364.1</ele>
        <time>2021-08-25T16:10:56.000Z</time>
      </trkpt>
      <trkpt lat="45.6337" lon="2.85391">
        <ele>1364.5</ele>
        <time>2021-08-25T16:11:02.000Z</time>
      </trkpt>
      <trkpt lat="45.63377" lon="2.85396">
        <ele>1364.9</ele>
        <time>2021-08-25T16:11:10.000Z</time>
      </trkpt>
      <trkpt lat="45.63384" lon="2.85398">
        <ele>1365.2</ele>
        <time>2021-08-25T16:11:37.000Z</time>
      </trkpt>
      <trkpt lat="45.63391" lon="2.854">
        <ele>1365.4</ele>
        <time>2021-08-25T16:12:11.000Z</time>
      </trkpt>
      <trkpt lat="45.63396" lon="2.85405">
        <ele>1366</ele>
        <time>2021-08-25T16:12:16.000Z</time>
      </trkpt>
      <trkpt lat="45.63403" lon="2.85404">
        <ele>1366.1</ele>
        <time>2021-08-25T16:12:22.000Z</time>
      </trkpt>
      <trkpt lat="45.6341" lon="2.85406">
        <ele>1366.4</ele>
        <time>2021-08-25T16:12:29.000Z</time>
      </trkpt>
      <trkpt lat="45.63418" lon="2.85403">
        <ele>1366.1</ele>
        <time>2021-08-25T16:12:37.000Z</time>
      </trkpt>
      <trkpt lat="45.63425" lon="2.85402">
        <ele>1365.6</ele>
        <time>2021-08-25T16:12:43.000Z</time>
      </trkpt>
      <trkpt lat="45.63431" lon="2.85414">
        <ele>1366.9</ele>
        <time>2021-08-25T16:12:48.000Z</time>
      </trkpt>
      <trkpt lat="45.63439" lon="2.85421">
        <ele>1366.6</ele>
        <time>2021-08-25T16:12:53.000Z</time>
      </trkpt>
      <trkpt lat="45.63448" lon="2.85425">
        <ele>1365.9</ele>
        <time>2021-08-25T16:12:58.000Z</time>
      </trkpt>
      <trkpt lat="45.63455" lon="2.85429">
        <ele>1365.3</ele>
        <time>2021-08-25T16:13:06.000Z</time>
      </trkpt>
      <trkpt lat="45.63462" lon="2.85427">
        <ele>1365.2</ele>
        <time>2021-08-25T16:13:13.000Z</time>
      </trkpt>
      <trkpt lat="45.63474" lon="2.85429">
        <ele>1364.6</ele>
        <time>2021-08-25T16:13:21.000Z</time>
      </trkpt>
      <trkpt lat="45.63481" lon="2.8543">
        <ele>1364.2</ele>
        <time>2021-08-25T16:13:26.000Z</time>
      </trkpt>
      <trkpt lat="45.6349" lon="2.85434">
        <ele>1363.7</ele>
        <time>2021-08-25T16:13:32.000Z</time>
      </trkpt>
      <trkpt lat="45.63497" lon="2.85437">
        <ele>1363.4</ele>
        <time>2021-08-25T16:13:37.000Z</time>
      </trkpt>
      <trkpt lat="45.63504" lon="2.85437">
        <ele>1363.3</ele>
        <time>2021-08-25T16:13:46.000Z</time>
      </trkpt>
      <trkpt lat="45.63509" lon="2.85432">
        <ele>1363.5</ele>
        <time>2021-08-25T16:13:52.000Z</time>
      </trkpt>
      <trkpt lat="45.63519" lon="2.85432">
        <ele>1363.5</ele>
        <time>2021-08-25T16:13:59.000Z</time>
      </trkpt>
      <trkpt lat="45.63526" lon="2.85423">
        <ele>1363.8</ele>
        <time>2021-08-25T16:14:22.000Z</time>
      </trkpt>
      <trkpt lat="45.63536" lon="2.85422">
        <ele>1363.8</ele>
        <time>2021-08-25T16:14:37.000Z</time>
      </trkpt>
      <trkpt lat="45.63542" lon="2.85427">
        <ele>1363.7</ele>
        <time>2021-08-25T16:14:47.000Z</time>
      </trkpt>
      <trkpt lat="45.63547" lon="2.85434">
        <ele>1363.5</ele>
        <time>2021-08-25T16:14:53.000Z</time>
      </trkpt>
      <trkpt lat="45.63552" lon="2.85443">
        <ele>1363.2</ele>
        <time>2021-08-25T16:14:59.000Z</time>
      </trkpt>
      <trkpt lat="45.63558" lon="2.85448">
        <ele>1363.1</ele>
        <time>2021-08-25T16:15:04.000Z</time>
      </trkpt>
      <trkpt lat="45.63564" lon="2.85452">
        <ele>1363.1</ele>
        <time>2021-08-25T16:15:11.000Z</time>
      </trkpt>
      <trkpt lat="45.63571" lon="2.85453">
        <ele>1363.1</ele>
        <time>2021-08-25T16:15:17.000Z</time>
      </trkpt>
      <trkpt lat="45.63579" lon="2.85455">
        <ele>1363.1</ele>
        <time>2021-08-25T16:15:23.000Z</time>
      </trkpt>
      <trkpt lat="45.63586" lon="2.85457">
        <ele>1363.2</ele>
        <time>2021-08-25T16:15:28.000Z</time>
      </trkpt>
      <trkpt lat="45.63593" lon="2.85462">
        <ele>1363.4</ele>
        <time>2021-08-25T16:15:33.000Z</time>
      </trkpt>
      <trkpt lat="45.63599" lon="2.85464">
        <ele>1363.6</ele>
        <time>2021-08-25T16:15:39.000Z</time>
      </trkpt>
      <trkpt lat="45.63606" lon="2.85467">
        <ele>1363.8</ele>
        <time>2021-08-25T16:15:45.000Z</time>
      </trkpt>
      <trkpt lat="45.63613" lon="2.85468">
        <ele>1364.1</ele>
        <time>2021-08-25T16:15:54.000Z</time>
      </trkpt>
      <trkpt lat="45.6362" lon="2.85469">
        <ele>1364.4</ele>
        <time>2021-08-25T16:16:01.000Z</time>
      </trkpt>
      <trkpt lat="45.63627" lon="2.85469">
        <ele>1364.7</ele>
        <time>2021-08-25T16:16:07.000Z</time>
      </trkpt>
      <trkpt lat="45.63634" lon="2.85469">
        <ele>1365</ele>
        <time>2021-08-25T16:16:13.000Z</time>
      </trkpt>
      <trkpt lat="45.63641" lon="2.85467">
        <ele>1365.4</ele>
        <time>2021-08-25T16:16:19.000Z</time>
      </trkpt>
      <trkpt lat="45.63647" lon="2.8547">
        <ele>1365.6</ele>
        <time>2021-08-25T16:16:27.000Z</time>
      </trkpt>
      <trkpt lat="45.63654" lon="2.85471">
        <ele>1365.8</ele>
        <time>2021-08-25T16:16:34.000Z</time>
      </trkpt>
      <trkpt lat="45.63661" lon="2.85474">
        <ele>1366</ele>
        <time>2021-08-25T16:16:41.000Z</time>
      </trkpt>
      <trkpt lat="45.63668" lon="2.85476">
        <ele>1366.2</ele>
        <time>2021-08-25T16:16:46.000Z</time>
      </trkpt>
      <trkpt lat="45.63676" lon="2.85479">
        <ele>1366.6</ele>
        <time>2021-08-25T16:16:52.000Z</time>
      </trkpt>
      <trkpt lat="45.63682" lon="2.85483">
        <ele>1366.8</ele>
        <time>2021-08-25T16:16:58.000Z</time>
      </trkpt>
      <trkpt lat="45.63689" lon="2.85484">
        <ele>1367.2</ele>
        <time>2021-08-25T16:17:05.000Z</time>
      </trkpt>
      <trkpt lat="45.63697" lon="2.85486">
        <ele>1367.7</ele>
        <time>2021-08-25T16:17:11.000Z</time>
      </trkpt>
      <trkpt lat="45.63704" lon="2.85486">
        <ele>1368.1</ele>
        <time>2021-08-25T16:17:17.000Z</time>
      </trkpt>
      <trkpt lat="45.63711" lon="2.85486">
        <ele>1368.6</ele>
        <time>2021-08-25T16:17:25.000Z</time>
      </trkpt>
      <trkpt lat="45.63718" lon="2.85488">
        <ele>1369</ele>
        <time>2021-08-25T16:17:48.000Z</time>
      </trkpt>
      <trkpt lat="45.63725" lon="2.85488">
        <ele>1369.5</ele>
        <time>2021-08-25T16:17:53.000Z</time>
      </trkpt>
      <trkpt lat="45.63737" lon="2.85487">
        <ele>1370.3</ele>
        <time>2021-08-25T16:18:03.000Z</time>
      </trkpt>
      <trkpt lat="45.63748" lon="2.85485">
        <ele>1371</ele>
        <time>2021-08-25T16:18:46.000Z</time>
      </trkpt>
      <trkpt lat="45.63754" lon="2.85491">
        <ele>1370.9</ele>
        <time>2021-08-25T16:19:11.000Z</time>
      </trkpt>
      <trkpt lat="45.63761" lon="2.85495">
        <ele>1370.5</ele>
        <time>2021-08-25T16:19:18.000Z</time>
      </trkpt>
      <trkpt lat="45.63768" lon="2.85502">
        <ele>1369.8</ele>
        <time>2021-08-25T16:19:24.000Z</time>
      </trkpt>
      <trkpt lat="45.63779" lon="2.85503">
        <ele>1369.2</ele>
        <time>2021-08-25T16:19:29.000Z</time>
      </trkpt>
      <trkpt lat="45.63785" lon="2.8551">
        <ele>1368</ele>
        <time>2021-08-25T16:19:36.000Z</time>
      </trkpt>
      <trkpt lat="45.63781" lon="2.85517">
        <ele>1367.2</ele>
        <time>2021-08-25T16:19:44.000Z</time>
      </trkpt>
      <trkpt lat="45.63776" lon="2.85525">
        <ele>1366.2</ele>
        <time>2021-08-25T16:19:49.000Z</time>
      </trkpt>
      <trkpt lat="45.6377" lon="2.8553">
        <ele>1365.7</ele>
        <time>2021-08-25T16:19:54.000Z</time>
      </trkpt>
      <trkpt lat="45.63769" lon="2.8554">
        <ele>1364.3</ele>
        <time>2021-08-25T16:20:15.000Z</time>
      </trkpt>
      <trkpt lat="45.63769" lon="2.8555">
        <ele>1362.8</ele>
        <time>2021-08-25T16:20:24.000Z</time>
      </trkpt>
      <trkpt lat="45.6377" lon="2.8556">
        <ele>1361.4</ele>
        <time>2021-08-25T16:20:35.000Z</time>
      </trkpt>
      <trkpt lat="45.63771" lon="2.85569">
        <ele>1360.1</ele>
        <time>2021-08-25T16:20:43.000Z</time>
      </trkpt>
      <trkpt lat="45.63777" lon="2.85577">
        <ele>1358.9</ele>
        <time>2021-08-25T16:20:52.000Z</time>
      </trkpt>
      <trkpt lat="45.63779" lon="2.85585">
        <ele>1357.7</ele>
        <time>2021-08-25T16:21:05.000Z</time>
      </trkpt>
      <trkpt lat="45.6378" lon="2.85594">
        <ele>1356.1</ele>
        <time>2021-08-25T16:21:15.000Z</time>
      </trkpt>
      <trkpt lat="45.6378" lon="2.85604">
        <ele>1354.4</ele>
        <time>2021-08-25T16:21:25.000Z</time>
      </trkpt>
      <trkpt lat="45.6378" lon="2.85614">
        <ele>1352.6</ele>
        <time>2021-08-25T16:21:37.000Z</time>
      </trkpt>
      <trkpt lat="45.63782" lon="2.85625">
        <ele>1350.8</ele>
        <time>2021-08-25T16:21:47.000Z</time>
      </trkpt>
      <trkpt lat="45.63784" lon="2.85636">
        <ele>1348.9</ele>
        <time>2021-08-25T16:21:55.000Z</time>
      </trkpt>
      <trkpt lat="45.63787" lon="2.85647">
        <ele>1347.1</ele>
        <time>2021-08-25T16:22:04.000Z</time>
      </trkpt>
      <trkpt lat="45.63787" lon="2.85661">
        <ele>1344.7</ele>
        <time>2021-08-25T16:22:09.000Z</time>
      </trkpt>
      <trkpt lat="45.63786" lon="2.85676">
        <ele>1342</ele>
        <time>2021-08-25T16:22:14.000Z</time>
      </trkpt>
      <trkpt lat="45.63788" lon="2.85695">
        <ele>1338.5</ele>
        <time>2021-08-25T16:22:20.000Z</time>
      </trkpt>
      <trkpt lat="45.63795" lon="2.85702">
        <ele>1337.6</ele>
        <time>2021-08-25T16:22:38.000Z</time>
      </trkpt>
      <trkpt lat="45.63805" lon="2.85708">
        <ele>1337</ele>
        <time>2021-08-25T16:24:22.000Z</time>
      </trkpt>
      <trkpt lat="45.63805" lon="2.85719">
        <ele>1335</ele>
        <time>2021-08-25T16:24:44.000Z</time>
      </trkpt>
      <trkpt lat="45.63807" lon="2.85729">
        <ele>1333.3</ele>
        <time>2021-08-25T16:24:58.000Z</time>
      </trkpt>
      <trkpt lat="45.63809" lon="2.85741">
        <ele>1331.2</ele>
        <time>2021-08-25T16:25:06.000Z</time>
      </trkpt>
      <trkpt lat="45.63819" lon="2.85758">
        <ele>1328.4</ele>
        <time>2021-08-25T16:25:12.000Z</time>
      </trkpt>
      <trkpt lat="45.63823" lon="2.85766">
        <ele>1326.8</ele>
        <time>2021-08-25T16:25:17.000Z</time>
      </trkpt>
      <trkpt lat="45.63821" lon="2.85775">
        <ele>1324.7</ele>
        <time>2021-08-25T16:25:22.000Z</time>
      </trkpt>
      <trkpt lat="45.6382" lon="2.85787">
        <ele>1322</ele>
        <time>2021-08-25T16:25:42.000Z</time>
      </trkpt>
      <trkpt lat="45.63826" lon="2.85793">
        <ele>1320.9</ele>
        <time>2021-08-25T16:25:53.000Z</time>
      </trkpt>
      <trkpt lat="45.63829" lon="2.85801">
        <ele>1319.2</ele>
        <time>2021-08-25T16:26:02.000Z</time>
      </trkpt>
      <trkpt lat="45.63834" lon="2.85809">
        <ele>1317.5</ele>
        <time>2021-08-25T16:26:08.000Z</time>
      </trkpt>
      <trkpt lat="45.63836" lon="2.85819">
        <ele>1315.3</ele>
        <time>2021-08-25T16:26:19.000Z</time>
      </trkpt>
      <trkpt lat="45.63837" lon="2.85829">
        <ele>1313</ele>
        <time>2021-08-25T16:26:25.000Z</time>
      </trkpt>
      <trkpt lat="45.63839" lon="2.85842">
        <ele>1309.8</ele>
        <time>2021-08-25T16:26:32.000Z</time>
      </trkpt>
      <trkpt lat="45.63841" lon="2.85855">
        <ele>1306.4</ele>
        <time>2021-08-25T16:26:37.000Z</time>
      </trkpt>
      <trkpt lat="45.63838" lon="2.85872">
        <ele>1301.9</ele>
        <time>2021-08-25T16:26:42.000Z</time>
      </trkpt>
      <trkpt lat="45.63827" lon="2.85889">
        <ele>1297.5</ele>
        <time>2021-08-25T16:26:48.000Z</time>
      </trkpt>
      <trkpt lat="45.63825" lon="2.859">
        <ele>1294.7</ele>
        <time>2021-08-25T16:26:53.000Z</time>
      </trkpt>
      <trkpt lat="45.63824" lon="2.85909">
        <ele>1292.4</ele>
        <time>2021-08-25T16:26:58.000Z</time>
      </trkpt>
      <trkpt lat="45.63822" lon="2.85918">
        <ele>1290.3</ele>
        <time>2021-08-25T16:27:06.000Z</time>
      </trkpt>
      <trkpt lat="45.63823" lon="2.85927">
        <ele>1288.3</ele>
        <time>2021-08-25T16:27:12.000Z</time>
      </trkpt>
      <trkpt lat="45.63818" lon="2.85933">
        <ele>1287.4</ele>
        <time>2021-08-25T16:27:17.000Z</time>
      </trkpt>
      <trkpt lat="45.63812" lon="2.85938">
        <ele>1286.7</ele>
        <time>2021-08-25T16:27:25.000Z</time>
      </trkpt>
      <trkpt lat="45.63815" lon="2.85947">
        <ele>1284.7</ele>
        <time>2021-08-25T16:27:35.000Z</time>
      </trkpt>
      <trkpt lat="45.63822" lon="2.85951">
        <ele>1283.4</ele>
        <time>2021-08-25T16:27:42.000Z</time>
      </trkpt>
      <trkpt lat="45.6383" lon="2.8595">
        <ele>1283</ele>
        <time>2021-08-25T16:27:48.000Z</time>
      </trkpt>
      <trkpt lat="45.63838" lon="2.85951">
        <ele>1282.6</ele>
        <time>2021-08-25T16:27:53.000Z</time>
      </trkpt>
      <trkpt lat="45.63845" lon="2.85956">
        <ele>1281.5</ele>
        <time>2021-08-25T16:28:02.000Z</time>
      </trkpt>
      <trkpt lat="45.63855" lon="2.8596">
        <ele>1280.6</ele>
        <time>2021-08-25T16:28:08.000Z</time>
      </trkpt>
      <trkpt lat="45.63863" lon="2.85963">
        <ele>1279.9</ele>
        <time>2021-08-25T16:28:13.000Z</time>
      </trkpt>
      <trkpt lat="45.63871" lon="2.85962">
        <ele>1280.1</ele>
        <time>2021-08-25T16:28:18.000Z</time>
      </trkpt>
      <trkpt lat="45.63878" lon="2.8596">
        <ele>1280.6</ele>
        <time>2021-08-25T16:28:24.000Z</time>
      </trkpt>
      <trkpt lat="45.63886" lon="2.85957">
        <ele>1281.3</ele>
        <time>2021-08-25T16:28:30.000Z</time>
      </trkpt>
      <trkpt lat="45.63902" lon="2.85954">
        <ele>1282.2</ele>
        <time>2021-08-25T16:28:36.000Z</time>
      </trkpt>
      <trkpt lat="45.63909" lon="2.85952">
        <ele>1282.8</ele>
        <time>2021-08-25T16:28:41.000Z</time>
      </trkpt>
      <trkpt lat="45.63917" lon="2.85954">
        <ele>1282.3</ele>
        <time>2021-08-25T16:28:49.000Z</time>
      </trkpt>
      <trkpt lat="45.63925" lon="2.85955">
        <ele>1282.1</ele>
        <time>2021-08-25T16:28:54.000Z</time>
      </trkpt>
      <trkpt lat="45.63932" lon="2.85953">
        <ele>1282.8</ele>
        <time>2021-08-25T16:29:38.000Z</time>
      </trkpt>
      <trkpt lat="45.63939" lon="2.85955">
        <ele>1282.3</ele>
        <time>2021-08-25T16:29:56.000Z</time>
      </trkpt>
      <trkpt lat="45.63945" lon="2.85959">
        <ele>1281.3</ele>
        <time>2021-08-25T16:30:07.000Z</time>
      </trkpt>
      <trkpt lat="45.63953" lon="2.8596">
        <ele>1281.2</ele>
        <time>2021-08-25T16:30:15.000Z</time>
      </trkpt>
      <trkpt lat="45.6396" lon="2.8596">
        <ele>1281.4</ele>
        <time>2021-08-25T16:30:22.000Z</time>
      </trkpt>
      <trkpt lat="45.63967" lon="2.85963">
        <ele>1280.7</ele>
        <time>2021-08-25T16:30:28.000Z</time>
      </trkpt>
      <trkpt lat="45.63979" lon="2.85966">
        <ele>1280.3</ele>
        <time>2021-08-25T16:30:33.000Z</time>
      </trkpt>
      <trkpt lat="45.63988" lon="2.85969">
        <ele>1279.8</ele>
        <time>2021-08-25T16:30:38.000Z</time>
      </trkpt>
      <trkpt lat="45.63995" lon="2.85971">
        <ele>1279.5</ele>
        <time>2021-08-25T16:30:44.000Z</time>
      </trkpt>
      <trkpt lat="45.64002" lon="2.85971">
        <ele>1279.5</ele>
        <time>2021-08-25T16:30:50.000Z</time>
      </trkpt>
      <trkpt lat="45.64008" lon="2.85972">
        <ele>1278.8</ele>
        <time>2021-08-25T16:30:58.000Z</time>
      </trkpt>
      <trkpt lat="45.64018" lon="2.85974">
        <ele>1277.6</ele>
        <time>2021-08-25T16:31:04.000Z</time>
      </trkpt>
      <trkpt lat="45.64026" lon="2.85976">
        <ele>1276.6</ele>
        <time>2021-08-25T16:31:09.000Z</time>
      </trkpt>
      <trkpt lat="45.64032" lon="2.85977">
        <ele>1276</ele>
        <time>2021-08-25T16:31:17.000Z</time>
      </trkpt>
      <trkpt lat="45.64038" lon="2.8598">
        <ele>1275</ele>
        <time>2021-08-25T16:31:26.000Z</time>
      </trkpt>
      <trkpt lat="45.64045" lon="2.85979">
        <ele>1274.7</ele>
        <time>2021-08-25T16:31:47.000Z</time>
      </trkpt>
      <trkpt lat="45.6405" lon="2.85985">
        <ele>1273.3</ele>
        <time>2021-08-25T16:31:52.000Z</time>
      </trkpt>
      <trkpt lat="45.64057" lon="2.85987">
        <ele>1272.5</ele>
        <time>2021-08-25T16:32:02.000Z</time>
      </trkpt>
      <trkpt lat="45.64064" lon="2.85991">
        <ele>1271.4</ele>
        <time>2021-08-25T16:32:19.000Z</time>
      </trkpt>
      <trkpt lat="45.6407" lon="2.8599">
        <ele>1271.2</ele>
        <time>2021-08-25T16:32:26.000Z</time>
      </trkpt>
      <trkpt lat="45.64077" lon="2.85996">
        <ele>1269.9</ele>
        <time>2021-08-25T16:32:53.000Z</time>
      </trkpt>
      <trkpt lat="45.64084" lon="2.85998">
        <ele>1269.3</ele>
        <time>2021-08-25T16:33:03.000Z</time>
      </trkpt>
      <trkpt lat="45.64091" lon="2.85998">
        <ele>1269.1</ele>
        <time>2021-08-25T16:33:09.000Z</time>
      </trkpt>
      <trkpt lat="45.64099" lon="2.85995">
        <ele>1269.3</ele>
        <time>2021-08-25T16:33:14.000Z</time>
      </trkpt>
      <trkpt lat="45.64106" lon="2.85996">
        <ele>1269</ele>
        <time>2021-08-25T16:33:20.000Z</time>
      </trkpt>
      <trkpt lat="45.64113" lon="2.86002">
        <ele>1268</ele>
        <time>2021-08-25T16:33:33.000Z</time>
      </trkpt>
      <trkpt lat="45.6412" lon="2.86004">
        <ele>1267.5</ele>
        <time>2021-08-25T16:33:42.000Z</time>
      </trkpt>
      <trkpt lat="45.64126" lon="2.86008">
        <ele>1266.7</ele>
        <time>2021-08-25T16:33:52.000Z</time>
      </trkpt>
      <trkpt lat="45.64135" lon="2.86013">
        <ele>1265.7</ele>
        <time>2021-08-25T16:34:01.000Z</time>
      </trkpt>
      <trkpt lat="45.64149" lon="2.86019">
        <ele>1264.5</ele>
        <time>2021-08-25T16:34:19.000Z</time>
      </trkpt>
      <trkpt lat="45.64154" lon="2.86014">
        <ele>1265.1</ele>
        <time>2021-08-25T16:34:28.000Z</time>
      </trkpt>
      <trkpt lat="45.64161" lon="2.86015">
        <ele>1264.8</ele>
        <time>2021-08-25T16:34:35.000Z</time>
      </trkpt>
      <trkpt lat="45.64175" lon="2.86021">
        <ele>1263.3</ele>
        <time>2021-08-25T16:34:52.000Z</time>
      </trkpt>
      <trkpt lat="45.64181" lon="2.86023">
        <ele>1262.7</ele>
        <time>2021-08-25T16:34:59.000Z</time>
      </trkpt>
      <trkpt lat="45.64187" lon="2.86026">
        <ele>1262</ele>
        <time>2021-08-25T16:35:06.000Z</time>
      </trkpt>
      <trkpt lat="45.64196" lon="2.86029">
        <ele>1261.1</ele>
        <time>2021-08-25T16:35:13.000Z</time>
      </trkpt>
      <trkpt lat="45.64203" lon="2.86032">
        <ele>1260.3</ele>
        <time>2021-08-25T16:35:25.000Z</time>
      </trkpt>
      <trkpt lat="45.64211" lon="2.86035">
        <ele>1259.4</ele>
        <time>2021-08-25T16:35:35.000Z</time>
      </trkpt>
      <trkpt lat="45.64216" lon="2.8604">
        <ele>1258.4</ele>
        <time>2021-08-25T16:35:43.000Z</time>
      </trkpt>
      <trkpt lat="45.64223" lon="2.86042">
        <ele>1257.7</ele>
        <time>2021-08-25T16:35:51.000Z</time>
      </trkpt>
      <trkpt lat="45.6423" lon="2.86045">
        <ele>1256.9</ele>
        <time>2021-08-25T16:36:01.000Z</time>
      </trkpt>
      <trkpt lat="45.64237" lon="2.86045">
        <ele>1256.6</ele>
        <time>2021-08-25T16:36:07.000Z</time>
      </trkpt>
      <trkpt lat="45.64244" lon="2.86044">
        <ele>1256.4</ele>
        <time>2021-08-25T16:36:13.000Z</time>
      </trkpt>
      <trkpt lat="45.64251" lon="2.86042">
        <ele>1256.4</ele>
        <time>2021-08-25T16:36:21.000Z</time>
      </trkpt>
      <trkpt lat="45.64258" lon="2.86043">
        <ele>1255.5</ele>
        <time>2021-08-25T16:36:26.000Z</time>
      </trkpt>
      <trkpt lat="45.64264" lon="2.86043">
        <ele>1255</ele>
        <time>2021-08-25T16:36:35.000Z</time>
      </trkpt>
      <trkpt lat="45.64272" lon="2.86043">
        <ele>1254.2</ele>
        <time>2021-08-25T16:36:41.000Z</time>
      </trkpt>
      <trkpt lat="45.64279" lon="2.86047">
        <ele>1253</ele>
        <time>2021-08-25T16:36:47.000Z</time>
      </trkpt>
      <trkpt lat="45.64283" lon="2.86054">
        <ele>1251.8</ele>
        <time>2021-08-25T16:36:55.000Z</time>
      </trkpt>
      <trkpt lat="45.64289" lon="2.86059">
        <ele>1250.6</ele>
        <time>2021-08-25T16:37:09.000Z</time>
      </trkpt>
      <trkpt lat="45.64295" lon="2.86065">
        <ele>1249.4</ele>
        <time>2021-08-25T16:37:19.000Z</time>
      </trkpt>
      <trkpt lat="45.64302" lon="2.86068">
        <ele>1248.6</ele>
        <time>2021-08-25T16:37:24.000Z</time>
      </trkpt>
      <trkpt lat="45.6431" lon="2.86069">
        <ele>1247.9</ele>
        <time>2021-08-25T16:37:29.000Z</time>
      </trkpt>
      <trkpt lat="45.64317" lon="2.8607">
        <ele>1247.3</ele>
        <time>2021-08-25T16:37:34.000Z</time>
      </trkpt>
      <trkpt lat="45.64323" lon="2.86075">
        <ele>1246.4</ele>
        <time>2021-08-25T16:37:54.000Z</time>
      </trkpt>
      <trkpt lat="45.64332" lon="2.8608">
        <ele>1245.4</ele>
        <time>2021-08-25T16:38:16.000Z</time>
      </trkpt>
      <trkpt lat="45.64339" lon="2.86077">
        <ele>1244.5</ele>
        <time>2021-08-25T16:38:22.000Z</time>
      </trkpt>
      <trkpt lat="45.64345" lon="2.86072">
        <ele>1243.7</ele>
        <time>2021-08-25T16:38:32.000Z</time>
      </trkpt>
      <trkpt lat="45.64353" lon="2.86061">
        <ele>1242.7</ele>
        <time>2021-08-25T16:38:47.000Z</time>
      </trkpt>
      <trkpt lat="45.64358" lon="2.86055">
        <ele>1241.9</ele>
        <time>2021-08-25T16:38:56.000Z</time>
      </trkpt>
      <trkpt lat="45.64364" lon="2.86053">
        <ele>1240.7</ele>
        <time>2021-08-25T16:39:03.000Z</time>
      </trkpt>
      <trkpt lat="45.64371" lon="2.86051">
        <ele>1239.2</ele>
        <time>2021-08-25T16:39:10.000Z</time>
      </trkpt>
      <trkpt lat="45.64375" lon="2.86044">
        <ele>1238.4</ele>
        <time>2021-08-25T16:39:25.000Z</time>
      </trkpt>
      <trkpt lat="45.64376" lon="2.86035">
        <ele>1238.4</ele>
        <time>2021-08-25T16:39:42.000Z</time>
      </trkpt>
      <trkpt lat="45.6438" lon="2.86027">
        <ele>1237.5</ele>
        <time>2021-08-25T16:39:54.000Z</time>
      </trkpt>
      <trkpt lat="45.64385" lon="2.8602">
        <ele>1236.3</ele>
        <time>2021-08-25T16:40:00.000Z</time>
      </trkpt>
      <trkpt lat="45.64388" lon="2.86007">
        <ele>1235.6</ele>
        <time>2021-08-25T16:40:05.000Z</time>
      </trkpt>
      <trkpt lat="45.64395" lon="2.86004">
        <ele>1233.5</ele>
        <time>2021-08-25T16:40:10.000Z</time>
      </trkpt>
      <trkpt lat="45.64399" lon="2.85994">
        <ele>1231.8</ele>
        <time>2021-08-25T16:40:19.000Z</time>
      </trkpt>
      <trkpt lat="45.64402" lon="2.85986">
        <ele>1230.1</ele>
        <time>2021-08-25T16:40:33.000Z</time>
      </trkpt>
      <trkpt lat="45.644" lon="2.85976">
        <ele>1229.9</ele>
        <time>2021-08-25T16:41:02.000Z</time>
      </trkpt>
      <trkpt lat="45.64397" lon="2.85968">
        <ele>1230.2</ele>
        <time>2021-08-25T16:41:21.000Z</time>
      </trkpt>
      <trkpt lat="45.64391" lon="2.85967">
        <ele>1232.1</ele>
        <time>2021-08-25T16:41:30.000Z</time>
      </trkpt>
      <trkpt lat="45.64381" lon="2.85969">
        <ele>1235.6</ele>
        <time>2021-08-25T16:41:55.000Z</time>
      </trkpt>
      <trkpt lat="45.64373" lon="2.85982">
        <ele>1239.1</ele>
        <time>2021-08-25T16:42:26.000Z</time>
      </trkpt>
      <trkpt lat="45.64368" lon="2.85975">
        <ele>1240.3</ele>
        <time>2021-08-25T16:42:37.000Z</time>
      </trkpt>
      <trkpt lat="45.64361" lon="2.85974">
        <ele>1242.6</ele>
        <time>2021-08-25T16:42:49.000Z</time>
      </trkpt>
      <trkpt lat="45.64357" lon="2.85981">
        <ele>1244.2</ele>
        <time>2021-08-25T16:42:55.000Z</time>
      </trkpt>
      <trkpt lat="45.6435" lon="2.85978">
        <ele>1246.3</ele>
        <time>2021-08-25T16:43:05.000Z</time>
      </trkpt>
      <trkpt lat="45.64344" lon="2.85971">
        <ele>1248.1</ele>
        <time>2021-08-25T16:43:11.000Z</time>
      </trkpt>
      <trkpt lat="45.64341" lon="2.85963">
        <ele>1248.9</ele>
        <time>2021-08-25T16:43:20.000Z</time>
      </trkpt>
      <trkpt lat="45.64335" lon="2.85954">
        <ele>1250.9</ele>
        <time>2021-08-25T16:43:28.000Z</time>
      </trkpt>
      <trkpt lat="45.6433" lon="2.85947">
        <ele>1251.9</ele>
        <time>2021-08-25T16:43:35.000Z</time>
      </trkpt>
      <trkpt lat="45.64326" lon="2.85939">
        <ele>1252.4</ele>
        <time>2021-08-25T16:43:44.000Z</time>
      </trkpt>
      <trkpt lat="45.64332" lon="2.85922">
        <ele>1251.3</ele>
        <time>2021-08-25T16:43:49.000Z</time>
      </trkpt>
      <trkpt lat="45.64328" lon="2.85914">
        <ele>1251.9</ele>
        <time>2021-08-25T16:43:55.000Z</time>
      </trkpt>
      <trkpt lat="45.64325" lon="2.85902">
        <ele>1252.5</ele>
        <time>2021-08-25T16:44:00.000Z</time>
      </trkpt>
      <trkpt lat="45.64326" lon="2.85892">
        <ele>1252.4</ele>
        <time>2021-08-25T16:44:05.000Z</time>
      </trkpt>
      <trkpt lat="45.64329" lon="2.85882">
        <ele>1252.1</ele>
        <time>2021-08-25T16:44:11.000Z</time>
      </trkpt>
      <trkpt lat="45.64328" lon="2.85872">
        <ele>1252.4</ele>
        <time>2021-08-25T16:44:19.000Z</time>
      </trkpt>
      <trkpt lat="45.6433" lon="2.85863">
        <ele>1252.2</ele>
        <time>2021-08-25T16:44:25.000Z</time>
      </trkpt>
      <trkpt lat="45.64335" lon="2.85843">
        <ele>1251.2</ele>
        <time>2021-08-25T16:44:30.000Z</time>
      </trkpt>
      <trkpt lat="45.64337" lon="2.85834">
        <ele>1250.5</ele>
        <time>2021-08-25T16:44:59.000Z</time>
      </trkpt>
      <trkpt lat="45.64348" lon="2.85829">
        <ele>1245.8</ele>
        <time>2021-08-25T16:45:04.000Z</time>
      </trkpt>
      <trkpt lat="45.64351" lon="2.8582">
        <ele>1244.5</ele>
        <time>2021-08-25T16:45:15.000Z</time>
      </trkpt>
      <trkpt lat="45.64353" lon="2.8581">
        <ele>1243.6</ele>
        <time>2021-08-25T16:45:31.000Z</time>
      </trkpt>
      <trkpt lat="45.64357" lon="2.858">
        <ele>1241.9</ele>
        <time>2021-08-25T16:45:36.000Z</time>
      </trkpt>
      <trkpt lat="45.64358" lon="2.85783">
        <ele>1241.5</ele>
        <time>2021-08-25T16:45:41.000Z</time>
      </trkpt>
      <trkpt lat="45.64362" lon="2.85776">
        <ele>1240</ele>
        <time>2021-08-25T16:45:48.000Z</time>
      </trkpt>
      <trkpt lat="45.6436" lon="2.85765">
        <ele>1240.7</ele>
        <time>2021-08-25T16:45:53.000Z</time>
      </trkpt>
      <trkpt lat="45.64361" lon="2.85754">
        <ele>1240.4</ele>
        <time>2021-08-25T16:46:04.000Z</time>
      </trkpt>
      <trkpt lat="45.64365" lon="2.85745">
        <ele>1239.5</ele>
        <time>2021-08-25T16:46:16.000Z</time>
      </trkpt>
      <trkpt lat="45.64369" lon="2.85737">
        <ele>1238.9</ele>
        <time>2021-08-25T16:46:23.000Z</time>
      </trkpt>
      <trkpt lat="45.64366" lon="2.85721">
        <ele>1241.5</ele>
        <time>2021-08-25T16:46:37.000Z</time>
      </trkpt>
      <trkpt lat="45.64371" lon="2.85712">
        <ele>1241</ele>
        <time>2021-08-25T16:46:45.000Z</time>
      </trkpt>
      <trkpt lat="45.64371" lon="2.85702">
        <ele>1242.1</ele>
        <time>2021-08-25T16:46:59.000Z</time>
      </trkpt>
      <trkpt lat="45.64378" lon="2.85698">
        <ele>1240.6</ele>
        <time>2021-08-25T16:47:04.000Z</time>
      </trkpt>
      <trkpt lat="45.64382" lon="2.85691">
        <ele>1240.4</ele>
        <time>2021-08-25T16:47:13.000Z</time>
      </trkpt>
      <trkpt lat="45.64386" lon="2.85683">
        <ele>1240.5</ele>
        <time>2021-08-25T16:47:18.000Z</time>
      </trkpt>
      <trkpt lat="45.64391" lon="2.85677">
        <ele>1240.1</ele>
        <time>2021-08-25T16:47:26.000Z</time>
      </trkpt>
      <trkpt lat="45.64398" lon="2.85678">
        <ele>1238.3</ele>
        <time>2021-08-25T16:47:32.000Z</time>
      </trkpt>
      <trkpt lat="45.64401" lon="2.85686">
        <ele>1236.4</ele>
        <time>2021-08-25T16:47:43.000Z</time>
      </trkpt>
      <trkpt lat="45.64407" lon="2.85683">
        <ele>1235.4</ele>
        <time>2021-08-25T16:48:01.000Z</time>
      </trkpt>
      <trkpt lat="45.64414" lon="2.85679">
        <ele>1234.4</ele>
        <time>2021-08-25T16:48:08.000Z</time>
      </trkpt>
      <trkpt lat="45.64421" lon="2.85675">
        <ele>1233.7</ele>
        <time>2021-08-25T16:48:19.000Z</time>
      </trkpt>
      <trkpt lat="45.64426" lon="2.85669">
        <ele>1233.8</ele>
        <time>2021-08-25T16:48:25.000Z</time>
      </trkpt>
      <trkpt lat="45.64432" lon="2.85663">
        <ele>1233.4</ele>
        <time>2021-08-25T16:48:31.000Z</time>
      </trkpt>
      <trkpt lat="45.64437" lon="2.85655">
        <ele>1233.1</ele>
        <time>2021-08-25T16:48:39.000Z</time>
      </trkpt>
      <trkpt lat="45.64445" lon="2.85651">
        <ele>1232</ele>
        <time>2021-08-25T16:48:44.000Z</time>
      </trkpt>
      <trkpt lat="45.64451" lon="2.85648">
        <ele>1231.2</ele>
        <time>2021-08-25T16:48:52.000Z</time>
      </trkpt>
      <trkpt lat="45.64457" lon="2.85643">
        <ele>1230.6</ele>
        <time>2021-08-25T16:48:57.000Z</time>
      </trkpt>
      <trkpt lat="45.64464" lon="2.85638">
        <ele>1230</ele>
        <time>2021-08-25T16:49:03.000Z</time>
      </trkpt>
      <trkpt lat="45.6447" lon="2.85632">
        <ele>1229.6</ele>
        <time>2021-08-25T16:49:09.000Z</time>
      </trkpt>
      <trkpt lat="45.64477" lon="2.85631">
        <ele>1228.5</ele>
        <time>2021-08-25T16:49:17.000Z</time>
      </trkpt>
      <trkpt lat="45.64484" lon="2.85631">
        <ele>1227.4</ele>
        <time>2021-08-25T16:49:27.000Z</time>
      </trkpt>
      <trkpt lat="45.64491" lon="2.85629">
        <ele>1226.5</ele>
        <time>2021-08-25T16:49:43.000Z</time>
      </trkpt>
      <trkpt lat="45.64497" lon="2.85631">
        <ele>1225.2</ele>
        <time>2021-08-25T16:50:01.000Z</time>
      </trkpt>
      <trkpt lat="45.64504" lon="2.8563">
        <ele>1224.3</ele>
        <time>2021-08-25T16:50:11.000Z</time>
      </trkpt>
      <trkpt lat="45.64511" lon="2.85628">
        <ele>1223.7</ele>
        <time>2021-08-25T16:50:20.000Z</time>
      </trkpt>
      <trkpt lat="45.64517" lon="2.85625">
        <ele>1223.4</ele>
        <time>2021-08-25T16:50:30.000Z</time>
      </trkpt>
      <trkpt lat="45.64524" lon="2.85623">
        <ele>1222.7</ele>
        <time>2021-08-25T16:50:39.000Z</time>
      </trkpt>
      <trkpt lat="45.64536" lon="2.85623">
        <ele>1221.2</ele>
        <time>2021-08-25T16:50:46.000Z</time>
      </trkpt>
      <trkpt lat="45.64549" lon="2.85619">
        <ele>1220.2</ele>
        <time>2021-08-25T16:50:52.000Z</time>
      </trkpt>
      <trkpt lat="45.64556" lon="2.85619">
        <ele>1219.3</ele>
        <time>2021-08-25T16:51:08.000Z</time>
      </trkpt>
      <trkpt lat="45.64563" lon="2.85616">
        <ele>1218.8</ele>
        <time>2021-08-25T16:51:17.000Z</time>
      </trkpt>
      <trkpt lat="45.64569" lon="2.85615">
        <ele>1218.2</ele>
        <time>2021-08-25T16:51:30.000Z</time>
      </trkpt>
      <trkpt lat="45.64574" lon="2.85607">
        <ele>1218.7</ele>
        <time>2021-08-25T16:51:38.000Z</time>
      </trkpt>
      <trkpt lat="45.64579" lon="2.856">
        <ele>1219.1</ele>
        <time>2021-08-25T16:52:16.000Z</time>
      </trkpt>
      <trkpt lat="45.64574" lon="2.85594">
        <ele>1220.6</ele>
        <time>2021-08-25T16:52:27.000Z</time>
      </trkpt>
      <trkpt lat="45.64572" lon="2.85604">
        <ele>1219.4</ele>
        <time>2021-08-25T16:52:34.000Z</time>
      </trkpt>
      <trkpt lat="45.64581" lon="2.85602">
        <ele>1218.6</ele>
        <time>2021-08-25T16:52:40.000Z</time>
      </trkpt>
      <trkpt lat="45.64593" lon="2.856">
        <ele>1217.9</ele>
        <time>2021-08-25T16:53:00.000Z</time>
      </trkpt>
      <trkpt lat="45.646" lon="2.85603">
        <ele>1217</ele>
        <time>2021-08-25T16:53:06.000Z</time>
      </trkpt>
      <trkpt lat="45.64606" lon="2.85605">
        <ele>1216.3</ele>
        <time>2021-08-25T16:53:13.000Z</time>
      </trkpt>
      <trkpt lat="45.64615" lon="2.85607">
        <ele>1215.5</ele>
        <time>2021-08-25T16:53:18.000Z</time>
      </trkpt>
      <trkpt lat="45.64623" lon="2.85611">
        <ele>1214.5</ele>
        <time>2021-08-25T16:53:31.000Z</time>
      </trkpt>
      <trkpt lat="45.6463" lon="2.85613">
        <ele>1213.8</ele>
        <time>2021-08-25T16:53:40.000Z</time>
      </trkpt>
      <trkpt lat="45.64636" lon="2.85618">
        <ele>1212.9</ele>
        <time>2021-08-25T16:53:47.000Z</time>
      </trkpt>
      <trkpt lat="45.64642" lon="2.85623">
        <ele>1212</ele>
        <time>2021-08-25T16:53:54.000Z</time>
      </trkpt>
      <trkpt lat="45.64649" lon="2.8563">
        <ele>1211</ele>
        <time>2021-08-25T16:54:00.000Z</time>
      </trkpt>
      <trkpt lat="45.64661" lon="2.85642">
        <ele>1209.3</ele>
        <time>2021-08-25T16:54:05.000Z</time>
      </trkpt>
      <trkpt lat="45.64668" lon="2.85645">
        <ele>1208.8</ele>
        <time>2021-08-25T16:54:11.000Z</time>
      </trkpt>
      <trkpt lat="45.64674" lon="2.85648">
        <ele>1208.4</ele>
        <time>2021-08-25T16:54:30.000Z</time>
      </trkpt>
      <trkpt lat="45.6468" lon="2.85652">
        <ele>1208.1</ele>
        <time>2021-08-25T16:54:37.000Z</time>
      </trkpt>
      <trkpt lat="45.64688" lon="2.85652">
        <ele>1208</ele>
        <time>2021-08-25T16:54:42.000Z</time>
      </trkpt>
      <trkpt lat="45.64692" lon="2.85644">
        <ele>1208.4</ele>
        <time>2021-08-25T16:55:02.000Z</time>
      </trkpt>
      <trkpt lat="45.64685" lon="2.85634">
        <ele>1209.2</ele>
        <time>2021-08-25T16:55:21.000Z</time>
      </trkpt>
      <trkpt lat="45.64686" lon="2.85643">
        <ele>1208.6</ele>
        <time>2021-08-25T16:55:52.000Z</time>
      </trkpt>
      <trkpt lat="45.64687" lon="2.85654">
        <ele>1207.8</ele>
        <time>2021-08-25T16:55:59.000Z</time>
      </trkpt>
      <trkpt lat="45.64693" lon="2.85658">
        <ele>1207.5</ele>
        <time>2021-08-25T16:56:06.000Z</time>
      </trkpt>
      <trkpt lat="45.64699" lon="2.85658">
        <ele>1207.5</ele>
        <time>2021-08-25T16:56:12.000Z</time>
      </trkpt>
      <trkpt lat="45.64706" lon="2.85661">
        <ele>1207.3</ele>
        <time>2021-08-25T16:56:19.000Z</time>
      </trkpt>
      <trkpt lat="45.64714" lon="2.85663">
        <ele>1207.2</ele>
        <time>2021-08-25T16:56:26.000Z</time>
      </trkpt>
      <trkpt lat="45.6472" lon="2.85665">
        <ele>1207.1</ele>
        <time>2021-08-25T16:56:34.000Z</time>
      </trkpt>
      <trkpt lat="45.64727" lon="2.85664">
        <ele>1207.1</ele>
        <time>2021-08-25T16:56:42.000Z</time>
      </trkpt>
      <trkpt lat="45.64734" lon="2.85662">
        <ele>1207.1</ele>
        <time>2021-08-25T16:56:50.000Z</time>
      </trkpt>
      <trkpt lat="45.64741" lon="2.85664">
        <ele>1207.1</ele>
        <time>2021-08-25T16:56:56.000Z</time>
      </trkpt>
      <trkpt lat="45.64747" lon="2.85662">
        <ele>1207.1</ele>
        <time>2021-08-25T16:57:05.000Z</time>
      </trkpt>
      <trkpt lat="45.64741" lon="2.85664">
        <ele>1207.1</ele>
        <time>2021-08-25T16:58:43.000Z</time>
      </trkpt>
    </trkseg>
  </trk>
</gpx>